Time,TemperatureF,DewpointF,PressureIn,WindDirection,WindDirectionDegrees,WindSpeedMPH,WindSpeedGustMPH,Humidity,HourlyPrecipIn,Conditions,Clouds,dailyrainin,SoftwareType,DateUTC
2013-03-03 00:00:00,28.6,27.3,29.71,NW,319,7.3,8.4,95,0.00,,---,0.00,VWS V14.01,2013-03-03 05:00:00,
2013-03-03 00:01:00,28.7,27.4,29.71,NNE,28,5.0,5.8,95,0.00,,---,0.00,VWS V14.01,2013-03-03 05:01:00,
2013-03-03 00:02:00,28.7,27.4,29.71,NNW,347,5.1,5.1,95,0.00,,---,0.00,VWS V14.01,2013-03-03 05:02:00,
2013-03-03 00:03:00,28.5,27.2,29.71,North,359,5.8,9.6,95,0.00,,,0.00,VWS V14.01,2013-03-03 05:03:00,
2013-03-03 00:04:00,28.7,27.4,29.71,NNW,330,4.7,6.6,95,0.00,,,0.00,VWS V14.01,2013-03-03 05:04:00,
2013-03-03 00:05:00,28.7,27.4,29.71,NW,321,0.0,5.4,95,0.00,,,0.00,VWS V14.01,2013-03-03 05:05:00,
2013-03-03 00:06:00,28.6,27.3,29.71,NNE,22,6.5,9.9,95,0.00,,,0.00,VWS V14.01,2013-03-03 05:06:00,
2013-03-03 00:07:00,28.6,27.3,29.71,North,359,5.2,5.9,95,0.00,,---,0.00,VWS V14.01,2013-03-03 05:07:00,
2013-03-03 00:08:00,28.4,27.0,29.71,NNW,347,6.3,8.7,94,0.00,,,0.00,VWS V14.01,2013-03-03 05:08:00,
2013-03-03 00:09:00,28.5,27.2,29.71,NW,325,4.6,6.3,95,0.00,,,0.00,VWS V14.01,2013-03-03 05:09:00,
2013-03-03 00:10:00,28.4,27.1,29.71,NNW,345,2.9,6.3,95,0.00,,,0.00,VWS V14.01,2013-03-03 05:10:00,
2013-03-03 00:11:00,28.6,27.3,29.71,NW,309,0.0,4.4,95,0.00,,,0.00,VWS V14.01,2013-03-03 05:11:00,
2013-03-03 00:12:00,28.5,27.2,29.71,NNW,332,0.0,4.7,95,0.00,,---,0.00,VWS V14.01,2013-03-03 05:12:00,
2013-03-03 00:13:00,28.4,27.1,29.71,NNW,335,5.6,8.4,95,0.00,,,0.00,VWS V14.01,2013-03-03 05:13:00,
2013-03-03 00:14:00,28.7,27.5,29.71,NNW,332,4.7,7.1,95,0.00,,,0.00,VWS V14.01,2013-03-03 05:14:00,
2013-03-03 00:15:00,28.5,27.2,29.71,NW,304,8.7,8.7,95,0.00,,,0.00,VWS V14.01,2013-03-03 05:15:00,
2013-03-03 00:16:00,28.6,27.3,29.71,WNW,300,3.2,8.7,95,0.00,,,0.00,VWS V14.01,2013-03-03 05:16:00,
2013-03-03 00:17:00,28.7,27.4,29.71,NNW,333,7.5,7.8,95,0.00,,---,0.00,VWS V14.01,2013-03-03 05:17:00,
2013-03-03 00:18:00,28.6,27.3,29.71,NNW,330,4.2,6.0,95,0.00,,,0.00,VWS V14.01,2013-03-03 05:18:00,
2013-03-03 00:19:00,28.7,27.4,29.71,NW,323,7.1,7.1,95,0.00,,,0.00,VWS V14.01,2013-03-03 05:19:00,
2013-03-03 00:20:00,28.6,27.2,29.71,NW,315,6.5,8.0,95,0.00,,,0.00,VWS V14.01,2013-03-03 05:20:00,
2013-03-03 00:21:00,28.7,27.4,29.71,NNW,338,4.9,6.8,95,0.00,,,0.00,VWS V14.01,2013-03-03 05:21:00,
2013-03-03 00:22:00,28.4,27.1,29.71,North,359,4.7,7.1,95,0.00,,---,0.00,VWS V14.01,2013-03-03 05:22:00,
2013-03-03 00:23:00,28.6,27.2,29.71,North,350,6.4,9.5,95,0.00,,,0.00,VWS V14.01,2013-03-03 05:23:00,
2013-03-03 00:24:00,28.6,27.3,29.71,NNW,345,7.0,8.5,95,0.00,,,0.00,VWS V14.01,2013-03-03 05:24:00,
2013-03-03 00:25:00,28.6,27.3,29.71,NNW,333,7.7,8.6,95,0.00,,,0.00,VWS V14.01,2013-03-03 05:25:00,
2013-03-03 00:26:00,28.4,27.0,29.71,North,359,7.0,10.4,95,0.00,,,0.00,VWS V14.01,2013-03-03 05:26:00,
2013-03-03 00:27:00,28.5,27.3,29.71,WSW,257,2.4,4.3,95,0.00,,---,0.00,VWS V14.01,2013-03-03 05:27:00,
2013-03-03 00:28:00,28.6,27.3,29.71,WNW,290,7.8,7.8,95,0.00,,,0.00,VWS V14.01,2013-03-03 05:28:00,
2013-03-03 00:29:00,28.4,27.2,29.71,West,276,4.3,8.0,95,0.00,,,0.00,VWS V14.01,2013-03-03 05:29:00,
2013-03-03 00:30:00,28.6,27.4,29.71,NW,314,0.0,4.4,95,0.00,,,0.00,VWS V14.01,2013-03-03 05:30:00,
2013-03-03 00:31:00,28.9,27.7,29.71,NW,314,0.0,0.0,95,0.00,,,0.00,VWS V14.01,2013-03-03 05:31:00,
2013-03-03 00:32:00,28.6,27.3,29.71,NNE,14,2.9,3.3,95,0.00,,---,0.00,VWS V14.01,2013-03-03 05:32:00,
2013-03-03 00:33:00,28.8,27.5,29.71,NW,314,5.4,6.7,95,0.00,,,0.00,VWS V14.01,2013-03-03 05:33:00,
2013-03-03 00:34:00,28.6,27.3,29.71,NW,307,3.2,12.2,95,0.00,,,0.00,VWS V14.01,2013-03-03 05:34:00,
2013-03-03 00:35:00,28.7,27.3,29.71,NNW,336,7.0,8.3,94,0.00,,,0.00,VWS V14.01,2013-03-03 05:35:00,
2013-03-03 00:36:00,28.4,27.1,29.71,WNW,298,7.5,10.4,95,0.00,,,0.00,VWS V14.01,2013-03-03 05:36:00,
2013-03-03 00:37:00,28.5,27.0,29.71,North,356,6.2,8.8,94,0.00,,---,0.00,VWS V14.01,2013-03-03 05:37:00,
2013-03-03 00:38:00,28.6,27.3,29.71,NNW,330,3.2,5.7,95,0.00,,,0.00,VWS V14.01,2013-03-03 05:38:00,
2013-03-03 00:39:00,28.6,27.3,29.71,North,359,6.3,9.1,95,0.00,,,0.00,VWS V14.01,2013-03-03 05:39:00,
2013-03-03 00:40:00,28.6,27.1,29.71,NW,322,6.0,8.8,94,0.00,,,0.00,VWS V14.01,2013-03-03 05:40:00,
2013-03-03 00:41:00,28.7,27.3,29.71,North,359,0.0,7.0,94,0.00,,,0.00,VWS V14.01,2013-03-03 05:41:00,
2013-03-03 00:42:00,28.5,27.1,29.71,North,359,0.0,3.4,94,0.00,,---,0.00,VWS V14.01,2013-03-03 05:42:00,
2013-03-03 00:43:00,28.6,27.2,29.71,North,359,3.3,6.0,95,0.00,,,0.00,VWS V14.01,2013-03-03 05:43:00,
2013-03-03 00:44:00,28.6,27.2,29.71,North,359,3.4,5.3,94,0.00,,,0.00,VWS V14.01,2013-03-03 05:44:00,
2013-03-03 00:45:00,28.7,27.3,29.71,NW,321,6.2,8.7,94,0.00,,,0.00,VWS V14.01,2013-03-03 05:45:00,
2013-03-03 00:46:00,28.6,27.2,29.71,NNW,330,0.0,6.2,95,0.00,,,0.00,VWS V14.01,2013-03-03 05:46:00,
2013-03-03 00:47:00,28.8,27.5,29.71,NW,305,0.0,0.0,95,0.00,,---,0.00,VWS V14.01,2013-03-03 05:47:00,
2013-03-03 00:48:00,28.6,27.2,29.71,NNW,330,0.0,0.0,95,0.00,,,0.00,VWS V14.01,2013-03-03 05:48:00,
2013-03-03 00:49:00,28.6,27.3,29.71,NW,305,0.0,2.6,95,0.00,,,0.00,VWS V14.01,2013-03-03 05:49:00,
2013-03-03 00:50:00,28.8,27.5,29.71,NW,305,0.0,0.0,95,0.00,,,0.00,VWS V14.01,2013-03-03 05:50:00,
2013-03-03 00:51:00,28.7,27.3,29.71,NW,305,0.0,0.0,94,0.00,,,0.00,VWS V14.01,2013-03-03 05:51:00,
2013-03-03 00:52:00,28.7,27.3,29.71,NW,305,0.0,0.0,94,0.00,,---,0.00,VWS V14.01,2013-03-03 05:52:00,
2013-03-03 00:53:00,28.8,27.4,29.71,NW,305,0.0,0.0,94,0.00,,,0.00,VWS V14.01,2013-03-03 05:53:00,
2013-03-03 00:54:00,28.8,27.5,29.71,NW,305,0.0,0.0,95,0.00,,,0.00,VWS V14.01,2013-03-03 05:54:00,
2013-03-03 00:55:00,28.7,27.2,29.71,NW,305,0.0,0.0,94,0.00,,,0.00,VWS V14.01,2013-03-03 05:55:00,
2013-03-03 00:56:00,28.7,27.3,29.71,North,7,4.1,5.8,94,0.00,,,0.00,VWS V14.01,2013-03-03 05:56:00,
2013-03-03 00:57:00,28.6,27.2,29.71,North,4,3.4,4.4,94,0.00,,---,0.00,VWS V14.01,2013-03-03 05:57:00,
2013-03-03 00:58:00,28.7,27.3,29.71,North,359,3.4,4.1,94,0.00,,,0.00,VWS V14.01,2013-03-03 05:58:00,
2013-03-03 00:59:00,28.8,27.4,29.71,North,10,0.0,6.1,94,0.00,,,0.00,VWS V14.01,2013-03-03 05:59:00,
2013-03-03 01:00:00,28.7,27.3,29.71,North,357,4.8,4.8,94,0.00,,,0.00,VWS V14.01,2013-03-03 06:00:00,
2013-03-03 01:01:00,28.6,27.2,29.71,North,359,0.0,5.4,94,0.00,,,0.00,VWS V14.01,2013-03-03 06:01:00,
2013-03-03 01:02:00,28.7,27.3,29.71,North,6,5.5,6.2,94,0.00,,,0.00,VWS V14.01,2013-03-03 06:02:00,
2013-03-03 01:03:00,28.6,27.1,29.71,North,3,5.7,7.1,94,0.00,,---,0.00,VWS V14.01,2013-03-03 06:03:00,
2013-03-03 01:04:00,28.7,27.3,29.71,NW,326,7.1,7.1,94,0.00,,,0.00,VWS V14.01,2013-03-03 06:04:00,
2013-03-03 01:05:00,28.6,27.1,29.71,North,0,6.6,7.1,94,0.00,,,0.00,VWS V14.01,2013-03-03 06:05:00,
2013-03-03 01:06:00,28.6,27.1,29.71,North,4,4.1,6.6,94,0.00,,,0.00,VWS V14.01,2013-03-03 06:06:00,
2013-03-03 01:07:00,28.5,27.1,29.71,NW,325,0.0,4.1,94,0.00,,,0.00,VWS V14.01,2013-03-03 06:07:00,
2013-03-03 01:08:00,28.5,27.1,29.71,NW,312,0.0,5.6,94,0.00,,---,0.00,VWS V14.01,2013-03-03 06:08:00,
2013-03-03 01:09:00,28.6,27.2,29.71,North,7,5.1,10.1,94,0.00,,,0.00,VWS V14.01,2013-03-03 06:09:00,
2013-03-03 01:10:00,28.5,27.1,29.71,NW,312,0.0,5.6,94,0.00,,,0.00,VWS V14.01,2013-03-03 06:10:00,
2013-03-03 01:11:00,28.5,27.1,29.71,NW,312,0.0,0.0,94,0.00,,,0.00,VWS V14.01,2013-03-03 06:11:00,
2013-03-03 01:12:00,28.6,27.2,29.71,NNW,328,7.0,7.0,94,0.00,,,0.00,VWS V14.01,2013-03-03 06:12:00,
2013-03-03 01:13:00,28.6,27.1,29.71,WNW,298,0.0,0.0,94,0.00,,---,0.00,VWS V14.01,2013-03-03 06:13:00,
2013-03-03 01:14:00,28.6,27.1,29.71,WNW,298,0.0,0.0,94,0.00,,,0.00,VWS V14.01,2013-03-03 06:14:00,
2013-03-03 01:15:00,28.7,27.2,29.71,WNW,298,3.4,3.4,94,0.00,,,0.00,VWS V14.01,2013-03-03 06:15:00,
2013-03-03 01:16:00,28.7,27.2,29.71,NNE,25,6.3,8.7,94,0.00,,,0.00,VWS V14.01,2013-03-03 06:16:00,
2013-03-03 01:17:00,28.6,27.1,29.71,NNW,335,4.3,8.1,94,0.00,,,0.00,VWS V14.01,2013-03-03 06:17:00,
2013-03-03 01:18:00,28.6,27.1,29.71,NNE,18,2.7,4.3,94,0.00,,---,0.00,VWS V14.01,2013-03-03 06:18:00,
2013-03-03 01:19:00,28.7,27.2,29.71,North,10,4.3,4.3,94,0.00,,,0.00,VWS V14.01,2013-03-03 06:19:00,
2013-03-03 01:20:00,28.8,27.3,29.71,NNE,18,0.0,4.3,94,0.00,,,0.00,VWS V14.01,2013-03-03 06:20:00,
2013-03-03 01:21:00,28.6,27.1,29.71,NNE,18,0.0,0.0,94,0.00,,,0.00,VWS V14.01,2013-03-03 06:21:00,
2013-03-03 01:22:00,28.8,27.4,29.71,NNE,18,0.0,0.0,94,0.00,,,0.00,VWS V14.01,2013-03-03 06:22:00,
2013-03-03 01:23:00,28.8,27.4,29.71,WNW,294,0.0,0.0,94,0.00,,---,0.00,VWS V14.01,2013-03-03 06:23:00,
2013-03-03 01:24:00,28.6,27.2,29.71,WNW,294,0.0,5.9,94,0.00,,,0.00,VWS V14.01,2013-03-03 06:24:00,
2013-03-03 01:25:00,28.8,27.4,29.71,WNW,294,0.0,0.0,94,0.00,,,0.00,VWS V14.01,2013-03-03 06:25:00,
2013-03-03 01:26:00,28.7,27.1,29.71,NNW,328,6.6,7.0,94,0.00,,,0.00,VWS V14.01,2013-03-03 06:26:00,
2013-03-03 01:27:00,28.7,27.1,29.71,WNW,302,0.0,6.6,94,0.00,,,0.00,VWS V14.01,2013-03-03 06:27:00,
2013-03-03 01:28:00,28.6,27.0,29.71,NW,322,6.5,7.8,94,0.00,,---,0.00,VWS V14.01,2013-03-03 06:28:00,
2013-03-03 01:29:00,28.8,27.2,29.71,WNW,302,0.0,0.0,94,0.00,,,0.00,VWS V14.01,2013-03-03 06:29:00,
2013-03-03 01:30:00,28.7,27.1,29.71,NNW,339,5.8,8.1,94,0.00,,,0.00,VWS V14.01,2013-03-03 06:30:00,
2013-03-03 01:31:00,28.6,27.0,29.71,NNW,328,5.2,7.4,94,0.00,,,0.00,VWS V14.01,2013-03-03 06:31:00,
2013-03-03 01:32:00,28.5,26.9,29.71,NNE,21,5.0,9.1,94,0.00,,,0.00,VWS V14.01,2013-03-03 06:32:00,
2013-03-03 01:33:00,28.6,27.1,29.71,NNE,32,2.8,7.5,94,0.00,,---,0.00,VWS V14.01,2013-03-03 06:33:00,
2013-03-03 01:34:00,28.3,26.8,29.71,NNW,336,6.5,8.3,94,0.00,,,0.00,VWS V14.01,2013-03-03 06:34:00,
2013-03-03 01:35:00,28.5,27.0,29.71,NE,41,3.4,7.5,94,0.00,,,0.00,VWS V14.01,2013-03-03 06:35:00,
2013-03-03 01:36:00,28.3,26.9,29.71,SW,225,2.8,7.6,94,0.00,,,0.00,VWS V14.01,2013-03-03 06:36:00,
2013-03-03 01:37:00,28.4,27.0,29.71,North,350,0.0,4.8,94,0.00,,,0.00,VWS V14.01,2013-03-03 06:37:00,
2013-03-03 01:38:00,28.3,26.9,29.71,NNW,333,5.0,5.0,94,0.00,,---,0.00,VWS V14.01,2013-03-03 06:38:00,
2013-03-03 01:39:00,28.5,27.0,29.71,NW,326,0.0,0.0,94,0.00,,,0.00,VWS V14.01,2013-03-03 06:39:00,
2013-03-03 01:40:00,28.3,26.9,29.71,NW,319,4.5,6.0,94,0.00,,,0.00,VWS V14.01,2013-03-03 06:40:00,
2013-03-03 01:41:00,28.3,26.9,29.71,North,349,8.5,8.8,94,0.00,,,0.00,VWS V14.01,2013-03-03 06:41:00,
2013-03-03 01:42:00,28.2,26.8,29.71,North,350,6.2,9.7,94,0.00,,,0.00,VWS V14.01,2013-03-03 06:42:00,
2013-03-03 01:43:00,28.1,26.8,29.71,West,267,0.0,7.7,95,0.00,,---,0.00,VWS V14.01,2013-03-03 06:43:00,
2013-03-03 01:44:00,28.1,26.7,29.71,North,353,7.7,8.6,94,0.00,,,0.00,VWS V14.01,2013-03-03 06:44:00,
2013-03-03 01:45:00,28.2,26.8,29.71,NNW,338,8.4,8.6,94,0.00,,,0.00,VWS V14.01,2013-03-03 06:45:00,
2013-03-03 01:46:00,28.0,26.6,29.71,NNW,346,8.5,9.5,94,0.00,,,0.00,VWS V14.01,2013-03-03 06:46:00,
2013-03-03 01:47:00,28.0,26.7,29.71,North,359,6.3,10.3,95,0.00,,,0.00,VWS V14.01,2013-03-03 06:47:00,
2013-03-03 01:48:00,28.1,26.8,29.71,North,3,5.8,8.6,95,0.00,,---,0.00,VWS V14.01,2013-03-03 06:48:00,
2013-03-03 01:49:00,28.1,26.9,29.71,NW,308,3.2,5.6,95,0.00,,,0.00,VWS V14.01,2013-03-03 06:49:00,
2013-03-03 01:50:00,28.0,26.7,29.71,NNE,15,3.5,8.6,95,0.00,,,0.00,VWS V14.01,2013-03-03 06:50:00,
2013-03-03 01:51:00,28.1,26.8,29.71,North,1,3.4,3.5,95,0.00,,,0.00,VWS V14.01,2013-03-03 06:51:00,
2013-03-03 01:52:00,28.1,26.8,29.71,North,352,4.9,7.5,95,0.00,,,0.00,VWS V14.01,2013-03-03 06:52:00,
2013-03-03 01:53:00,28.2,27.0,29.71,NNW,338,0.0,0.0,95,0.00,,---,0.00,VWS V14.01,2013-03-03 06:53:00,
2013-03-03 01:54:00,28.3,27.0,29.71,NNW,338,0.0,0.0,95,0.00,,,0.00,VWS V14.01,2013-03-03 06:54:00,
2013-03-03 01:55:00,28.2,27.0,29.71,NNW,338,0.0,0.0,95,0.00,,,0.00,VWS V14.01,2013-03-03 06:55:00,
2013-03-03 01:56:00,28.3,27.0,29.71,NW,316,4.3,4.3,95,0.00,,,0.00,VWS V14.01,2013-03-03 06:56:00,
2013-03-03 01:57:00,28.2,26.9,29.71,NNE,13,0.0,6.8,95,0.00,,,0.00,VWS V14.01,2013-03-03 06:57:00,
2013-03-03 01:58:00,28.1,26.7,29.71,NNW,329,6.5,7.6,94,0.00,,---,0.00,VWS V14.01,2013-03-03 06:58:00,
2013-03-03 01:59:00,28.2,27.0,29.71,NNE,13,0.0,0.0,95,0.00,,,0.00,VWS V14.01,2013-03-03 06:59:00,
2013-03-03 02:00:00,28.1,26.7,29.71,North,7,5.5,7.6,94,0.00,,,0.00,VWS V14.01,2013-03-03 07:00:00,
2013-03-03 02:01:00,28.2,26.8,29.71,NW,308,0.0,7.6,94,0.00,,,0.00,VWS V14.01,2013-03-03 07:01:00,
2013-03-03 02:02:00,28.3,26.9,29.70,NW,308,3.2,3.2,94,0.00,,,0.00,VWS V14.01,2013-03-03 07:02:00,
2013-03-03 02:03:00,28.4,27.0,29.70,NNW,328,0.0,0.0,94,0.00,,---,0.00,VWS V14.01,2013-03-03 07:03:00,
2013-03-03 02:04:00,28.3,26.9,29.70,NNW,328,0.0,4.5,94,0.00,,,0.00,VWS V14.01,2013-03-03 07:04:00,
2013-03-03 02:05:00,28.3,26.9,29.70,NNW,328,0.0,0.0,94,0.00,,,0.00,VWS V14.01,2013-03-03 07:05:00,
2013-03-03 02:06:00,28.5,27.1,29.70,NNW,328,0.0,0.0,94,0.00,,,0.00,VWS V14.01,2013-03-03 07:06:00,
2013-03-03 02:07:00,28.2,26.8,29.70,NNW,328,0.0,0.0,94,0.00,,,0.00,VWS V14.01,2013-03-03 07:07:00,
2013-03-03 02:08:00,28.4,27.0,29.70,NNW,328,0.0,0.0,94,0.00,,---,0.00,VWS V14.01,2013-03-03 07:08:00,
2013-03-03 02:09:00,28.4,27.0,29.70,NNW,328,0.0,0.0,94,0.00,,,0.00,VWS V14.01,2013-03-03 07:09:00,
2013-03-03 02:10:00,28.4,27.0,29.70,NNW,328,0.0,0.0,94,0.00,,,0.00,VWS V14.01,2013-03-03 07:10:00,
2013-03-03 02:11:00,28.2,26.8,29.70,NW,325,7.6,8.2,94,0.00,,,0.00,VWS V14.01,2013-03-03 07:11:00,
2013-03-03 02:12:00,28.1,26.6,29.70,NW,322,6.3,8.6,94,0.00,,,0.00,VWS V14.01,2013-03-03 07:12:00,
2013-03-03 02:13:00,28.3,26.9,29.70,West,273,0.0,0.0,94,0.00,,---,0.00,VWS V14.01,2013-03-03 07:13:00,
2013-03-03 02:14:00,28.1,26.7,29.70,West,273,0.0,4.5,94,0.00,,,0.00,VWS V14.01,2013-03-03 07:14:00,
2013-03-03 02:15:00,28.1,26.7,29.70,West,273,0.0,0.0,94,0.00,,,0.00,VWS V14.01,2013-03-03 07:15:00,
2013-03-03 02:16:00,28.2,26.8,29.70,West,273,0.0,0.0,94,0.00,,,0.00,VWS V14.01,2013-03-03 07:16:00,
2013-03-03 02:17:00,28.2,26.8,29.70,West,273,0.0,0.0,94,0.00,,,0.00,VWS V14.01,2013-03-03 07:17:00,
2013-03-03 02:18:00,28.1,26.6,29.70,NNW,332,6.6,6.6,94,0.00,,---,0.00,VWS V14.01,2013-03-03 07:18:00,
2013-03-03 02:19:00,28.2,26.8,29.70,West,281,0.0,8.1,94,0.00,,,0.00,VWS V14.01,2013-03-03 07:19:00,
2013-03-03 02:20:00,28.1,26.6,29.70,NNW,340,6.3,6.6,94,0.00,,,0.00,VWS V14.01,2013-03-03 07:20:00,
2013-03-03 02:21:00,28.0,26.5,29.70,North,350,5.8,6.3,94,0.00,,,0.00,VWS V14.01,2013-03-03 07:21:00,
2013-03-03 02:22:00,28.1,26.6,29.70,North,3,0.0,7.3,94,0.00,,,0.00,VWS V14.01,2013-03-03 07:22:00,
2013-03-03 02:23:00,27.9,26.5,29.70,North,354,4.3,5.1,95,0.00,,---,0.00,VWS V14.01,2013-03-03 07:23:00,
2013-03-03 02:24:00,28.0,26.6,29.70,NW,314,4.8,7.7,94,0.00,,,0.00,VWS V14.01,2013-03-03 07:24:00,
2013-03-03 02:25:00,27.9,26.5,29.70,North,354,4.3,5.1,95,0.00,,,0.00,VWS V14.01,2013-03-03 07:25:00,
2013-03-03 02:26:00,28.0,26.6,29.70,North,359,0.0,4.3,95,0.00,,,0.00,VWS V14.01,2013-03-03 07:26:00,
2013-03-03 02:27:00,28.1,26.7,29.70,North,359,0.0,0.0,94,0.00,,,0.00,VWS V14.01,2013-03-03 07:27:00,
2013-03-03 02:28:00,28.0,26.6,29.69,NNE,17,4.8,4.8,94,0.00,,---,0.00,VWS V14.01,2013-03-03 07:28:00,
2013-03-03 02:29:00,28.1,26.8,29.69,North,359,0.0,0.0,95,0.00,,,0.00,VWS V14.01,2013-03-03 07:29:00,
2013-03-03 02:30:00,28.0,26.6,29.69,NNE,22,4.8,6.8,94,0.00,,,0.00,VWS V14.01,2013-03-03 07:30:00,
2013-03-03 02:31:00,27.9,26.5,29.69,North,353,4.7,6.6,94,0.00,,,0.00,VWS V14.01,2013-03-03 07:31:00,
2013-03-03 02:32:00,27.8,26.4,29.69,North,1,5.0,7.7,94,0.00,,,0.00,VWS V14.01,2013-03-03 07:32:00,
2013-03-03 02:33:00,27.7,26.4,29.69,North,1,5.3,5.9,95,0.00,,---,0.00,VWS V14.01,2013-03-03 07:33:00,
2013-03-03 02:34:00,27.8,26.5,29.69,NNW,340,5.4,7.4,95,0.00,,,0.00,VWS V14.01,2013-03-03 07:34:00,
2013-03-03 02:35:00,27.7,26.4,29.69,North,1,5.3,5.9,95,0.00,,,0.00,VWS V14.01,2013-03-03 07:35:00,
2013-03-03 02:36:00,27.7,26.4,29.69,NNW,333,7.8,8.0,95,0.00,,,0.00,VWS V14.01,2013-03-03 07:36:00,
2013-03-03 02:37:00,27.5,26.3,29.69,NNE,14,7.6,9.4,95,0.00,,,0.00,VWS V14.01,2013-03-03 07:37:00,
2013-03-03 02:38:00,27.7,26.5,29.69,North,359,0.0,2.9,95,0.00,,---,0.00,VWS V14.01,2013-03-03 07:38:00,
2013-03-03 02:39:00,27.8,26.6,29.69,North,359,2.9,4.4,95,0.00,,,0.00,VWS V14.01,2013-03-03 07:39:00,
2013-03-03 02:40:00,27.7,26.5,29.69,North,359,0.0,2.9,95,0.00,,,0.00,VWS V14.01,2013-03-03 07:40:00,
2013-03-03 02:41:00,27.8,26.6,29.69,North,359,0.0,0.0,95,0.00,,,0.00,VWS V14.01,2013-03-03 07:41:00,
2013-03-03 02:42:00,27.8,26.6,29.69,North,359,0.0,0.0,95,0.00,,,0.00,VWS V14.01,2013-03-03 07:42:00,
2013-03-03 02:43:00,27.8,26.4,29.69,NNW,330,0.0,4.7,94,0.00,,---,0.00,VWS V14.01,2013-03-03 07:43:00,
2013-03-03 02:44:00,27.9,26.6,29.69,NNW,330,4.7,6.1,95,0.00,,,0.00,VWS V14.01,2013-03-03 07:44:00,
2013-03-03 02:45:00,27.8,26.4,29.69,NNW,330,0.0,4.7,94,0.00,,,0.00,VWS V14.01,2013-03-03 07:45:00,
2013-03-03 02:46:00,27.8,26.4,29.69,North,11,5.4,8.7,94,0.00,,,0.00,VWS V14.01,2013-03-03 07:46:00,
2013-03-03 02:47:00,27.8,26.4,29.69,North,356,5.8,7.5,94,0.00,,,0.00,VWS V14.01,2013-03-03 07:47:00,
2013-03-03 02:48:00,27.9,26.5,29.69,NNW,332,3.5,4.5,95,0.00,,---,0.00,VWS V14.01,2013-03-03 07:48:00,
2013-03-03 02:49:00,27.9,26.5,29.69,NNE,20,0.0,6.6,94,0.00,,,0.00,VWS V14.01,2013-03-03 07:49:00,
2013-03-03 02:50:00,27.9,26.5,29.69,NNW,332,3.5,4.5,95,0.00,,,0.00,VWS V14.01,2013-03-03 07:50:00,
2013-03-03 02:51:00,27.9,26.5,29.69,NW,314,0.0,4.9,94,0.00,,,0.00,VWS V14.01,2013-03-03 07:51:00,
2013-03-03 02:52:00,27.8,26.4,29.69,NW,314,0.0,0.0,94,0.00,,,0.00,VWS V14.01,2013-03-03 07:52:00,
2013-03-03 02:53:00,27.9,26.5,29.69,NW,326,0.0,0.0,94,0.00,,---,0.00,VWS V14.01,2013-03-03 07:53:00,
2013-03-03 02:54:00,27.8,26.5,29.69,NW,326,0.0,3.5,95,0.00,,,0.00,VWS V14.01,2013-03-03 07:54:00,
2013-03-03 02:55:00,27.9,26.5,29.69,NW,326,0.0,0.0,94,0.00,,,0.00,VWS V14.01,2013-03-03 07:55:00,
2013-03-03 02:56:00,28.1,26.8,29.69,NW,326,0.0,0.0,95,0.00,,,0.00,VWS V14.01,2013-03-03 07:56:00,
2013-03-03 02:57:00,28.0,26.5,29.69,North,11,0.0,5.6,94,0.00,,,0.00,VWS V14.01,2013-03-03 07:57:00,
2013-03-03 02:58:00,28.2,26.8,29.69,NNW,342,0.0,0.0,94,0.00,,---,0.00,VWS V14.01,2013-03-03 07:58:00,
2013-03-03 02:59:00,28.0,26.5,29.69,NNW,342,0.0,4.6,94,0.00,,,0.00,VWS V14.01,2013-03-03 07:59:00,
2013-03-03 03:00:00,28.2,26.8,29.69,NNW,342,0.0,0.0,94,0.00,,,0.00,VWS V14.01,2013-03-03 08:00:00,
2013-03-03 03:01:00,28.1,26.7,29.69,NNW,342,0.0,0.0,94,0.00,,,0.00,VWS V14.01,2013-03-03 08:01:00,
2013-03-03 03:02:00,28.1,26.6,29.69,NNW,342,2.9,3.2,94,0.00,,,0.00,VWS V14.01,2013-03-03 08:02:00,
2013-03-03 03:03:00,27.9,26.4,29.69,NNE,18,0.0,0.0,94,0.00,,---,0.00,VWS V14.01,2013-03-03 08:03:00,
2013-03-03 03:04:00,28.0,26.4,29.69,NNE,18,0.0,6.2,94,0.00,,,0.00,VWS V14.01,2013-03-03 08:04:00,
2013-03-03 03:05:00,27.9,26.4,29.69,NNE,18,0.0,0.0,94,0.00,,,0.00,VWS V14.01,2013-03-03 08:05:00,
2013-03-03 03:06:00,28.2,26.6,29.69,NNE,18,0.0,0.0,94,0.00,,,0.00,VWS V14.01,2013-03-03 08:06:00,
2013-03-03 03:07:00,28.1,26.6,29.69,NNE,18,0.0,0.0,94,0.00,,,0.00,VWS V14.01,2013-03-03 08:07:00,
2013-03-03 03:08:00,28.3,26.8,29.69,NNE,18,0.0,0.0,94,0.00,,---,0.00,VWS V14.01,2013-03-03 08:08:00,
2013-03-03 03:09:00,28.0,26.5,29.69,NNE,18,0.0,0.0,94,0.00,,,0.00,VWS V14.01,2013-03-03 08:09:00,
2013-03-03 03:10:00,28.3,26.8,29.69,NNE,18,0.0,0.0,94,0.00,,,0.00,VWS V14.01,2013-03-03 08:10:00,
2013-03-03 03:11:00,28.0,26.4,29.69,NNE,18,0.0,0.0,94,0.00,,,0.00,VWS V14.01,2013-03-03 08:11:00,
2013-03-03 03:12:00,28.0,26.4,29.69,NNE,18,0.0,0.0,94,0.00,,,0.00,VWS V14.01,2013-03-03 08:12:00,
2013-03-03 03:13:00,28.0,26.4,29.69,NNW,338,5.5,7.6,94,0.00,,---,0.00,VWS V14.01,2013-03-03 08:13:00,
2013-03-03 03:14:00,28.1,26.5,29.69,NW,319,0.0,6.6,94,0.00,,,0.00,VWS V14.01,2013-03-03 08:14:00,
2013-03-03 03:15:00,28.0,26.4,29.69,NNW,338,5.5,7.6,94,0.00,,,0.00,VWS V14.01,2013-03-03 08:15:00,
2013-03-03 03:16:00,27.9,26.2,29.69,North,8,5.5,10.2,93,0.00,,,0.00,VWS V14.01,2013-03-03 08:16:00,
2013-03-03 03:17:00,28.1,26.4,29.69,NNE,24,0.0,5.5,93,0.00,,,0.00,VWS V14.01,2013-03-03 08:17:00,
2013-03-03 03:18:00,27.9,26.3,29.69,NNW,335,0.0,0.0,94,0.00,,---,0.00,VWS V14.01,2013-03-03 08:18:00,
2013-03-03 03:19:00,27.7,26.0,29.69,NNW,335,0.0,0.0,93,0.00,,,0.00,VWS V14.01,2013-03-03 08:19:00,
2013-03-03 03:20:00,27.9,26.3,29.69,NNW,335,0.0,0.0,94,0.00,,,0.00,VWS V14.01,2013-03-03 08:20:00,
2013-03-03 03:21:00,27.9,26.4,29.69,NNW,335,0.0,0.0,94,0.00,,,0.00,VWS V14.01,2013-03-03 08:21:00,
2013-03-03 03:22:00,27.9,26.4,29.69,NNW,335,0.0,0.0,94,0.00,,,0.00,VWS V14.01,2013-03-03 08:22:00,
2013-03-03 03:23:00,27.9,26.3,29.69,West,281,0.0,5.3,94,0.00,,---,0.00,VWS V14.01,2013-03-03 08:23:00,
2013-03-03 03:24:00,28.1,26.5,29.69,NW,309,5.3,7.0,94,0.00,,,0.00,VWS V14.01,2013-03-03 08:24:00,
2013-03-03 03:25:00,27.9,26.3,29.68,West,281,0.0,5.3,94,0.00,,,0.00,VWS V14.01,2013-03-03 08:25:00,
2013-03-03 03:26:00,28.1,26.4,29.68,West,281,0.0,0.0,93,0.00,,,0.00,VWS V14.01,2013-03-03 08:26:00,
2013-03-03 03:27:00,28.1,26.3,29.68,NNW,339,3.5,8.0,93,0.00,,,0.00,VWS V14.01,2013-03-03 08:27:00,
2013-03-03 03:28:00,28.0,26.2,29.69,WNW,297,0.0,6.6,93,0.00,,---,0.00,VWS V14.01,2013-03-03 08:28:00,
2013-03-03 03:29:00,28.1,26.3,29.68,NW,309,0.0,5.3,93,0.00,,,0.00,VWS V14.01,2013-03-03 08:29:00,
2013-03-03 03:30:00,28.0,26.2,29.68,WNW,297,0.0,6.6,93,0.00,,,0.00,VWS V14.01,2013-03-03 08:30:00,
2013-03-03 03:31:00,28.1,26.3,29.68,NNW,332,0.0,6.0,93,0.00,,,0.00,VWS V14.01,2013-03-03 08:31:00,
2013-03-03 03:32:00,27.9,26.1,29.68,NW,308,0.0,6.1,93,0.00,,,0.00,VWS V14.01,2013-03-03 08:32:00,
2013-03-03 03:33:00,27.9,26.1,29.69,North,359,0.0,4.2,93,0.00,,---,0.00,VWS V14.01,2013-03-03 08:33:00,
2013-03-03 03:34:00,27.9,26.1,29.68,North,359,4.2,4.7,93,0.00,,,0.00,VWS V14.01,2013-03-03 08:34:00,
2013-03-03 03:35:00,27.9,26.1,29.69,North,359,0.0,4.2,93,0.00,,,0.00,VWS V14.01,2013-03-03 08:35:00,
2013-03-03 03:36:00,27.9,26.0,29.68,North,354,6.4,7.8,93,0.00,,,0.00,VWS V14.01,2013-03-03 08:36:00,
2013-03-03 03:37:00,27.8,26.0,29.68,NNW,336,4.3,7.8,93,0.00,,,0.00,VWS V14.01,2013-03-03 08:37:00,
2013-03-03 03:38:00,27.7,25.9,29.69,WNW,301,4.5,6.0,93,0.00,,---,0.00,VWS V14.01,2013-03-03 08:38:00,
2013-03-03 03:39:00,27.7,26.0,29.68,NNE,14,3.3,7.2,93,0.00,,,0.00,VWS V14.01,2013-03-03 08:39:00,
2013-03-03 03:40:00,27.7,25.9,29.68,WNW,301,4.5,6.0,93,0.00,,,0.00,VWS V14.01,2013-03-03 08:40:00,
2013-03-03 03:41:00,27.6,25.9,29.68,NW,314,5.7,5.7,93,0.00,,,0.00,VWS V14.01,2013-03-03 08:41:00,
2013-03-03 03:42:00,27.6,26.0,29.68,WNW,290,1.5,5.9,94,0.00,,,0.00,VWS V14.01,2013-03-03 08:42:00,
2013-03-03 03:43:00,27.7,26.0,29.69,NNW,328,4.3,4.3,93,0.00,,---,0.00,VWS V14.01,2013-03-03 08:43:00,
2013-03-03 03:44:00,27.6,25.9,29.68,WNW,290,0.0,5.3,93,0.00,,,0.00,VWS V14.01,2013-03-03 08:44:00,
2013-03-03 03:45:00,27.7,26.0,29.68,NNW,328,4.3,4.3,93,0.00,,,0.00,VWS V14.01,2013-03-03 08:45:00,
2013-03-03 03:46:00,27.5,25.8,29.68,NNE,13,6.6,7.3,93,0.00,,,0.00,VWS V14.01,2013-03-03 08:46:00,
2013-03-03 03:47:00,27.7,26.0,29.68,NNW,335,5.8,7.9,93,0.00,,,0.00,VWS V14.01,2013-03-03 08:47:00,
2013-03-03 03:48:00,27.5,25.9,29.69,North,7,5.1,8.3,93,0.00,,---,0.00,VWS V14.01,2013-03-03 08:48:00,
2013-03-03 03:49:00,27.4,25.8,29.68,NW,307,5.8,6.8,94,0.00,,,0.00,VWS V14.01,2013-03-03 08:49:00,
2013-03-03 03:50:00,27.5,25.9,29.68,North,7,5.1,8.3,93,0.00,,,0.00,VWS V14.01,2013-03-03 08:50:00,
2013-03-03 03:51:00,27.4,25.8,29.68,North,353,7.1,9.0,94,0.00,,,0.00,VWS V14.01,2013-03-03 08:51:00,
2013-03-03 03:52:00,27.3,25.7,29.68,North,8,4.5,8.9,94,0.00,,,0.00,VWS V14.01,2013-03-03 08:52:00,
2013-03-03 03:53:00,27.3,25.8,29.69,North,352,0.0,5.4,94,0.00,,---,0.00,VWS V14.01,2013-03-03 08:53:00,
2013-03-03 03:54:00,27.2,25.6,29.68,NW,325,5.3,8.9,94,0.00,,,0.00,VWS V14.01,2013-03-03 08:54:00,
2013-03-03 03:55:00,27.3,25.8,29.68,North,352,0.0,5.4,94,0.00,,,0.00,VWS V14.01,2013-03-03 08:55:00,
2013-03-03 03:56:00,27.3,25.8,29.68,NW,315,7.4,7.4,94,0.00,,,0.00,VWS V14.01,2013-03-03 08:56:00,
2013-03-03 03:57:00,27.4,25.9,29.68,NNW,328,6.4,8.1,94,0.00,,,0.00,VWS V14.01,2013-03-03 08:57:00,
2013-03-03 03:58:00,27.5,26.0,29.69,NW,308,0.0,3.4,94,0.00,,---,0.00,VWS V14.01,2013-03-03 08:58:00,
2013-03-03 03:59:00,27.3,25.8,29.68,West,259,3.2,5.3,94,0.00,,,0.00,VWS V14.01,2013-03-03 08:59:00,
2013-03-03 04:00:00,27.5,26.0,29.68,NW,308,0.0,3.4,94,0.00,,,0.00,VWS V14.01,2013-03-03 09:00:00,
2013-03-03 04:01:00,27.3,25.7,29.68,WNW,302,0.0,8.2,94,0.00,,,0.00,VWS V14.01,2013-03-03 09:01:00,
2013-03-03 04:02:00,27.5,25.9,29.68,NNW,335,0.0,6.2,93,0.00,,,0.00,VWS V14.01,2013-03-03 09:02:00,
2013-03-03 04:03:00,27.5,25.9,29.69,NNW,335,0.0,0.0,94,0.00,,---,0.00,VWS V14.01,2013-03-03 09:03:00,
2013-03-03 04:04:00,27.5,25.9,29.68,NNW,335,0.0,0.0,94,0.00,,,0.00,VWS V14.01,2013-03-03 09:04:00,
2013-03-03 04:05:00,27.5,25.9,29.68,NNW,335,0.0,0.0,94,0.00,,,0.00,VWS V14.01,2013-03-03 09:05:00,
2013-03-03 04:06:00,27.5,25.9,29.68,NNW,335,0.0,0.0,94,0.00,,,0.00,VWS V14.01,2013-03-03 09:06:00,
2013-03-03 04:07:00,27.5,25.9,29.68,NNW,335,0.0,0.0,94,0.00,,,0.00,VWS V14.01,2013-03-03 09:07:00,
2013-03-03 04:08:00,27.7,26.1,29.69,NNW,332,4.3,4.5,94,0.00,,---,0.00,VWS V14.01,2013-03-03 09:08:00,
2013-03-03 04:09:00,27.4,25.8,29.68,NNW,335,0.0,0.0,94,0.00,,,0.00,VWS V14.01,2013-03-03 09:09:00,
2013-03-03 04:10:00,27.7,26.1,29.68,NNW,332,4.3,4.5,94,0.00,,,0.00,VWS V14.01,2013-03-03 09:10:00,
2013-03-03 04:11:00,27.5,25.8,29.69,NNW,332,0.0,4.3,93,0.00,,,0.00,VWS V14.01,2013-03-03 09:11:00,
2013-03-03 04:12:00,27.4,25.6,29.69,WNW,291,0.0,6.5,93,0.00,,,0.00,VWS V14.01,2013-03-03 09:12:00,
2013-03-03 04:13:00,27.4,25.6,29.69,NW,315,0.0,6.3,93,0.00,,---,0.00,VWS V14.01,2013-03-03 09:13:00,
2013-03-03 04:14:00,27.5,25.8,29.69,NNW,328,6.3,6.6,93,0.00,,,0.00,VWS V14.01,2013-03-03 09:14:00,
2013-03-03 04:15:00,27.4,25.6,29.69,NW,315,0.0,6.3,93,0.00,,,0.00,VWS V14.01,2013-03-03 09:15:00,
2013-03-03 04:16:00,27.4,25.7,29.69,NNW,336,5.4,5.4,93,0.00,,,0.00,VWS V14.01,2013-03-03 09:16:00,
2013-03-03 04:17:00,27.3,25.5,29.69,NNW,330,0.0,5.8,93,0.00,,,0.00,VWS V14.01,2013-03-03 09:17:00,
2013-03-03 04:18:00,27.4,25.6,29.69,NW,312,0.0,0.0,93,0.00,,---,0.00,VWS V14.01,2013-03-03 09:18:00,
2013-03-03 04:19:00,27.4,25.6,29.69,NW,312,0.0,0.0,93,0.00,,,0.00,VWS V14.01,2013-03-03 09:19:00,
2013-03-03 04:20:00,27.4,25.6,29.69,NW,312,0.0,0.0,93,0.00,,,0.00,VWS V14.01,2013-03-03 09:20:00,
2013-03-03 04:21:00,27.6,25.8,29.69,NW,312,0.0,0.0,93,0.00,,,0.00,VWS V14.01,2013-03-03 09:21:00,
2013-03-03 04:22:00,27.4,25.6,29.69,NW,312,0.0,0.0,93,0.00,,,0.00,VWS V14.01,2013-03-03 09:22:00,
2013-03-03 04:23:00,27.2,25.3,29.69,NW,312,0.0,0.0,92,0.00,,---,0.00,VWS V14.01,2013-03-03 09:23:00,
2013-03-03 04:24:00,27.4,25.7,29.69,NW,312,0.0,0.0,93,0.00,,,0.00,VWS V14.01,2013-03-03 09:24:00,
2013-03-03 04:25:00,27.2,25.3,29.69,NW,312,0.0,0.0,92,0.00,,,0.00,VWS V14.01,2013-03-03 09:25:00,
2013-03-03 04:26:00,27.3,25.5,29.69,NW,312,0.0,0.0,93,0.00,,,0.00,VWS V14.01,2013-03-03 09:26:00,
2013-03-03 04:27:00,27.4,25.6,29.69,NNE,21,2.7,2.7,93,0.00,,,0.00,VWS V14.01,2013-03-03 09:27:00,
2013-03-03 04:28:00,27.3,25.5,29.69,WNW,301,0.0,8.0,93,0.00,,---,0.00,VWS V14.01,2013-03-03 09:28:00,
2013-03-03 04:29:00,27.3,25.5,29.69,North,7,6.6,6.6,93,0.00,,,0.00,VWS V14.01,2013-03-03 09:29:00,
2013-03-03 04:30:00,27.3,25.5,29.69,WNW,301,0.0,8.0,93,0.00,,,0.00,VWS V14.01,2013-03-03 09:30:00,
2013-03-03 04:31:00,27.4,25.6,29.69,WNW,301,0.0,0.0,93,0.00,,,0.00,VWS V14.01,2013-03-03 09:31:00,
2013-03-03 04:32:00,27.3,25.6,29.69,WNW,301,0.0,0.0,93,0.00,,,0.00,VWS V14.01,2013-03-03 09:32:00,
2013-03-03 04:33:00,27.3,25.5,29.69,WNW,300,0.0,2.5,93,0.00,,---,0.00,VWS V14.01,2013-03-03 09:33:00,
2013-03-03 04:34:00,27.3,25.6,29.69,WNW,300,0.0,0.0,93,0.00,,,0.00,VWS V14.01,2013-03-03 09:34:00,
2013-03-03 04:35:00,27.3,25.5,29.69,WNW,300,0.0,2.5,93,0.00,,,0.00,VWS V14.01,2013-03-03 09:35:00,
2013-03-03 04:36:00,27.3,25.5,29.69,WNW,300,0.0,0.0,93,0.00,,,0.00,VWS V14.01,2013-03-03 09:36:00,
2013-03-03 04:37:00,27.4,25.6,29.69,WNW,300,0.0,0.0,93,0.00,,,0.00,VWS V14.01,2013-03-03 09:37:00,
2013-03-03 04:38:00,27.4,25.6,29.69,North,10,0.0,3.1,93,0.00,,---,0.00,VWS V14.01,2013-03-03 09:38:00,
2013-03-03 04:39:00,27.3,25.5,29.69,NNE,20,2.3,4.8,93,0.00,,,0.00,VWS V14.01,2013-03-03 09:39:00,
2013-03-03 04:40:00,27.4,25.6,29.69,North,10,0.0,3.1,93,0.00,,,0.00,VWS V14.01,2013-03-03 09:40:00,
2013-03-03 04:41:00,27.4,25.6,29.69,NNW,343,5.7,7.7,93,0.00,,,0.00,VWS V14.01,2013-03-03 09:41:00,
2013-03-03 04:42:00,27.3,25.4,29.69,NW,323,5.0,8.7,92,0.00,,,0.00,VWS V14.01,2013-03-03 09:42:00,
2013-03-03 04:43:00,27.3,25.4,29.69,NNW,340,6.3,6.3,92,0.00,,---,0.00,VWS V14.01,2013-03-03 09:43:00,
2013-03-03 04:44:00,27.3,25.4,29.69,NW,305,3.5,7.5,92,0.00,,,0.00,VWS V14.01,2013-03-03 09:44:00,
2013-03-03 04:45:00,27.3,25.4,29.69,NNW,340,6.3,6.3,92,0.00,,,0.00,VWS V14.01,2013-03-03 09:45:00,
2013-03-03 04:46:00,27.1,25.2,29.69,North,359,2.1,6.5,92,0.00,,,0.00,VWS V14.01,2013-03-03 09:46:00,
2013-03-03 04:47:00,27.4,25.5,29.69,North,8,4.6,4.6,93,0.00,,,0.00,VWS V14.01,2013-03-03 09:47:00,
2013-03-03 04:48:00,27.4,25.6,29.69,North,0,0.0,0.0,93,0.00,,---,0.00,VWS V14.01,2013-03-03 09:48:00,
2013-03-03 04:49:00,27.3,25.5,29.69,North,0,0.0,0.0,93,0.00,,,0.00,VWS V14.01,2013-03-03 09:49:00,
2013-03-03 04:50:00,27.4,25.6,29.69,North,0,0.0,0.0,93,0.00,,,0.00,VWS V14.01,2013-03-03 09:50:00,
2013-03-03 04:51:00,27.3,25.5,29.69,North,0,0.0,0.0,93,0.00,,,0.00,VWS V14.01,2013-03-03 09:51:00,
2013-03-03 04:52:00,27.4,25.8,29.69,North,0,0.0,0.0,94,0.00,,,0.00,VWS V14.01,2013-03-03 09:52:00,
2013-03-03 04:53:00,27.4,25.4,29.69,North,0,0.0,0.0,92,0.00,,---,0.00,VWS V14.01,2013-03-03 09:53:00,
2013-03-03 04:54:00,27.5,25.7,29.69,North,0,0.0,0.0,93,0.00,,,0.00,VWS V14.01,2013-03-03 09:54:00,
2013-03-03 04:55:00,27.4,25.4,29.69,North,0,0.0,0.0,92,0.00,,,0.00,VWS V14.01,2013-03-03 09:55:00,
2013-03-03 04:56:00,27.3,25.3,29.69,North,0,0.0,0.0,92,0.00,,,0.00,VWS V14.01,2013-03-03 09:56:00,
2013-03-03 04:57:00,27.5,25.5,29.69,North,0,0.0,0.0,92,0.00,,,0.00,VWS V14.01,2013-03-03 09:57:00,
2013-03-03 04:58:00,27.2,25.1,29.69,NNW,340,6.4,8.6,92,0.00,,---,0.00,VWS V14.01,2013-03-03 09:58:00,
2013-03-03 04:59:00,27.4,25.4,29.69,NNW,328,7.1,8.4,92,0.00,,,0.00,VWS V14.01,2013-03-03 09:59:00,
2013-03-03 05:00:00,27.2,25.1,29.69,NNW,340,6.4,8.6,92,0.00,,,0.00,VWS V14.01,2013-03-03 10:00:00,
2013-03-03 05:01:00,27.1,25.0,29.69,NNE,15,6.8,8.5,92,0.00,,,0.00,VWS V14.01,2013-03-03 10:01:00,
2013-03-03 05:02:00,27.2,25.2,29.69,NNE,15,8.1,9.3,92,0.00,,,0.00,VWS V14.01,2013-03-03 10:02:00,
2013-03-03 05:03:00,27.1,25.2,29.69,North,357,0.0,0.0,92,0.00,,---,0.00,VWS V14.01,2013-03-03 10:03:00,
2013-03-03 05:04:00,27.2,25.2,29.69,North,357,0.0,0.0,92,0.00,,,0.00,VWS V14.01,2013-03-03 10:04:00,
2013-03-03 05:05:00,27.1,25.2,29.69,North,357,0.0,0.0,92,0.00,,,0.00,VWS V14.01,2013-03-03 10:05:00,
2013-03-03 05:06:00,27.1,25.1,29.69,North,357,0.0,0.0,92,0.00,,,0.00,VWS V14.01,2013-03-03 10:06:00,
2013-03-03 05:07:00,27.1,25.1,29.69,North,359,0.0,6.1,92,0.00,,,0.00,VWS V14.01,2013-03-03 10:07:00,
2013-03-03 05:08:00,27.1,25.1,29.70,NW,315,0.0,4.7,92,0.00,,---,0.00,VWS V14.01,2013-03-03 10:08:00,
2013-03-03 05:09:00,26.9,24.8,29.70,NW,315,4.7,9.1,92,0.00,,,0.00,VWS V14.01,2013-03-03 10:09:00,
2013-03-03 05:10:00,27.1,25.1,29.70,NW,315,0.0,4.7,92,0.00,,,0.00,VWS V14.01,2013-03-03 10:10:00,
2013-03-03 05:11:00,27.1,25.1,29.70,North,359,6.0,6.9,92,0.00,,,0.00,VWS V14.01,2013-03-03 10:11:00,
2013-03-03 05:12:00,27.1,25.0,29.70,NW,326,0.0,7.0,92,0.00,,,0.00,VWS V14.01,2013-03-03 10:12:00,
2013-03-03 05:13:00,27.2,25.2,29.69,NW,326,0.0,0.0,92,0.00,,---,0.00,VWS V14.01,2013-03-03 10:13:00,
2013-03-03 05:14:00,27.2,25.2,29.70,NW,326,0.0,4.5,92,0.00,,,0.00,VWS V14.01,2013-03-03 10:14:00,
2013-03-03 05:15:00,27.2,25.2,29.69,NW,326,0.0,0.0,92,0.00,,,0.00,VWS V14.01,2013-03-03 10:15:00,
2013-03-03 05:16:00,27.2,25.2,29.70,NW,323,0.0,7.1,92,0.00,,,0.00,VWS V14.01,2013-03-03 10:16:00,
2013-03-03 05:17:00,27.3,25.4,29.70,NW,311,3.3,4.6,92,0.00,,,0.00,VWS V14.01,2013-03-03 10:17:00,
2013-03-03 05:18:00,27.3,25.3,29.70,North,7,0.0,0.0,92,0.00,,---,0.00,VWS V14.01,2013-03-03 10:18:00,
2013-03-03 05:19:00,27.2,25.1,29.70,North,7,0.0,5.5,92,0.00,,,0.00,VWS V14.01,2013-03-03 10:19:00,
2013-03-03 05:20:00,27.3,25.3,29.70,North,7,0.0,0.0,92,0.00,,,0.00,VWS V14.01,2013-03-03 10:20:00,
2013-03-03 05:21:00,27.3,25.3,29.70,North,7,0.0,0.0,92,0.00,,,0.00,VWS V14.01,2013-03-03 10:21:00,
2013-03-03 05:22:00,27.3,25.3,29.70,North,7,0.0,0.0,92,0.00,,,0.00,VWS V14.01,2013-03-03 10:22:00,
2013-03-03 05:23:00,27.5,25.5,29.70,North,7,0.0,0.0,92,0.00,,---,0.00,VWS V14.01,2013-03-03 10:23:00,
2013-03-03 05:24:00,27.4,25.4,29.70,North,7,0.0,0.0,92,0.00,,,0.00,VWS V14.01,2013-03-03 10:24:00,
2013-03-03 05:25:00,27.5,25.5,29.70,North,7,0.0,0.0,92,0.00,,,0.00,VWS V14.01,2013-03-03 10:25:00,
2013-03-03 05:26:00,27.4,25.2,29.70,NNW,338,4.5,7.5,91,0.00,,,0.00,VWS V14.01,2013-03-03 10:26:00,
2013-03-03 05:27:00,27.3,25.0,29.70,WNW,295,7.3,7.3,91,0.00,,,0.00,VWS V14.01,2013-03-03 10:27:00,
2013-03-03 05:28:00,27.3,25.1,29.70,NW,319,0.0,0.0,91,0.00,,---,0.00,VWS V14.01,2013-03-03 10:28:00,
2013-03-03 05:29:00,27.3,25.1,29.70,NW,319,0.0,5.4,91,0.00,,,0.00,VWS V14.01,2013-03-03 10:29:00,
2013-03-03 05:30:00,27.3,25.1,29.70,NW,319,0.0,0.0,91,0.00,,,0.00,VWS V14.01,2013-03-03 10:30:00,
2013-03-03 05:31:00,27.3,25.1,29.70,NW,319,0.0,0.0,91,0.00,,,0.00,VWS V14.01,2013-03-03 10:31:00,
2013-03-03 05:32:00,27.4,25.2,29.69,NW,319,0.0,0.0,91,0.00,,,0.00,VWS V14.01,2013-03-03 10:32:00,
2013-03-03 05:33:00,27.6,25.5,29.70,NW,319,0.0,0.0,92,0.00,,---,0.00,VWS V14.01,2013-03-03 10:33:00,
2013-03-03 05:34:00,27.4,25.3,29.70,NW,319,0.0,0.0,92,0.00,,,0.00,VWS V14.01,2013-03-03 10:34:00,
2013-03-03 05:35:00,27.6,25.5,29.70,NW,319,0.0,0.0,92,0.00,,,0.00,VWS V14.01,2013-03-03 10:35:00,
2013-03-03 05:36:00,27.4,25.3,29.70,NW,319,0.0,0.0,92,0.00,,,0.00,VWS V14.01,2013-03-03 10:36:00,
2013-03-03 05:37:00,27.4,25.3,29.70,NW,319,0.0,0.0,92,0.00,,,0.00,VWS V14.01,2013-03-03 10:37:00,
2013-03-03 05:38:00,27.6,25.4,29.70,NW,319,0.0,0.0,91,0.00,,---,0.00,VWS V14.01,2013-03-03 10:38:00,
2013-03-03 05:39:00,27.7,25.5,29.70,NW,319,0.0,0.0,91,0.00,,,0.00,VWS V14.01,2013-03-03 10:39:00,
2013-03-03 05:40:00,27.6,25.4,29.70,NW,319,0.0,0.0,91,0.00,,,0.00,VWS V14.01,2013-03-03 10:40:00,
2013-03-03 05:41:00,27.7,25.5,29.70,NW,319,0.0,0.0,91,0.00,,,0.00,VWS V14.01,2013-03-03 10:41:00,
2013-03-03 05:42:00,27.7,25.4,29.70,NW,319,0.0,0.0,91,0.00,,,0.00,VWS V14.01,2013-03-03 10:42:00,
2013-03-03 05:43:00,27.8,25.5,29.70,NW,319,0.0,0.0,91,0.00,,---,0.00,VWS V14.01,2013-03-03 10:43:00,
2013-03-03 05:44:00,27.7,25.4,29.70,NW,319,0.0,0.0,91,0.00,,,0.00,VWS V14.01,2013-03-03 10:44:00,
2013-03-03 05:45:00,27.8,25.5,29.70,NW,319,0.0,0.0,91,0.00,,,0.00,VWS V14.01,2013-03-03 10:45:00,
2013-03-03 05:46:00,27.8,25.5,29.70,NW,319,0.0,0.0,91,0.00,,,0.00,VWS V14.01,2013-03-03 10:46:00,
2013-03-03 05:47:00,27.7,25.4,29.70,NW,319,0.0,0.0,91,0.00,,,0.00,VWS V14.01,2013-03-03 10:47:00,
2013-03-03 05:48:00,27.6,25.1,29.70,North,357,5.1,5.7,90,0.00,,---,0.00,VWS V14.01,2013-03-03 10:48:00,
2013-03-03 05:49:00,27.9,25.5,29.70,NW,319,0.0,0.0,90,0.00,,,0.00,VWS V14.01,2013-03-03 10:49:00,
2013-03-03 05:50:00,27.6,25.1,29.70,North,357,5.1,5.7,90,0.00,,,0.00,VWS V14.01,2013-03-03 10:50:00,
2013-03-03 05:51:00,27.6,25.1,29.70,NNW,335,3.2,7.2,90,0.00,,,0.00,VWS V14.01,2013-03-03 10:51:00,
2013-03-03 05:52:00,27.6,25.1,29.70,NW,326,0.0,5.2,90,0.00,,,0.00,VWS V14.01,2013-03-03 10:52:00,
2013-03-03 05:53:00,27.5,25.1,29.70,NW,305,0.0,4.3,91,0.00,,---,0.00,VWS V14.01,2013-03-03 10:53:00,
2013-03-03 05:54:00,27.6,25.3,29.70,NW,326,0.0,0.0,91,0.00,,,0.00,VWS V14.01,2013-03-03 10:54:00,
2013-03-03 05:55:00,27.5,25.1,29.70,NW,305,0.0,4.3,91,0.00,,,0.00,VWS V14.01,2013-03-03 10:55:00,
2013-03-03 05:56:00,27.5,25.2,29.70,NW,305,0.0,0.0,91,0.00,,,0.00,VWS V14.01,2013-03-03 10:56:00,
2013-03-03 05:57:00,27.4,25.0,29.70,NNW,340,4.6,5.0,90,0.00,,,0.00,VWS V14.01,2013-03-03 10:57:00,
2013-03-03 05:58:00,27.3,24.9,29.70,North,350,0.0,0.0,90,0.00,,---,0.00,VWS V14.01,2013-03-03 10:58:00,
2013-03-03 05:59:00,27.5,25.1,29.70,North,350,0.0,0.0,91,0.00,,,0.00,VWS V14.01,2013-03-03 10:59:00,
2013-03-03 06:00:00,27.3,24.9,29.70,North,350,0.0,0.0,90,0.00,,,0.00,VWS V14.01,2013-03-03 11:00:00,
2013-03-03 06:01:00,27.5,25.1,29.70,WNW,300,0.0,4.7,91,0.00,,,0.00,VWS V14.01,2013-03-03 11:01:00,
2013-03-03 06:02:00,27.2,24.8,29.70,NW,316,7.8,7.8,91,0.00,,,0.00,VWS V14.01,2013-03-03 11:02:00,
2013-03-03 06:03:00,27.2,24.7,29.70,NW,323,3.4,7.0,90,0.00,,---,0.00,VWS V14.01,2013-03-03 11:03:00,
2013-03-03 06:04:00,27.2,24.7,29.69,NNW,335,5.3,6.0,90,0.00,,,0.00,VWS V14.01,2013-03-03 11:04:00,
2013-03-03 06:05:00,27.2,24.7,29.70,NW,323,3.4,7.0,90,0.00,,,0.00,VWS V14.01,2013-03-03 11:05:00,
2013-03-03 06:06:00,27.3,24.8,29.70,North,356,0.0,3.4,90,0.00,,,0.00,VWS V14.01,2013-03-03 11:06:00,
2013-03-03 06:07:00,27.2,24.8,29.70,North,356,0.0,0.0,90,0.00,,,0.00,VWS V14.01,2013-03-03 11:07:00,
2013-03-03 06:08:00,27.4,25.0,29.70,North,0,0.0,0.0,91,0.00,,---,0.00,VWS V14.01,2013-03-03 11:08:00,
2013-03-03 06:09:00,27.2,24.9,29.70,North,0,0.0,5.5,91,0.00,,,0.00,VWS V14.01,2013-03-03 11:09:00,
2013-03-03 06:10:00,27.4,25.0,29.70,North,0,0.0,0.0,91,0.00,,,0.00,VWS V14.01,2013-03-03 11:10:00,
2013-03-03 06:11:00,27.4,25.0,29.70,North,0,0.0,0.0,90,0.00,,,0.00,VWS V14.01,2013-03-03 11:11:00,
2013-03-03 06:12:00,27.5,25.1,29.70,North,0,0.0,0.0,90,0.00,,,0.00,VWS V14.01,2013-03-03 11:12:00,
2013-03-03 06:13:00,27.5,24.7,29.70,NW,325,0.0,2.7,89,0.00,,---,0.00,VWS V14.01,2013-03-03 11:13:00,
2013-03-03 06:14:00,27.3,24.4,29.70,NW,325,2.7,8.6,89,0.00,,,0.00,VWS V14.01,2013-03-03 11:14:00,
2013-03-03 06:15:00,27.5,24.7,29.70,NW,325,0.0,2.7,89,0.00,,,0.00,VWS V14.01,2013-03-03 11:15:00,
2013-03-03 06:16:00,27.4,24.6,29.70,NW,325,0.0,0.0,89,0.00,,,0.00,VWS V14.01,2013-03-03 11:16:00,
2013-03-03 06:17:00,27.2,24.7,29.70,NW,325,0.0,0.0,90,0.00,,,0.00,VWS V14.01,2013-03-03 11:17:00,
2013-03-03 06:18:00,27.3,24.3,29.70,North,359,0.0,0.0,88,0.00,,---,0.00,VWS V14.01,2013-03-03 11:18:00,
2013-03-03 06:19:00,27.2,24.5,29.70,North,359,0.0,3.4,89,0.00,,,0.00,VWS V14.01,2013-03-03 11:19:00,
2013-03-03 06:20:00,27.3,24.3,29.70,North,359,0.0,0.0,88,0.00,,,0.00,VWS V14.01,2013-03-03 11:20:00,
2013-03-03 06:21:00,27.2,24.1,29.70,NNW,328,7.0,7.0,88,0.00,,,0.00,VWS V14.01,2013-03-03 11:21:00,
2013-03-03 06:22:00,27.3,24.2,29.70,WNW,297,0.0,8.1,88,0.00,,,0.00,VWS V14.01,2013-03-03 11:22:00,
2013-03-03 06:23:00,27.3,24.5,29.70,WNW,297,0.0,0.0,89,0.00,,---,0.00,VWS V14.01,2013-03-03 11:23:00,
2013-03-03 06:24:00,27.3,24.4,29.70,WNW,297,0.0,0.0,89,0.00,,,0.00,VWS V14.01,2013-03-03 11:24:00,
2013-03-03 06:25:00,27.3,24.5,29.70,WNW,297,0.0,0.0,89,0.00,,,0.00,VWS V14.01,2013-03-03 11:25:00,
2013-03-03 06:26:00,27.3,24.4,29.70,WNW,297,0.0,0.0,89,0.00,,,0.00,VWS V14.01,2013-03-03 11:26:00,
2013-03-03 06:27:00,27.3,24.4,29.70,WNW,297,0.0,0.0,89,0.00,,,0.00,VWS V14.01,2013-03-03 11:27:00,
2013-03-03 06:28:00,27.3,24.0,29.71,WNW,297,0.0,0.0,87,0.00,,---,0.00,VWS V14.01,2013-03-03 11:28:00,
2013-03-03 06:29:00,27.6,24.3,29.71,WNW,297,0.0,0.0,87,0.00,,,0.00,VWS V14.01,2013-03-03 11:29:00,
2013-03-03 06:30:00,27.3,24.0,29.71,WNW,297,0.0,0.0,87,0.00,,,0.00,VWS V14.01,2013-03-03 11:30:00,
2013-03-03 06:31:00,27.3,23.9,29.70,WNW,297,0.0,0.0,87,0.00,,,0.00,VWS V14.01,2013-03-03 11:31:00,
2013-03-03 06:32:00,27.4,24.0,29.71,WNW,297,0.0,0.0,87,0.00,,,0.00,VWS V14.01,2013-03-03 11:32:00,
2013-03-03 06:33:00,27.3,24.0,29.71,WNW,297,3.2,3.2,87,0.00,,---,0.00,VWS V14.01,2013-03-03 11:33:00,
2013-03-03 06:34:00,27.3,23.9,29.71,WNW,297,0.0,0.0,87,0.00,,,0.00,VWS V14.01,2013-03-03 11:34:00,
2013-03-03 06:35:00,27.3,24.0,29.71,WNW,297,3.2,3.2,87,0.00,,,0.00,VWS V14.01,2013-03-03 11:35:00,
2013-03-03 06:36:00,27.2,23.6,29.71,WNW,283,3.2,6.0,86,0.00,,,0.00,VWS V14.01,2013-03-03 11:36:00,
2013-03-03 06:37:00,27.2,23.5,29.71,WNW,290,0.0,6.8,86,0.00,,,0.00,VWS V14.01,2013-03-03 11:37:00,
2013-03-03 06:38:00,27.0,23.3,29.71,North,350,5.3,8.3,86,0.00,,---,0.00,VWS V14.01,2013-03-03 11:38:00,
2013-03-03 06:39:00,27.2,23.5,29.71,NW,322,6.1,6.6,86,0.00,,,0.00,VWS V14.01,2013-03-03 11:39:00,
2013-03-03 06:40:00,27.0,23.3,29.71,North,350,5.3,8.3,86,0.00,,,0.00,VWS V14.01,2013-03-03 11:40:00,
2013-03-03 06:41:00,27.2,23.6,29.71,North,359,3.2,5.8,86,0.00,,,0.00,VWS V14.01,2013-03-03 11:41:00,
2013-03-03 06:42:00,27.1,23.4,29.71,NW,319,5.4,5.6,86,0.00,,,0.00,VWS V14.01,2013-03-03 11:42:00,
2013-03-03 06:43:00,27.0,23.3,29.70,NE,39,2.3,4.7,86,0.00,,---,0.00,VWS V14.01,2013-03-03 11:43:00,
2013-03-03 06:44:00,27.0,23.2,29.71,NW,304,0.0,6.9,85,0.00,,,0.00,VWS V14.01,2013-03-03 11:44:00,
2013-03-03 06:45:00,27.0,23.3,29.70,NE,39,2.3,4.7,86,0.00,,,0.00,VWS V14.01,2013-03-03 11:45:00,
2013-03-03 06:46:00,27.0,23.4,29.71,NE,39,0.0,2.3,86,0.00,,,0.00,VWS V14.01,2013-03-03 11:46:00,
2013-03-03 06:47:00,27.1,23.6,29.71,NE,39,0.0,0.0,86,0.00,,,0.00,VWS V14.01,2013-03-03 11:47:00,
2013-03-03 06:48:00,26.9,23.2,29.71,NE,39,0.0,0.0,86,0.00,,---,0.00,VWS V14.01,2013-03-03 11:48:00,
2013-03-03 06:49:00,27.0,23.3,29.71,NE,39,0.0,0.0,86,0.00,,,0.00,VWS V14.01,2013-03-03 11:49:00,
2013-03-03 06:50:00,26.9,23.2,29.71,NE,39,0.0,0.0,86,0.00,,,0.00,VWS V14.01,2013-03-03 11:50:00,
2013-03-03 06:51:00,27.0,23.2,29.71,NW,318,0.0,5.8,85,0.00,,,0.00,VWS V14.01,2013-03-03 11:51:00,
2013-03-03 06:52:00,27.0,23.4,29.71,North,10,6.7,6.7,86,0.00,,,0.00,VWS V14.01,2013-03-03 11:52:00,
2013-03-03 06:53:00,26.8,22.9,29.71,North,0,6.5,8.1,85,0.00,,---,0.00,VWS V14.01,2013-03-03 11:53:00,
2013-03-03 06:54:00,26.9,23.0,29.71,WNW,298,0.0,5.0,85,0.00,,,0.00,VWS V14.01,2013-03-03 11:54:00,
2013-03-03 06:55:00,26.8,22.9,29.71,North,0,6.5,8.1,85,0.00,,,0.00,VWS V14.01,2013-03-03 11:55:00,
2013-03-03 06:56:00,26.7,23.0,29.71,WNW,300,0.0,6.6,86,0.00,,,0.00,VWS V14.01,2013-03-03 11:56:00,
2013-03-03 06:57:00,26.9,23.1,29.71,NNW,330,5.2,7.6,85,0.00,,,0.00,VWS V14.01,2013-03-03 11:57:00,
2013-03-03 06:58:00,26.7,22.9,29.71,North,10,5.3,9.8,85,0.00,,---,0.00,VWS V14.01,2013-03-03 11:58:00,
2013-03-03 06:59:00,26.8,22.9,29.71,North,359,4.9,7.3,85,0.00,,,0.00,VWS V14.01,2013-03-03 11:59:00,
2013-03-03 07:00:00,26.7,22.9,29.71,North,10,5.3,9.8,85,0.00,,,0.00,VWS V14.01,2013-03-03 12:00:00,
2013-03-03 07:01:00,26.6,22.7,29.71,NNW,338,6.7,6.8,85,0.00,,,0.00,VWS V14.01,2013-03-03 12:01:00,
2013-03-03 07:02:00,26.7,22.8,29.71,North,359,3.4,6.7,85,0.00,,,0.00,VWS V14.01,2013-03-03 12:02:00,
2013-03-03 07:03:00,26.7,23.1,29.71,North,0,0.0,4.8,86,0.00,,---,0.00,VWS V14.01,2013-03-03 12:03:00,
2013-03-03 07:04:00,26.6,22.9,29.71,North,1,4.5,5.9,86,0.00,,,0.00,VWS V14.01,2013-03-03 12:04:00,
2013-03-03 07:05:00,26.7,23.1,29.71,North,0,0.0,4.8,86,0.00,,,0.00,VWS V14.01,2013-03-03 12:05:00,
2013-03-03 07:06:00,26.6,23.0,29.71,NW,326,2.4,3.4,86,0.00,,,0.00,VWS V14.01,2013-03-03 12:06:00,
2013-03-03 07:07:00,26.7,23.2,29.71,North,3,3.2,4.4,87,0.00,,,0.00,VWS V14.01,2013-03-03 12:07:00,
2013-03-03 07:08:00,26.9,23.6,29.71,NNE,27,0.0,3.2,87,0.00,,---,0.00,VWS V14.01,2013-03-03 12:08:00,
2013-03-03 07:09:00,26.9,23.5,29.71,NNE,27,0.0,0.0,87,0.00,,,0.00,VWS V14.01,2013-03-03 12:09:00,
2013-03-03 07:10:00,26.9,23.6,29.71,NNE,27,0.0,3.2,87,0.00,,,0.00,VWS V14.01,2013-03-03 12:10:00,
2013-03-03 07:11:00,27.0,23.5,29.71,NNE,27,0.0,0.0,86,0.00,,,0.00,VWS V14.01,2013-03-03 12:11:00,
2013-03-03 07:12:00,27.1,23.6,29.71,NNE,27,1.5,1.5,86,0.00,,,0.00,VWS V14.01,2013-03-03 12:12:00,
2013-03-03 07:13:00,27.1,23.2,29.71,West,270,2.5,5.3,85,0.00,,---,0.00,VWS V14.01,2013-03-03 12:13:00,
2013-03-03 07:14:00,27.1,23.2,29.71,NNE,14,5.3,7.0,85,0.00,,,0.00,VWS V14.01,2013-03-03 12:14:00,
2013-03-03 07:15:00,27.1,23.2,29.71,West,270,2.5,5.3,85,0.00,,,0.00,VWS V14.01,2013-03-03 12:15:00,
2013-03-03 07:16:00,27.2,23.3,29.71,NNW,333,8.0,9.2,85,0.00,,,0.00,VWS V14.01,2013-03-03 12:16:00,
2013-03-03 07:17:00,27.0,22.9,29.71,NNW,345,2.1,8.0,84,0.00,,,0.00,VWS V14.01,2013-03-03 12:17:00,
2013-03-03 07:18:00,26.9,22.9,29.71,WNW,295,9.9,10.8,85,0.00,,---,0.00,VWS V14.01,2013-03-03 12:18:00,
2013-03-03 07:19:00,27.0,23.0,29.71,NW,322,6.6,8.8,84,0.00,,,0.00,VWS V14.01,2013-03-03 12:19:00,
2013-03-03 07:20:00,26.9,22.9,29.71,WNW,295,9.9,10.8,85,0.00,,,0.00,VWS V14.01,2013-03-03 12:20:00,
2013-03-03 07:21:00,26.9,23.0,29.71,NNW,346,7.1,9.9,85,0.00,,,0.00,VWS V14.01,2013-03-03 12:21:00,
2013-03-03 07:22:00,27.0,23.0,29.71,WNW,302,6.3,7.1,85,0.00,,,0.00,VWS V14.01,2013-03-03 12:22:00,
2013-03-03 07:23:00,27.1,23.2,29.71,NNW,328,6.0,6.0,85,0.00,,---,0.00,VWS V14.01,2013-03-03 12:23:00,
2013-03-03 07:24:00,27.0,23.1,29.71,WNW,302,0.0,0.0,85,0.00,,,0.00,VWS V14.01,2013-03-03 12:24:00,
2013-03-03 07:25:00,27.1,23.2,29.71,NNW,328,6.0,6.0,85,0.00,,,0.00,VWS V14.01,2013-03-03 12:25:00,
2013-03-03 07:26:00,27.0,23.1,29.71,WNW,298,0.0,7.4,85,0.00,,,0.00,VWS V14.01,2013-03-03 12:26:00,
2013-03-03 07:27:00,27.2,23.2,29.71,NNW,330,3.3,5.1,85,0.00,,,0.00,VWS V14.01,2013-03-03 12:27:00,
2013-03-03 07:28:00,27.2,23.3,29.71,NNW,333,3.4,5.2,85,0.00,,---,0.00,VWS V14.01,2013-03-03 12:28:00,
2013-03-03 07:29:00,27.1,23.0,29.71,North,359,0.0,4.2,84,0.00,,,0.00,VWS V14.01,2013-03-03 12:29:00,
2013-03-03 07:30:00,27.2,23.3,29.71,NNW,333,3.4,5.2,85,0.00,,,0.00,VWS V14.01,2013-03-03 12:30:00,
2013-03-03 07:31:00,27.3,23.2,29.71,North,6,4.9,5.6,84,0.00,,,0.00,VWS V14.01,2013-03-03 12:31:00,
2013-03-03 07:32:00,27.2,23.1,29.71,West,280,5.8,7.1,84,0.00,,,0.00,VWS V14.01,2013-03-03 12:32:00,
2013-03-03 07:33:00,27.2,22.9,29.71,NNW,336,0.0,0.0,84,0.00,,---,0.00,VWS V14.01,2013-03-03 12:33:00,
2013-03-03 07:34:00,27.2,23.1,29.71,NNW,336,0.0,5.7,84,0.00,,,0.00,VWS V14.01,2013-03-03 12:34:00,
2013-03-03 07:35:00,27.2,22.9,29.71,NNW,336,0.0,0.0,84,0.00,,,0.00,VWS V14.01,2013-03-03 12:35:00,
2013-03-03 07:36:00,27.3,23.0,29.71,WNW,284,0.0,5.2,84,0.00,,,0.00,VWS V14.01,2013-03-03 12:36:00,
2013-03-03 07:37:00,27.2,22.7,29.71,North,349,6.3,9.1,83,0.00,,,0.00,VWS V14.01,2013-03-03 12:37:00,
2013-03-03 07:38:00,27.3,23.1,29.71,NNE,22,0.0,3.1,84,0.00,,---,0.00,VWS V14.01,2013-03-03 12:38:00,
2013-03-03 07:39:00,27.2,22.8,29.71,North,359,3.1,8.1,83,0.00,,,0.00,VWS V14.01,2013-03-03 12:39:00,
2013-03-03 07:40:00,27.3,23.1,29.71,NNE,22,0.0,3.1,84,0.00,,,0.00,VWS V14.01,2013-03-03 12:40:00,
2013-03-03 07:41:00,27.4,23.4,29.71,NNE,22,0.0,0.0,85,0.00,,,0.00,VWS V14.01,2013-03-03 12:41:00,
2013-03-03 07:42:00,27.3,23.1,29.71,NNE,22,0.0,0.0,84,0.00,,,0.00,VWS V14.01,2013-03-03 12:42:00,
2013-03-03 07:43:00,27.4,23.1,29.71,WNW,295,0.0,4.2,84,0.00,,---,0.00,VWS V14.01,2013-03-03 12:43:00,
2013-03-03 07:44:00,27.4,22.9,29.71,North,353,3.4,10.3,83,0.00,,,0.00,VWS V14.01,2013-03-03 12:44:00,
2013-03-03 07:45:00,27.4,23.1,29.71,WNW,295,0.0,4.2,84,0.00,,,0.00,VWS V14.01,2013-03-03 12:45:00,
2013-03-03 07:46:00,27.5,22.8,29.71,WNW,285,4.4,9.9,82,0.00,,,0.00,VWS V14.01,2013-03-03 12:46:00,
2013-03-03 07:47:00,27.3,22.7,29.71,ENE,63,2.7,6.8,82,0.00,,,0.00,VWS V14.01,2013-03-03 12:47:00,
2013-03-03 07:48:00,27.4,22.7,29.71,North,359,0.0,7.8,82,0.00,,---,0.00,VWS V14.01,2013-03-03 12:48:00,
2013-03-03 07:49:00,27.3,22.5,29.71,NNE,14,5.3,8.4,82,0.00,,,0.00,VWS V14.01,2013-03-03 12:49:00,
2013-03-03 07:50:00,27.4,22.7,29.71,North,359,0.0,7.8,82,0.00,,,0.00,VWS V14.01,2013-03-03 12:50:00,
2013-03-03 07:51:00,27.3,22.9,29.71,NNE,14,5.2,5.2,83,0.00,,,0.00,VWS V14.01,2013-03-03 12:51:00,
2013-03-03 07:52:00,27.3,22.7,29.71,NE,53,0.0,5.2,82,0.00,,,0.00,VWS V14.01,2013-03-03 12:52:00,
2013-03-03 07:53:00,27.4,22.8,29.71,NE,37,0.0,5.7,82,0.00,,---,0.00,VWS V14.01,2013-03-03 12:53:00,
2013-03-03 07:54:00,27.3,22.5,29.71,NNE,14,5.5,9.7,82,0.00,,,0.00,VWS V14.01,2013-03-03 12:54:00,
2013-03-03 07:55:00,27.4,22.8,29.71,NE,37,0.0,5.7,82,0.00,,,0.00,VWS V14.01,2013-03-03 12:55:00,
2013-03-03 07:56:00,27.4,23.0,29.71,NW,311,3.2,3.2,83,0.00,,,0.00,VWS V14.01,2013-03-03 12:56:00,
2013-03-03 07:57:00,27.5,22.9,29.71,NNW,338,4.8,6.0,82,0.00,,,0.00,VWS V14.01,2013-03-03 12:57:00,
2013-03-03 07:58:00,27.7,23.2,29.71,NNE,17,0.0,0.0,83,0.00,,---,0.00,VWS V14.01,2013-03-03 12:58:00,
2013-03-03 07:59:00,27.6,23.0,29.71,NNE,17,0.0,4.7,82,0.00,,,0.00,VWS V14.01,2013-03-03 12:59:00,
2013-03-03 08:00:00,27.7,23.2,29.71,NNE,17,0.0,0.0,83,0.00,,,0.00,VWS V14.01,2013-03-03 13:00:00,
2013-03-03 08:01:00,27.6,23.0,29.71,NNE,17,0.0,2.8,83,0.00,,,0.00,VWS V14.01,2013-03-03 13:01:00,
2013-03-03 08:02:00,27.8,23.1,29.71,North,3,6.0,6.1,82,0.00,,,0.00,VWS V14.01,2013-03-03 13:02:00,
2013-03-03 08:03:00,27.6,22.9,29.71,North,353,0.0,4.7,82,0.00,,---,0.00,VWS V14.01,2013-03-03 13:03:00,
2013-03-03 08:04:00,27.6,22.7,29.71,NE,34,4.5,9.2,81,0.00,,,0.00,VWS V14.01,2013-03-03 13:04:00,
2013-03-03 08:05:00,27.6,22.9,29.71,North,353,0.0,4.7,82,0.00,,,0.00,VWS V14.01,2013-03-03 13:05:00,
2013-03-03 08:06:00,27.9,23.1,29.71,NW,308,2.4,5.8,82,0.00,,,0.00,VWS V14.01,2013-03-03 13:06:00,
2013-03-03 08:07:00,27.8,22.8,29.71,NW,308,0.0,8.0,81,0.00,,,0.00,VWS V14.01,2013-03-03 13:07:00,
2013-03-03 08:08:00,28.0,23.0,29.71,NW,314,4.5,10.1,81,0.00,,---,0.00,VWS V14.01,2013-03-03 13:08:00,
2013-03-03 08:09:00,27.9,22.8,29.71,WNW,292,6.4,10.0,81,0.00,,,0.00,VWS V14.01,2013-03-03 13:09:00,
2013-03-03 08:10:00,28.0,23.0,29.71,NW,314,4.5,10.1,81,0.00,,,0.00,VWS V14.01,2013-03-03 13:10:00,
2013-03-03 08:11:00,27.9,22.7,29.71,NW,323,5.4,11.1,80,0.00,,,0.00,VWS V14.01,2013-03-03 13:11:00,
2013-03-03 08:12:00,28.0,22.4,29.71,NW,315,6.2,10.4,79,0.00,,,0.00,VWS V14.01,2013-03-03 13:12:00,
2013-03-03 08:13:00,28.0,22.6,29.71,WSW,240,0.0,0.0,80,0.00,,---,0.00,VWS V14.01,2013-03-03 13:13:00,
2013-03-03 08:14:00,28.1,22.9,29.71,WSW,240,0.0,7.5,81,0.00,,,0.00,VWS V14.01,2013-03-03 13:14:00,
2013-03-03 08:15:00,28.0,22.6,29.71,WSW,240,0.0,0.0,80,0.00,,,0.00,VWS V14.01,2013-03-03 13:15:00,
2013-03-03 08:16:00,28.4,22.8,29.71,NNW,333,0.0,5.7,79,0.00,,,0.00,VWS V14.01,2013-03-03 13:16:00,
2013-03-03 08:17:00,28.3,23.0,29.71,NW,316,4.3,5.4,80,0.00,,,0.00,VWS V14.01,2013-03-03 13:17:00,
2013-03-03 08:18:00,28.2,22.9,29.71,North,8,7.3,8.6,80,0.00,,---,0.00,VWS V14.01,2013-03-03 13:18:00,
2013-03-03 08:19:00,28.1,22.3,29.71,NE,42,3.4,7.5,79,0.00,,,0.00,VWS V14.01,2013-03-03 13:19:00,
2013-03-03 08:20:00,28.3,22.9,29.71,NNW,339,7.9,7.9,80,0.00,,,0.00,VWS V14.01,2013-03-03 13:20:00,
2013-03-03 08:21:00,28.2,22.8,29.71,NW,321,6.7,8.6,80,0.00,,,0.00,VWS V14.01,2013-03-03 13:21:00,
2013-03-03 08:22:00,28.2,22.1,29.71,NNW,342,0.0,8.2,78,0.00,,,0.00,VWS V14.01,2013-03-03 13:22:00,
2013-03-03 08:23:00,28.0,22.0,29.71,North,6,0.0,7.3,78,0.00,,---,0.00,VWS V14.01,2013-03-03 13:23:00,
2013-03-03 08:24:00,28.1,21.7,29.71,North,359,7.3,9.9,76,0.00,,,0.00,VWS V14.01,2013-03-03 13:24:00,
2013-03-03 08:25:00,28.1,21.9,29.71,NNW,347,7.3,9.9,77,0.00,,,0.00,VWS V14.01,2013-03-03 13:25:00,
2013-03-03 08:26:00,28.3,22.1,29.71,North,6,0.0,7.3,77,0.00,,,0.00,VWS V14.01,2013-03-03 13:26:00,
2013-03-03 08:27:00,28.2,22.0,29.70,NW,319,0.0,7.2,77,0.00,,,0.00,VWS V14.01,2013-03-03 13:27:00,
2013-03-03 08:28:00,28.5,22.2,29.70,North,359,0.0,6.4,77,0.00,,---,0.00,VWS V14.01,2013-03-03 13:28:00,
2013-03-03 08:29:00,28.4,22.3,29.71,North,354,0.0,5.7,78,0.00,,,0.00,VWS V14.01,2013-03-03 13:29:00,
2013-03-03 08:30:00,28.6,22.4,29.70,North,352,6.4,10.3,77,0.00,,,0.00,VWS V14.01,2013-03-03 13:30:00,
2013-03-03 08:31:00,28.6,22.1,29.70,North,359,0.0,6.4,76,0.00,,,0.00,VWS V14.01,2013-03-03 13:31:00,
2013-03-03 08:32:00,28.6,22.0,29.70,North,359,0.0,0.0,76,0.00,,,0.00,VWS V14.01,2013-03-03 13:32:00,
2013-03-03 08:33:00,28.6,21.8,29.71,NNW,328,8.6,12.1,75,0.00,,---,0.00,VWS V14.01,2013-03-03 13:33:00,
2013-03-03 08:34:00,28.4,20.9,29.71,North,1,0.0,9.5,73,0.00,,,0.00,VWS V14.01,2013-03-03 13:34:00,
2013-03-03 08:35:00,28.6,21.5,29.70,NNW,347,6.5,9.3,74,0.00,,,0.00,VWS V14.01,2013-03-03 13:35:00,
2013-03-03 08:36:00,28.2,20.7,29.71,NNW,333,6.3,12.1,73,0.00,,,0.00,VWS V14.01,2013-03-03 13:36:00,
2013-03-03 08:37:00,28.2,20.7,29.70,North,1,5.8,12.0,73,0.00,,,0.00,VWS V14.01,2013-03-03 13:37:00,
2013-03-03 08:38:00,28.0,20.6,29.71,NW,322,8.8,10.2,73,0.00,,,0.00,VWS V14.01,2013-03-03 13:38:00,
2013-03-03 08:39:00,27.8,20.5,29.70,NNW,329,9.1,9.6,74,0.00,,---,0.00,VWS V14.01,2013-03-03 13:39:00,
2013-03-03 08:40:00,27.8,20.7,29.70,NW,318,9.6,10.4,74,0.00,,,0.00,VWS V14.01,2013-03-03 13:40:00,
2013-03-03 08:41:00,27.7,20.4,29.70,WNW,290,4.2,13.5,74,0.00,,,0.00,VWS V14.01,2013-03-03 13:41:00,
2013-03-03 08:42:00,27.9,20.6,29.70,NW,323,4.6,9.3,74,0.00,,,0.00,VWS V14.01,2013-03-03 13:42:00,
2013-03-03 08:43:00,27.9,20.8,29.70,North,7,7.5,9.6,74,0.00,,,0.00,VWS V14.01,2013-03-03 13:43:00,
2013-03-03 08:44:00,27.8,20.4,29.70,WNW,298,12.1,12.1,73,0.00,,---,0.00,VWS V14.01,2013-03-03 13:44:00,
2013-03-03 08:45:00,27.7,20.4,29.70,NW,316,3.2,9.7,74,0.00,,,0.00,VWS V14.01,2013-03-03 13:45:00,
2013-03-03 08:46:00,27.7,20.2,29.70,NW,312,12.0,12.7,73,0.00,,,0.00,VWS V14.01,2013-03-03 13:46:00,
2013-03-03 08:47:00,27.7,20.1,29.70,North,3,7.2,13.9,73,0.00,,,0.00,VWS V14.01,2013-03-03 13:47:00,
2013-03-03 08:48:00,27.4,19.7,29.70,NNW,329,9.9,13.0,72,0.00,,,0.00,VWS V14.01,2013-03-03 13:48:00,
2013-03-03 08:49:00,27.3,19.7,29.70,NNW,330,4.8,10.6,73,0.00,,---,0.00,VWS V14.01,2013-03-03 13:49:00,
2013-03-03 08:50:00,27.4,19.9,29.70,North,350,6.0,10.8,73,0.00,,,0.00,VWS V14.01,2013-03-03 13:50:00,
2013-03-03 08:51:00,27.3,19.7,29.70,NNW,330,0.0,10.6,73,0.00,,,0.00,VWS V14.01,2013-03-03 13:51:00,
2013-03-03 08:52:00,27.5,20.2,29.70,NW,307,1.2,8.8,74,0.00,,,0.00,VWS V14.01,2013-03-03 13:52:00,
2013-03-03 08:53:00,27.4,19.5,29.70,North,359,4.8,14.0,72,0.00,,,0.00,VWS V14.01,2013-03-03 13:53:00,
2013-03-03 08:54:00,27.6,19.7,29.70,NW,314,5.0,10.5,72,0.00,,---,0.00,VWS V14.01,2013-03-03 13:54:00,
2013-03-03 08:55:00,27.6,20.1,29.70,WNW,300,0.0,8.5,73,0.00,,,0.00,VWS V14.01,2013-03-03 13:55:00,
2013-03-03 08:56:00,27.6,19.7,29.70,NW,314,3.4,10.5,72,0.00,,,0.00,VWS V14.01,2013-03-03 13:56:00,
2013-03-03 08:57:00,27.7,20.0,29.70,NNW,336,7.3,8.8,72,0.00,,,0.00,VWS V14.01,2013-03-03 13:57:00,
2013-03-03 08:58:00,27.8,20.2,29.70,NW,326,0.0,8.1,73,0.00,,,0.00,VWS V14.01,2013-03-03 13:58:00,
2013-03-03 08:59:00,27.9,19.7,29.70,North,359,6.6,7.6,71,0.00,,---,0.00,VWS V14.01,2013-03-03 13:59:00,
2013-03-03 09:00:00,28.0,20.2,29.70,North,8,6.2,14.7,72,0.00,,,0.00,VWS V14.01,2013-03-03 14:00:00,
2013-03-03 09:01:00,27.9,19.7,29.70,North,359,6.6,7.6,71,0.00,,,0.00,VWS V14.01,2013-03-03 14:01:00,
2013-03-03 09:02:00,27.9,19.6,29.70,North,1,7.5,12.2,71,0.00,,,0.00,VWS V14.01,2013-03-03 14:02:00,
2013-03-03 09:03:00,27.9,19.4,29.70,NNW,328,11.4,14.2,70,0.00,,,0.00,VWS V14.01,2013-03-03 14:03:00,
2013-03-03 09:04:00,28.0,19.5,29.70,WSW,250,4.2,13.0,70,0.00,,---,0.00,VWS V14.01,2013-03-03 14:04:00,
2013-03-03 09:05:00,28.1,20.1,29.70,NW,316,10.4,12.8,72,0.00,,,0.00,VWS V14.01,2013-03-03 14:05:00,
2013-03-03 09:06:00,28.0,19.5,29.70,WSW,250,4.2,13.0,70,0.00,,,0.00,VWS V14.01,2013-03-03 14:06:00,
2013-03-03 09:07:00,27.8,19.3,29.70,North,359,6.0,11.4,70,0.00,,,0.00,VWS V14.01,2013-03-03 14:07:00,
2013-03-03 09:08:00,27.9,19.5,29.70,WSW,243,5.5,12.1,70,0.00,,,0.00,VWS V14.01,2013-03-03 14:08:00,
2013-03-03 09:09:00,28.1,19.8,29.70,North,359,3.4,11.3,70,0.00,,---,0.00,VWS V14.01,2013-03-03 14:09:00,
2013-03-03 09:10:00,28.1,19.9,29.70,West,281,0.0,6.6,71,0.00,,,0.00,VWS V14.01,2013-03-03 14:10:00,
2013-03-03 09:11:00,28.1,19.8,29.70,North,359,3.4,11.3,70,0.00,,,0.00,VWS V14.01,2013-03-03 14:11:00,
2013-03-03 09:12:00,28.1,19.6,29.70,North,357,11.9,12.1,70,0.00,,,0.00,VWS V14.01,2013-03-03 14:12:00,
2013-03-03 09:13:00,28.3,20.0,29.70,West,277,0.0,11.9,70,0.00,,,0.00,VWS V14.01,2013-03-03 14:13:00,
2013-03-03 09:14:00,28.4,19.9,29.69,NW,322,3.4,10.2,70,0.00,,---,0.00,VWS V14.01,2013-03-03 14:14:00,
2013-03-03 09:15:00,28.2,19.5,29.70,North,7,7.3,11.7,70,0.00,,,0.00,VWS V14.01,2013-03-03 14:15:00,
2013-03-03 09:16:00,28.4,19.9,29.69,NW,322,3.4,10.2,70,0.00,,,0.00,VWS V14.01,2013-03-03 14:16:00,
2013-03-03 09:17:00,28.6,19.8,29.70,NW,326,9.6,10.0,69,0.00,,,0.00,VWS V14.01,2013-03-03 14:17:00,
2013-03-03 09:18:00,28.6,20.0,29.69,NW,325,9.1,10.7,70,0.00,,,0.00,VWS V14.01,2013-03-03 14:18:00,
2013-03-03 09:19:00,29.0,20.4,29.69,NW,304,0.0,5.7,70,0.00,,---,0.00,VWS V14.01,2013-03-03 14:19:00,
2013-03-03 09:20:00,29.0,20.4,29.69,West,270,3.0,9.7,70,0.00,,,0.00,VWS V14.01,2013-03-03 14:20:00,
2013-03-03 09:21:00,29.0,20.4,29.69,NW,304,0.0,5.7,70,0.00,,,0.00,VWS V14.01,2013-03-03 14:21:00,
2013-03-03 09:22:00,29.4,20.9,29.69,WNW,287,0.0,6.7,70,0.00,,,0.00,VWS V14.01,2013-03-03 14:22:00,
2013-03-03 09:23:00,29.4,20.2,29.69,NW,309,5.8,10.2,68,0.00,,,0.00,VWS V14.01,2013-03-03 14:23:00,
2013-03-03 09:24:00,29.3,19.7,29.69,North,1,6.8,13.1,67,0.00,,---,0.00,VWS V14.01,2013-03-03 14:24:00,
2013-03-03 09:25:00,29.4,20.4,29.69,NNW,347,9.8,10.0,69,0.00,,,0.00,VWS V14.01,2013-03-03 14:25:00,
2013-03-03 09:26:00,29.3,19.7,29.69,North,1,6.8,13.1,67,0.00,,,0.00,VWS V14.01,2013-03-03 14:26:00,
2013-03-03 09:27:00,29.3,19.9,29.69,North,7,0.0,9.2,68,0.00,,,0.00,VWS V14.01,2013-03-03 14:27:00,
2013-03-03 09:28:00,29.6,20.5,29.69,NW,318,4.5,10.4,68,0.00,,,0.00,VWS V14.01,2013-03-03 14:28:00,
2013-03-03 09:29:00,29.3,19.7,29.69,North,357,8.3,10.6,67,0.00,,---,0.00,VWS V14.01,2013-03-03 14:29:00,
2013-03-03 09:30:00,29.7,20.4,29.69,NW,319,0.0,7.1,68,0.00,,,0.00,VWS V14.01,2013-03-03 14:30:00,
2013-03-03 09:31:00,29.3,19.7,29.69,North,357,8.3,10.6,67,0.00,,,0.00,VWS V14.01,2013-03-03 14:31:00,
2013-03-03 09:32:00,29.0,19.6,29.70,North,359,7.8,14.8,68,0.00,,,0.00,VWS V14.01,2013-03-03 14:32:00,
2013-03-03 09:33:00,29.2,20.1,29.70,NNW,335,4.7,9.4,68,0.00,,,0.00,VWS V14.01,2013-03-03 14:33:00,
2013-03-03 09:34:00,28.9,20.1,29.70,NNW,340,8.2,9.9,69,0.00,,---,0.00,VWS V14.01,2013-03-03 14:34:00,
2013-03-03 09:35:00,28.9,20.1,29.70,NW,315,2.9,7.8,69,0.00,,,0.00,VWS V14.01,2013-03-03 14:35:00,
2013-03-03 09:36:00,28.9,20.1,29.70,NNW,340,8.2,9.9,69,0.00,,,0.00,VWS V14.01,2013-03-03 14:36:00,
2013-03-03 09:37:00,29.0,19.8,29.70,North,354,5.8,12.2,68,0.00,,,0.00,VWS V14.01,2013-03-03 14:37:00,
2013-03-03 09:38:00,28.9,20.0,29.70,NW,305,3.3,8.0,69,0.00,,,0.00,VWS V14.01,2013-03-03 14:38:00,
2013-03-03 09:39:00,29.3,20.3,29.70,NNW,333,4.5,6.3,69,0.00,,---,0.00,VWS V14.01,2013-03-03 14:39:00,
2013-03-03 09:40:00,29.1,20.3,29.70,NNE,20,4.5,9.5,69,0.00,,,0.00,VWS V14.01,2013-03-03 14:40:00,
2013-03-03 09:41:00,29.3,20.3,29.70,NNW,333,4.5,6.3,69,0.00,,,0.00,VWS V14.01,2013-03-03 14:41:00,
2013-03-03 09:42:00,29.1,20.2,29.70,NNW,333,0.0,4.5,69,0.00,,,0.00,VWS V14.01,2013-03-03 14:42:00,
2013-03-03 09:43:00,29.0,19.9,29.70,NNW,329,7.8,8.8,68,0.00,,,0.00,VWS V14.01,2013-03-03 14:43:00,
2013-03-03 09:44:00,28.7,19.8,29.69,North,349,5.0,8.8,69,0.00,,---,0.00,VWS V14.01,2013-03-03 14:44:00,
2013-03-03 09:45:00,28.6,19.4,29.70,NW,305,8.5,12.4,68,0.00,,,0.00,VWS V14.01,2013-03-03 14:45:00,
2013-03-03 09:46:00,28.7,19.8,29.69,North,349,5.0,8.8,69,0.00,,,0.00,VWS V14.01,2013-03-03 14:46:00,
2013-03-03 09:47:00,28.8,20.0,29.70,NNW,330,5.1,6.6,69,0.00,,,0.00,VWS V14.01,2013-03-03 14:47:00,
2013-03-03 09:48:00,28.6,19.7,29.69,NNW,347,8.3,15.7,69,0.00,,,0.00,VWS V14.01,2013-03-03 14:48:00,
2013-03-03 09:49:00,28.2,19.8,29.70,NNW,328,9.1,9.1,70,0.00,,---,0.00,VWS V14.01,2013-03-03 14:49:00,
2013-03-03 09:50:00,28.1,19.7,29.69,NNW,340,5.5,11.5,70,0.00,,,0.00,VWS V14.01,2013-03-03 14:50:00,
2013-03-03 09:51:00,28.2,19.8,29.70,NNW,328,9.1,9.1,70,0.00,,,0.00,VWS V14.01,2013-03-03 14:51:00,
2013-03-03 09:52:00,28.2,19.7,29.69,North,352,5.0,11.2,70,0.00,,,0.00,VWS V14.01,2013-03-03 14:52:00,
2013-03-03 09:53:00,28.3,20.0,29.69,North,0,7.6,9.9,71,0.00,,,0.00,VWS V14.01,2013-03-03 14:53:00,
2013-03-03 09:54:00,28.5,20.1,29.69,NW,307,0.0,10.3,70,0.00,,---,0.00,VWS V14.01,2013-03-03 14:54:00,
2013-03-03 09:55:00,28.3,19.8,29.69,NNW,332,8.9,9.8,70,0.00,,,0.00,VWS V14.01,2013-03-03 14:55:00,
2013-03-03 09:56:00,28.5,20.1,29.69,NW,307,0.0,10.3,70,0.00,,,0.00,VWS V14.01,2013-03-03 14:56:00,
2013-03-03 09:57:00,28.3,20.2,29.69,NW,307,0.0,0.0,71,0.00,,,0.00,VWS V14.01,2013-03-03 14:57:00,
2013-03-03 09:58:00,28.7,20.5,29.69,North,8,5.0,10.3,71,0.00,,,0.00,VWS V14.01,2013-03-03 14:58:00,
2013-03-03 09:59:00,28.5,19.9,29.69,NNE,14,0.0,4.7,70,0.00,,---,0.00,VWS V14.01,2013-03-03 14:59:00,
2013-03-03 10:00:00,28.4,19.8,29.69,NNE,17,3.5,10.5,70,0.00,,,0.00,VWS V14.01,2013-03-03 15:00:00,
2013-03-03 10:01:00,28.5,19.9,29.69,NNE,14,0.0,4.7,70,0.00,,,0.00,VWS V14.01,2013-03-03 15:01:00,
2013-03-03 10:02:00,28.6,20.3,29.69,NNW,335,0.0,4.2,71,0.00,,,0.00,VWS V14.01,2013-03-03 15:02:00,
2013-03-03 10:03:00,28.7,20.2,29.69,WNW,298,6.3,8.0,70,0.00,,,0.00,VWS V14.01,2013-03-03 15:03:00,
2013-03-03 10:04:00,29.0,20.4,29.69,NW,314,7.1,8.3,70,0.00,,---,0.00,VWS V14.01,2013-03-03 15:04:00,
2013-03-03 10:05:00,29.0,20.3,29.69,West,264,2.1,8.8,70,0.00,,,0.00,VWS V14.01,2013-03-03 15:05:00,
2013-03-03 10:06:00,29.0,20.4,29.69,NW,314,7.1,8.3,70,0.00,,,0.00,VWS V14.01,2013-03-03 15:06:00,
2013-03-03 10:07:00,29.1,20.0,29.69,West,263,5.4,8.1,68,0.00,,,0.00,VWS V14.01,2013-03-03 15:07:00,
2013-03-03 10:08:00,29.4,20.6,29.69,WNW,284,5.0,8.7,69,0.00,,,0.00,VWS V14.01,2013-03-03 15:08:00,
2013-03-03 10:09:00,29.6,20.6,29.69,WNW,285,0.0,7.1,69,0.00,,---,0.00,VWS V14.01,2013-03-03 15:09:00,
2013-03-03 10:10:00,29.5,20.6,29.69,NW,325,6.5,7.3,69,0.00,,,0.00,VWS V14.01,2013-03-03 15:10:00,
2013-03-03 10:11:00,29.6,20.6,29.69,WNW,285,0.0,7.1,69,0.00,,,0.00,VWS V14.01,2013-03-03 15:11:00,
2013-03-03 10:12:00,29.7,20.4,29.69,NW,316,3.4,6.5,68,0.00,,,0.00,VWS V14.01,2013-03-03 15:12:00,
2013-03-03 10:13:00,29.8,20.7,29.69,North,356,5.8,8.0,68,0.00,,,0.00,VWS V14.01,2013-03-03 15:13:00,
2013-03-03 10:14:00,30.3,21.0,29.69,NNW,345,6.5,7.0,68,0.00,,---,0.00,VWS V14.01,2013-03-03 15:14:00,
2013-03-03 10:15:00,30.2,21.3,29.69,NNW,333,0.0,5.5,69,0.00,,,0.00,VWS V14.01,2013-03-03 15:15:00,
2013-03-03 10:16:00,30.3,21.0,29.69,NNW,345,6.5,7.0,68,0.00,,,0.00,VWS V14.01,2013-03-03 15:16:00,
2013-03-03 10:17:00,30.3,20.5,29.69,NNW,340,0.0,7.1,67,0.00,,,0.00,VWS V14.01,2013-03-03 15:17:00,
2013-03-03 10:18:00,30.5,21.2,29.69,NNW,340,0.0,0.0,68,0.00,,,0.00,VWS V14.01,2013-03-03 15:18:00,
2013-03-03 10:19:00,30.7,21.2,29.69,NW,322,0.0,7.6,67,0.00,,---,0.00,VWS V14.01,2013-03-03 15:19:00,
2013-03-03 10:20:00,30.5,21.5,29.69,NNW,330,4.8,9.3,69,0.00,,,0.00,VWS V14.01,2013-03-03 15:20:00,
2013-03-03 10:21:00,30.7,21.2,29.69,NW,322,0.0,7.6,67,0.00,,,0.00,VWS V14.01,2013-03-03 15:21:00,
2013-03-03 10:22:00,30.7,20.9,29.69,NW,325,0.0,8.0,66,0.00,,,0.00,VWS V14.01,2013-03-03 15:22:00,
2013-03-03 10:23:00,30.8,20.9,29.69,NNW,338,7.8,10.1,66,0.00,,,0.00,VWS V14.01,2013-03-03 15:23:00,
2013-03-03 10:24:00,30.2,20.1,29.69,North,359,4.6,10.6,66,0.00,,---,0.00,VWS V14.01,2013-03-03 15:24:00,
2013-03-03 10:25:00,30.7,20.6,29.69,NNW,338,9.3,11.9,66,0.00,,,0.00,VWS V14.01,2013-03-03 15:25:00,
2013-03-03 10:26:00,30.2,20.1,29.69,North,359,4.6,10.6,66,0.00,,,0.00,VWS V14.01,2013-03-03 15:26:00,
2013-03-03 10:27:00,30.5,20.6,29.68,NNW,332,8.2,11.3,66,0.00,,,0.00,VWS V14.01,2013-03-03 15:27:00,
2013-03-03 10:28:00,30.3,20.6,29.68,NW,316,7.3,9.0,67,0.00,,,0.00,VWS V14.01,2013-03-03 15:28:00,
2013-03-03 10:29:00,30.4,20.3,29.69,WNW,292,7.3,10.4,66,0.00,,---,0.00,VWS V14.01,2013-03-03 15:29:00,
2013-03-03 10:30:00,30.5,20.6,29.69,NW,325,8.4,9.4,66,0.00,,,0.00,VWS V14.01,2013-03-03 15:30:00,
2013-03-03 10:31:00,30.4,20.3,29.69,WNW,292,7.3,10.4,66,0.00,,,0.00,VWS V14.01,2013-03-03 15:31:00,
2013-03-03 10:32:00,30.2,20.3,29.69,NW,308,6.5,9.6,66,0.00,,,0.00,VWS V14.01,2013-03-03 15:32:00,
2013-03-03 10:33:00,30.4,20.8,29.69,WNW,285,0.0,8.0,67,0.00,,,0.00,VWS V14.01,2013-03-03 15:33:00,
2013-03-03 10:34:00,30.2,20.5,29.69,NW,312,4.5,10.0,67,0.00,,---,0.00,VWS V14.01,2013-03-03 15:34:00,
2013-03-03 10:35:00,30.4,20.7,29.69,WNW,295,6.4,13.0,67,0.00,,,0.00,VWS V14.01,2013-03-03 15:35:00,
2013-03-03 10:36:00,30.2,20.5,29.69,NW,312,4.5,10.0,67,0.00,,,0.00,VWS V14.01,2013-03-03 15:36:00,
2013-03-03 10:37:00,30.3,20.6,29.69,NNW,339,4.8,7.8,67,0.00,,,0.00,VWS V14.01,2013-03-03 15:37:00,
2013-03-03 10:38:00,30.3,20.4,29.69,NW,307,7.8,10.6,66,0.00,,,0.00,VWS V14.01,2013-03-03 15:38:00,
2013-03-03 10:39:00,30.6,21.3,29.69,North,11,5.8,14.4,68,0.00,,---,0.00,VWS V14.01,2013-03-03 15:39:00,
2013-03-03 10:40:00,30.3,20.6,29.69,NNE,18,11.2,11.9,67,0.00,,,0.00,VWS V14.01,2013-03-03 15:40:00,
2013-03-03 10:41:00,30.6,21.3,29.69,North,11,5.8,14.4,68,0.00,,,0.00,VWS V14.01,2013-03-03 15:41:00,
2013-03-03 10:42:00,30.6,20.9,29.68,NNW,338,6.2,10.9,67,0.00,,,0.00,VWS V14.01,2013-03-03 15:42:00,
2013-03-03 10:43:00,30.6,21.5,29.69,NNW,330,0.0,6.2,68,0.00,,,0.00,VWS V14.01,2013-03-03 15:43:00,
2013-03-03 10:44:00,30.7,21.0,29.69,North,1,8.8,10.3,67,0.00,,---,0.00,VWS V14.01,2013-03-03 15:44:00,
2013-03-03 10:45:00,30.7,20.6,29.69,West,281,0.0,8.8,66,0.00,,,0.00,VWS V14.01,2013-03-03 15:45:00,
2013-03-03 10:46:00,30.7,20.8,29.69,WNW,297,0.0,7.6,66,0.00,,,0.00,VWS V14.01,2013-03-03 15:46:00,
2013-03-03 10:47:00,30.6,20.5,29.69,NNW,340,9.8,10.3,66,0.00,,,0.00,VWS V14.01,2013-03-03 15:47:00,
2013-03-03 10:48:00,30.5,20.3,29.69,NW,322,0.0,10.7,65,0.00,,,0.00,VWS V14.01,2013-03-03 15:48:00,
2013-03-03 10:49:00,30.3,20.3,29.69,NW,325,6.2,12.4,66,0.00,,---,0.00,VWS V14.01,2013-03-03 15:49:00,
2013-03-03 10:50:00,30.6,20.8,29.69,North,357,14.7,14.7,66,0.00,,,0.00,VWS V14.01,2013-03-03 15:50:00,
2013-03-03 10:51:00,30.3,20.2,29.69,NW,326,6.9,14.7,66,0.00,,,0.00,VWS V14.01,2013-03-03 15:51:00,
2013-03-03 10:52:00,30.5,20.6,29.69,NW,316,0.0,12.4,66,0.00,,,0.00,VWS V14.01,2013-03-03 15:52:00,
2013-03-03 10:53:00,30.5,21.0,29.69,NW,316,0.0,0.0,67,0.00,,,0.00,VWS V14.01,2013-03-03 15:53:00,
2013-03-03 10:54:00,30.5,20.3,29.69,NW,319,8.5,11.5,66,0.00,,---,0.00,VWS V14.01,2013-03-03 15:54:00,
2013-03-03 10:55:00,30.7,20.5,29.68,NNW,333,8.3,10.3,65,0.00,,,0.00,VWS V14.01,2013-03-03 15:55:00,
2013-03-03 10:56:00,30.8,20.5,29.68,North,359,10.6,13.0,65,0.00,,,0.00,VWS V14.01,2013-03-03 15:56:00,
2013-03-03 10:57:00,30.7,20.6,29.68,NW,316,10.0,13.0,66,0.00,,,0.00,VWS V14.01,2013-03-03 15:57:00,
2013-03-03 10:58:00,30.7,20.6,29.68,WNW,285,5.5,10.0,66,0.00,,,0.00,VWS V14.01,2013-03-03 15:58:00,
2013-03-03 10:59:00,30.7,20.3,29.69,North,3,10.8,12.9,65,0.00,,---,0.00,VWS V14.01,2013-03-03 15:59:00,
2013-03-03 11:00:00,30.8,20.9,29.68,NW,311,0.0,3.3,66,0.00,,,0.00,VWS V14.01,2013-03-03 16:00:00,
2013-03-03 11:01:00,30.9,20.8,29.68,North,357,7.9,7.9,66,0.00,,,0.00,VWS V14.01,2013-03-03 16:01:00,
2013-03-03 11:02:00,30.6,20.0,29.68,North,352,8.9,13.3,64,0.00,,,0.00,VWS V14.01,2013-03-03 16:02:00,
2013-03-03 11:03:00,30.5,20.4,29.68,NNE,17,8.0,10.8,66,0.00,,,0.00,VWS V14.01,2013-03-03 16:03:00,
2013-03-03 11:04:00,30.6,20.5,29.68,NW,322,4.9,9.0,66,0.00,,,0.00,VWS V14.01,2013-03-03 16:04:00,
2013-03-03 11:05:00,30.9,21.0,29.68,North,7,6.0,7.1,66,0.00,,---,0.00,VWS V14.01,2013-03-03 16:05:00,
2013-03-03 11:06:00,31.0,21.3,29.68,NW,318,6.3,7.3,67,0.00,,,0.00,VWS V14.01,2013-03-03 16:06:00,
2013-03-03 11:07:00,31.0,20.6,29.68,NNE,22,0.0,7.8,65,0.00,,,0.00,VWS V14.01,2013-03-03 16:07:00,
2013-03-03 11:08:00,31.2,20.8,29.68,North,353,4.7,7.6,65,0.00,,,0.00,VWS V14.01,2013-03-03 16:08:00,
2013-03-03 11:09:00,31.4,21.2,29.68,NW,323,0.0,4.7,66,0.00,,,0.00,VWS V14.01,2013-03-03 16:09:00,
2013-03-03 11:10:00,31.5,20.7,29.68,SW,232,0.0,6.9,64,0.00,,---,0.00,VWS V14.01,2013-03-03 16:10:00,
2013-03-03 11:11:00,31.5,20.7,29.68,NNE,24,5.1,8.0,64,0.00,,,0.00,VWS V14.01,2013-03-03 16:11:00,
2013-03-03 11:12:00,31.5,20.8,29.68,NW,322,7.0,7.0,64,0.00,,,0.00,VWS V14.01,2013-03-03 16:12:00,
2013-03-03 11:13:00,31.6,21.5,29.68,North,359,8.7,8.7,66,0.00,,,0.00,VWS V14.01,2013-03-03 16:13:00,
2013-03-03 11:14:00,31.6,20.8,29.68,North,359,5.6,9.3,64,0.00,,,0.00,VWS V14.01,2013-03-03 16:14:00,
2013-03-03 11:15:00,31.8,21.8,29.69,North,1,0.0,0.0,66,0.00,,---,0.00,VWS V14.01,2013-03-03 16:15:00,
2013-03-03 11:16:00,31.5,21.1,29.68,North,1,0.0,7.0,65,0.00,,,0.00,VWS V14.01,2013-03-03 16:16:00,
2013-03-03 11:17:00,31.6,21.1,29.68,NNE,24,6.1,6.1,65,0.00,,,0.00,VWS V14.01,2013-03-03 16:17:00,
2013-03-03 11:18:00,31.7,21.3,29.68,NE,41,5.3,13.9,65,0.00,,,0.00,VWS V14.01,2013-03-03 16:18:00,
2013-03-03 11:19:00,32.0,21.4,29.68,North,11,0.0,6.3,65,0.00,,,0.00,VWS V14.01,2013-03-03 16:19:00,
2013-03-03 11:20:00,31.9,21.4,29.69,West,259,0.0,8.8,65,0.00,,---,0.00,VWS V14.01,2013-03-03 16:20:00,
2013-03-03 11:21:00,31.9,21.5,29.68,NNW,329,8.8,9.6,65,0.00,,,0.00,VWS V14.01,2013-03-03 16:21:00,
2013-03-03 11:22:00,31.9,21.2,29.68,West,259,0.0,8.8,64,0.00,,,0.00,VWS V14.01,2013-03-03 16:22:00,
2013-03-03 11:23:00,31.7,20.7,29.68,North,359,0.0,8.0,63,0.00,,,0.00,VWS V14.01,2013-03-03 16:23:00,
2013-03-03 11:24:00,31.5,20.5,29.68,WNW,288,5.5,9.9,63,0.00,,,0.00,VWS V14.01,2013-03-03 16:24:00,
2013-03-03 11:25:00,31.7,21.1,29.69,NNE,30,6.2,6.8,64,0.00,,---,0.00,VWS V14.01,2013-03-03 16:25:00,
2013-03-03 11:26:00,31.6,21.1,29.68,NNE,22,0.0,6.2,65,0.00,,,0.00,VWS V14.01,2013-03-03 16:26:00,
2013-03-03 11:27:00,31.6,21.1,29.69,NNW,345,0.0,6.8,65,0.00,,,0.00,VWS V14.01,2013-03-03 16:27:00,
2013-03-03 11:28:00,31.5,20.5,29.68,NNE,22,5.0,10.6,63,0.00,,,0.00,VWS V14.01,2013-03-03 16:28:00,
2013-03-03 11:29:00,31.6,20.8,29.69,NNW,330,7.5,9.1,64,0.00,,,0.00,VWS V14.01,2013-03-03 16:29:00,
2013-03-03 11:30:00,31.9,21.6,29.69,NNE,24,0.0,0.0,65,0.00,,---,0.00,VWS V14.01,2013-03-03 16:30:00,
2013-03-03 11:31:00,31.8,21.5,29.68,NNE,24,0.0,3.4,65,0.00,,,0.00,VWS V14.01,2013-03-03 16:31:00,
2013-03-03 11:32:00,32.0,21.7,29.68,NNE,24,0.0,0.0,65,0.00,,,0.00,VWS V14.01,2013-03-03 16:32:00,
2013-03-03 11:33:00,32.1,21.5,29.68,NW,325,4.2,4.6,64,0.00,,,0.00,VWS V14.01,2013-03-03 16:33:00,
2013-03-03 11:34:00,32.3,21.4,29.68,NW,325,0.0,4.2,64,0.00,,,0.00,VWS V14.01,2013-03-03 16:34:00,
2013-03-03 11:35:00,32.4,20.7,29.69,NW,322,6.9,8.4,62,0.00,,---,0.00,VWS V14.01,2013-03-03 16:35:00,
2013-03-03 11:36:00,32.6,21.5,29.68,North,359,0.0,0.0,63,0.00,,,0.00,VWS V14.01,2013-03-03 16:36:00,
2013-03-03 11:37:00,32.4,20.8,29.68,North,6,6.2,9.3,62,0.00,,,0.00,VWS V14.01,2013-03-03 16:37:00,
2013-03-03 11:38:00,32.4,21.2,29.68,NNE,20,6.4,6.8,63,0.00,,,0.00,VWS V14.01,2013-03-03 16:38:00,
2013-03-03 11:39:00,32.2,21.0,29.68,NNE,24,5.7,7.2,63,0.00,,,0.00,VWS V14.01,2013-03-03 16:39:00,
2013-03-03 11:40:00,32.2,21.3,29.68,NNE,14,0.0,3.5,64,0.00,,---,0.00,VWS V14.01,2013-03-03 16:40:00,
2013-03-03 11:41:00,32.1,20.9,29.68,NNE,14,3.5,5.6,63,0.00,,,0.00,VWS V14.01,2013-03-03 16:41:00,
2013-03-03 11:42:00,32.1,21.2,29.68,NNE,14,0.0,3.5,64,0.00,,,0.00,VWS V14.01,2013-03-03 16:42:00,
2013-03-03 11:43:00,32.2,21.2,29.68,NNE,15,0.0,6.9,63,0.00,,,0.00,VWS V14.01,2013-03-03 16:43:00,
2013-03-03 11:44:00,32.3,21.2,29.68,NW,322,3.5,5.9,63,0.00,,,0.00,VWS V14.01,2013-03-03 16:44:00,
2013-03-03 11:45:00,32.4,21.2,29.68,NNW,330,0.0,0.0,63,0.00,,---,0.00,VWS V14.01,2013-03-03 16:45:00,
2013-03-03 11:46:00,32.4,21.0,29.68,NNW,330,0.0,0.0,62,0.00,,,0.00,VWS V14.01,2013-03-03 16:46:00,
2013-03-03 11:47:00,32.5,21.4,29.68,NNE,18,6.6,6.9,63,0.00,,,0.00,VWS V14.01,2013-03-03 16:47:00,
2013-03-03 11:48:00,32.3,21.0,29.68,North,3,2.9,9.9,63,0.00,,,0.00,VWS V14.01,2013-03-03 16:48:00,
2013-03-03 11:49:00,32.4,21.3,29.68,NNW,346,0.0,4.9,63,0.00,,,0.00,VWS V14.01,2013-03-03 16:49:00,
2013-03-03 11:50:00,31.7,20.2,29.68,North,352,10.4,11.9,62,0.00,,---,0.00,VWS V14.01,2013-03-03 16:50:00,
2013-03-03 11:51:00,32.0,20.9,29.68,North,359,8.0,12.8,63,0.00,,,0.00,VWS V14.01,2013-03-03 16:51:00,
2013-03-03 11:52:00,31.6,20.0,29.68,NNW,339,8.0,11.9,62,0.00,,,0.00,VWS V14.01,2013-03-03 16:52:00,
2013-03-03 11:53:00,31.4,20.4,29.68,North,6,12.4,13.4,63,0.00,,,0.00,VWS V14.01,2013-03-03 16:53:00,
2013-03-03 11:54:00,31.5,20.5,29.68,NNW,335,9.9,12.7,63,0.00,,,0.00,VWS V14.01,2013-03-03 16:54:00,
2013-03-03 11:55:00,31.7,20.7,29.68,NNW,332,0.0,6.6,63,0.00,,---,0.00,VWS V14.01,2013-03-03 16:55:00,
2013-03-03 11:56:00,31.6,20.6,29.68,NW,323,6.2,12.7,63,0.00,,,0.00,VWS V14.01,2013-03-03 16:56:00,
2013-03-03 11:57:00,31.6,20.8,29.68,NNW,332,0.0,6.6,64,0.00,,,0.00,VWS V14.01,2013-03-03 16:57:00,
2013-03-03 11:58:00,31.9,21.3,29.68,WNW,287,0.0,7.0,65,0.00,,,0.00,VWS V14.01,2013-03-03 16:58:00,
2013-03-03 11:59:00,32.1,21.5,29.68,WNW,287,0.0,0.0,64,0.00,,,0.00,VWS V14.01,2013-03-03 16:59:00,
2013-03-03 12:00:00,32.1,20.8,29.68,WNW,292,0.0,12.0,63,0.00,,---,0.00,VWS V14.01,2013-03-03 17:00:00,
2013-03-03 12:01:00,32.2,21.0,29.68,NNE,22,6.3,9.6,63,0.00,,,0.00,VWS V14.01,2013-03-03 17:01:00,
2013-03-03 12:02:00,32.2,20.9,29.68,WNW,292,0.0,12.0,63,0.00,,,0.00,VWS V14.01,2013-03-03 17:02:00,
2013-03-03 12:03:00,31.8,20.6,29.68,NW,325,7.8,11.2,63,0.00,,,0.00,VWS V14.01,2013-03-03 17:03:00,
2013-03-03 12:04:00,31.8,20.5,29.68,NNW,335,8.7,9.9,63,0.00,,,0.00,VWS V14.01,2013-03-03 17:04:00,
2013-03-03 12:05:00,31.9,20.7,29.68,NE,45,5.9,10.8,63,0.00,,---,0.00,VWS V14.01,2013-03-03 17:05:00,
2013-03-03 12:06:00,32.0,20.9,29.68,NNW,338,8.5,9.5,63,0.00,,,0.00,VWS V14.01,2013-03-03 17:06:00,
2013-03-03 12:07:00,31.9,20.7,29.68,North,8,7.7,10.8,63,0.00,,,0.00,VWS V14.01,2013-03-03 17:07:00,
2013-03-03 12:08:00,32.0,21.1,29.68,North,11,4.4,7.7,64,0.00,,,0.00,VWS V14.01,2013-03-03 17:08:00,
2013-03-03 12:09:00,32.1,21.5,29.68,North,10,7.6,7.6,64,0.00,,,0.00,VWS V14.01,2013-03-03 17:09:00,
2013-03-03 12:10:00,32.4,21.1,29.68,NNW,330,5.1,9.3,63,0.00,,---,0.00,VWS V14.01,2013-03-03 17:10:00,
2013-03-03 12:11:00,32.4,21.0,29.68,NNW,328,6.5,8.7,62,0.00,,,0.00,VWS V14.01,2013-03-03 17:11:00,
2013-03-03 12:12:00,32.5,21.2,29.68,NNW,330,0.0,9.3,63,0.00,,,0.00,VWS V14.01,2013-03-03 17:12:00,
2013-03-03 12:13:00,32.4,21.0,29.67,NNW,338,6.6,10.2,62,0.00,,,0.00,VWS V14.01,2013-03-03 17:13:00,
2013-03-03 12:14:00,32.4,20.8,29.68,NW,325,0.0,7.9,62,0.00,,,0.00,VWS V14.01,2013-03-03 17:14:00,
2013-03-03 12:15:00,32.8,21.5,29.67,NNE,18,0.0,0.0,63,0.00,,---,0.00,VWS V14.01,2013-03-03 17:15:00,
2013-03-03 12:16:00,32.7,21.5,29.67,NNE,18,0.0,9.1,63,0.00,,,0.00,VWS V14.01,2013-03-03 17:16:00,
2013-03-03 12:17:00,32.8,21.5,29.67,NNE,18,0.0,0.0,63,0.00,,,0.00,VWS V14.01,2013-03-03 17:17:00,
2013-03-03 12:18:00,33.0,22.1,29.67,NW,312,0.0,7.7,64,0.00,,,0.00,VWS V14.01,2013-03-03 17:18:00,
2013-03-03 12:19:00,33.1,21.5,29.67,NW,312,0.0,0.0,62,0.00,,,0.00,VWS V14.01,2013-03-03 17:19:00,
2013-03-03 12:20:00,33.8,22.7,29.67,NE,48,0.0,0.0,63,0.00,,---,0.00,VWS V14.01,2013-03-03 17:20:00,
2013-03-03 12:21:00,33.6,22.2,29.67,NE,48,0.0,5.7,62,0.00,,,0.00,VWS V14.01,2013-03-03 17:21:00,
2013-03-03 12:22:00,33.8,22.7,29.67,NE,48,0.0,0.0,63,0.00,,,0.00,VWS V14.01,2013-03-03 17:22:00,
2013-03-03 12:23:00,34.1,22.5,29.67,NW,309,4.2,5.9,62,0.00,,,0.00,VWS V14.01,2013-03-03 17:23:00,
2013-03-03 12:24:00,34.1,21.5,29.67,WNW,291,5.1,6.1,60,0.00,,,0.00,VWS V14.01,2013-03-03 17:24:00,
2013-03-03 12:25:00,34.4,21.8,29.67,North,4,0.0,0.0,60,0.00,,---,0.00,VWS V14.01,2013-03-03 17:25:00,
2013-03-03 12:26:00,34.4,22.0,29.67,North,4,0.0,6.6,60,0.00,,,0.00,VWS V14.01,2013-03-03 17:26:00,
2013-03-03 12:27:00,34.4,21.8,29.67,North,4,0.0,0.0,60,0.00,,,0.00,VWS V14.01,2013-03-03 17:27:00,
2013-03-03 12:28:00,34.6,21.9,29.67,North,4,0.0,0.0,59,0.00,,,0.00,VWS V14.01,2013-03-03 17:28:00,
2013-03-03 12:29:00,34.7,22.2,29.67,NW,308,2.8,6.7,60,0.00,,,0.00,VWS V14.01,2013-03-03 17:29:00,
2013-03-03 12:30:00,33.4,20.5,29.67,NNE,13,5.2,6.2,59,0.00,,---,0.00,VWS V14.01,2013-03-03 17:30:00,
2013-03-03 12:31:00,34.0,20.9,29.67,NW,314,10.7,12.4,58,0.00,,,0.00,VWS V14.01,2013-03-03 17:31:00,
2013-03-03 12:32:00,33.5,20.6,29.67,NNE,24,6.2,11.2,59,0.00,,,0.00,VWS V14.01,2013-03-03 17:32:00,
2013-03-03 12:33:00,33.4,21.1,29.67,NNE,31,7.1,11.1,60,0.00,,,0.00,VWS V14.01,2013-03-03 17:33:00,
2013-03-03 12:34:00,33.3,21.2,29.67,NNW,330,8.5,11.6,61,0.00,,,0.00,VWS V14.01,2013-03-03 17:34:00,
2013-03-03 12:35:00,33.7,21.8,29.66,NNW,338,0.0,0.0,61,0.00,,---,0.00,VWS V14.01,2013-03-03 17:35:00,
2013-03-03 12:36:00,33.6,21.6,29.67,NNW,338,0.0,5.2,61,0.00,,,0.00,VWS V14.01,2013-03-03 17:36:00,
2013-03-03 12:37:00,33.7,21.8,29.67,NNW,338,0.0,0.0,61,0.00,,,0.00,VWS V14.01,2013-03-03 17:37:00,
2013-03-03 12:38:00,33.7,21.7,29.67,NNW,335,0.0,4.3,61,0.00,,,0.00,VWS V14.01,2013-03-03 17:38:00,
2013-03-03 12:39:00,33.8,21.3,29.67,NNW,335,0.0,9.9,60,0.00,,,0.00,VWS V14.01,2013-03-03 17:39:00,
2013-03-03 12:40:00,34.1,21.6,29.66,WNW,291,0.0,6.3,60,0.00,,---,0.00,VWS V14.01,2013-03-03 17:40:00,
2013-03-03 12:41:00,34.0,22.0,29.66,North,6,0.0,4.2,61,0.00,,,0.00,VWS V14.01,2013-03-03 17:41:00,
2013-03-03 12:42:00,34.1,21.6,29.66,WNW,291,0.0,6.3,60,0.00,,,0.00,VWS V14.01,2013-03-03 17:42:00,
2013-03-03 12:43:00,34.3,21.9,29.66,WNW,291,0.0,2.1,60,0.00,,,0.00,VWS V14.01,2013-03-03 17:43:00,
2013-03-03 12:44:00,34.6,22.4,29.66,WNW,291,0.0,0.0,60,0.00,,,0.00,VWS V14.01,2013-03-03 17:44:00,
2013-03-03 12:45:00,34.7,22.2,29.66,NNE,14,0.0,6.2,60,0.00,,---,0.00,VWS V14.01,2013-03-03 17:45:00,
2013-03-03 12:46:00,34.7,21.4,29.66,North,349,6.2,8.1,58,0.00,,,0.00,VWS V14.01,2013-03-03 17:46:00,
2013-03-03 12:47:00,34.7,22.2,29.66,NNE,14,0.0,6.2,60,0.00,,,0.00,VWS V14.01,2013-03-03 17:47:00,
2013-03-03 12:48:00,34.6,21.6,29.66,NNW,338,6.2,9.9,59,0.00,,,0.00,VWS V14.01,2013-03-03 17:48:00,
2013-03-03 12:49:00,34.6,21.7,29.66,NW,307,3.5,6.2,59,0.00,,,0.00,VWS V14.01,2013-03-03 17:49:00,
2013-03-03 12:50:00,35.0,22.0,29.66,West,281,0.0,10.2,59,0.00,,---,0.00,VWS V14.01,2013-03-03 17:50:00,
2013-03-03 12:51:00,34.9,22.1,29.66,NW,307,0.0,0.0,59,0.00,,,0.00,VWS V14.01,2013-03-03 17:51:00,
2013-03-03 12:52:00,35.0,22.0,29.66,West,281,0.0,10.2,59,0.00,,,0.00,VWS V14.01,2013-03-03 17:52:00,
2013-03-03 12:53:00,35.0,21.7,29.66,NNW,332,6.5,6.5,58,0.00,,,0.00,VWS V14.01,2013-03-03 17:53:00,
2013-03-03 12:54:00,34.9,21.6,29.66,WNW,292,0.0,8.0,58,0.00,,,0.00,VWS V14.01,2013-03-03 17:54:00,
2013-03-03 12:55:00,34.6,21.3,29.66,NW,318,0.0,9.8,58,0.00,,---,0.00,VWS V14.01,2013-03-03 17:55:00,
2013-03-03 12:56:00,34.6,21.3,29.66,NNE,32,3.4,12.1,58,0.00,,,0.00,VWS V14.01,2013-03-03 17:56:00,
2013-03-03 12:57:00,34.6,21.3,29.66,NW,318,0.0,9.8,58,0.00,,,0.00,VWS V14.01,2013-03-03 17:57:00,
2013-03-03 12:58:00,34.6,21.5,29.66,NW,304,0.0,6.2,58,0.00,,,0.00,VWS V14.01,2013-03-03 17:58:00,
2013-03-03 12:59:00,34.6,21.3,29.66,NNE,21,0.0,6.2,58,0.00,,,0.00,VWS V14.01,2013-03-03 17:59:00,
2013-03-03 13:00:00,34.8,21.5,29.66,West,260,0.0,4.3,58,0.00,,---,0.00,VWS V14.01,2013-03-03 18:00:00,
2013-03-03 13:01:00,34.7,21.7,29.66,West,260,0.0,0.0,59,0.00,,,0.00,VWS V14.01,2013-03-03 18:01:00,
2013-03-03 13:02:00,34.8,21.5,29.66,West,260,0.0,4.3,58,0.00,,,0.00,VWS V14.01,2013-03-03 18:02:00,
2013-03-03 13:03:00,34.8,21.6,29.66,North,3,5.2,10.0,58,0.00,,,0.00,VWS V14.01,2013-03-03 18:03:00,
2013-03-03 13:04:00,34.9,21.7,29.66,WNW,297,4.3,8.2,58,0.00,,,0.00,VWS V14.01,2013-03-03 18:04:00,
2013-03-03 13:05:00,34.8,21.0,29.65,NW,323,11.7,11.7,57,0.00,,---,0.00,VWS V14.01,2013-03-03 18:05:00,
2013-03-03 13:06:00,35.0,21.7,29.65,NW,322,7.0,8.9,58,0.00,,,0.00,VWS V14.01,2013-03-03 18:06:00,
2013-03-03 13:07:00,34.9,21.2,29.65,NW,325,6.6,9.2,57,0.00,,,0.00,VWS V14.01,2013-03-03 18:07:00,
2013-03-03 13:08:00,34.9,21.2,29.65,West,267,6.2,11.7,57,0.00,,,0.00,VWS V14.01,2013-03-03 18:08:00,
2013-03-03 13:09:00,35.0,22.0,29.65,NNW,336,0.0,6.2,59,0.00,,,0.00,VWS V14.01,2013-03-03 18:09:00,
2013-03-03 13:10:00,35.4,22.4,29.65,NNE,27,0.0,0.0,59,0.00,,---,0.00,VWS V14.01,2013-03-03 18:10:00,
2013-03-03 13:11:00,35.2,21.3,29.65,NNE,14,5.2,8.0,56,0.00,,,0.00,VWS V14.01,2013-03-03 18:11:00,
2013-03-03 13:12:00,35.3,21.9,29.65,NNE,27,0.0,5.5,58,0.00,,,0.00,VWS V14.01,2013-03-03 18:12:00,
2013-03-03 13:13:00,35.5,22.4,29.65,NNE,27,0.0,0.0,58,0.00,,,0.00,VWS V14.01,2013-03-03 18:13:00,
2013-03-03 13:14:00,35.7,21.9,29.65,West,273,0.0,9.7,57,0.00,,,0.00,VWS V14.01,2013-03-03 18:14:00,
2013-03-03 13:15:00,36.1,22.3,29.65,NNW,338,0.0,0.0,57,0.00,,---,0.00,VWS V14.01,2013-03-03 18:15:00,
2013-03-03 13:16:00,35.9,21.5,29.65,NNW,338,0.0,6.3,55,0.00,,,0.00,VWS V14.01,2013-03-03 18:16:00,
2013-03-03 13:17:00,36.0,22.2,29.65,NNW,338,0.0,0.0,57,0.00,,,0.00,VWS V14.01,2013-03-03 18:17:00,
2013-03-03 13:18:00,36.2,22.5,29.65,NNW,338,0.0,0.0,57,0.00,,,0.00,VWS V14.01,2013-03-03 18:18:00,
2013-03-03 13:19:00,36.5,22.6,29.65,WNW,283,5.0,6.3,57,0.00,,,0.00,VWS V14.01,2013-03-03 18:19:00,
2013-03-03 13:20:00,36.9,22.4,29.65,NW,318,3.2,3.2,55,0.00,,---,0.00,VWS V14.01,2013-03-03 18:20:00,
2013-03-03 13:21:00,36.7,22.7,29.65,WNW,301,0.0,0.0,56,0.00,,,0.00,VWS V14.01,2013-03-03 18:21:00,
2013-03-03 13:22:00,36.9,22.8,29.65,NNW,333,0.0,4.8,56,0.00,,,0.00,VWS V14.01,2013-03-03 18:22:00,
2013-03-03 13:23:00,36.9,22.6,29.65,NW,307,0.0,4.3,56,0.00,,,0.00,VWS V14.01,2013-03-03 18:23:00,
2013-03-03 13:24:00,37.0,21.6,29.65,WNW,294,8.7,9.7,53,0.00,,,0.00,VWS V14.01,2013-03-03 18:24:00,
2013-03-03 13:25:00,36.6,21.7,29.65,NNW,338,5.8,7.0,54,0.00,,---,0.00,VWS V14.01,2013-03-03 18:25:00,
2013-03-03 13:26:00,36.6,21.5,29.65,West,278,2.4,8.9,54,0.00,,,0.00,VWS V14.01,2013-03-03 18:26:00,
2013-03-03 13:27:00,36.6,21.6,29.65,NW,314,5.6,6.4,54,0.00,,,0.00,VWS V14.01,2013-03-03 18:27:00,
2013-03-03 13:28:00,36.5,21.9,29.65,SW,215,0.0,9.9,55,0.00,,,0.00,VWS V14.01,2013-03-03 18:28:00,
2013-03-03 13:29:00,36.5,21.4,29.65,NW,316,5.7,8.9,54,0.00,,,0.00,VWS V14.01,2013-03-03 18:29:00,
2013-03-03 13:30:00,37.0,22.4,29.64,NW,312,4.7,9.2,55,0.00,,---,0.00,VWS V14.01,2013-03-03 18:30:00,
2013-03-03 13:31:00,36.8,22.1,29.64,WNW,301,0.0,3.4,55,0.00,,,0.00,VWS V14.01,2013-03-03 18:31:00,
2013-03-03 13:32:00,37.0,22.3,29.64,WNW,301,0.0,0.0,55,0.00,,,0.00,VWS V14.01,2013-03-03 18:32:00,
2013-03-03 13:33:00,37.1,22.4,29.64,North,359,5.6,9.2,55,0.00,,,0.00,VWS V14.01,2013-03-03 18:33:00,
2013-03-03 13:34:00,37.2,22.3,29.64,WNW,287,5.7,7.0,54,0.00,,,0.00,VWS V14.01,2013-03-03 18:34:00,
2013-03-03 13:35:00,37.6,22.6,29.64,NNW,345,6.9,8.5,54,0.00,,---,0.00,VWS V14.01,2013-03-03 18:35:00,
2013-03-03 13:36:00,37.6,22.6,29.64,NW,308,8.0,9.3,54,0.00,,,0.00,VWS V14.01,2013-03-03 18:36:00,
2013-03-03 13:37:00,37.6,22.7,29.64,NNW,329,5.7,9.3,55,0.00,,,0.00,VWS V14.01,2013-03-03 18:37:00,
2013-03-03 13:38:00,37.6,22.6,29.64,NW,322,8.5,8.5,54,0.00,,,0.00,VWS V14.01,2013-03-03 18:38:00,
2013-03-03 13:39:00,37.6,22.9,29.65,NW,308,6.3,10.7,55,0.00,,,0.00,VWS V14.01,2013-03-03 18:39:00,
2013-03-03 13:40:00,37.3,24.0,29.65,NNE,24,5.3,7.4,58,0.00,,---,0.00,VWS V14.01,2013-03-03 18:40:00,
2013-03-03 13:41:00,37.3,23.1,29.65,NNW,340,6.3,6.6,56,0.00,,,0.00,VWS V14.01,2013-03-03 18:41:00,
2013-03-03 13:42:00,37.2,23.5,29.65,NNW,338,6.3,7.8,57,0.00,,,0.00,VWS V14.01,2013-03-03 18:42:00,
2013-03-03 13:43:00,37.3,23.7,29.65,North,0,0.0,7.8,58,0.00,,,0.00,VWS V14.01,2013-03-03 18:43:00,
2013-03-03 13:44:00,37.1,23.9,29.65,NNE,20,4.8,8.0,58,0.00,,,0.00,VWS V14.01,2013-03-03 18:44:00,
2013-03-03 13:45:00,36.8,24.1,29.65,NW,319,0.0,9.1,60,0.00,,---,0.00,VWS V14.01,2013-03-03 18:45:00,
2013-03-03 13:46:00,37.0,24.1,29.65,NNW,338,0.0,8.5,59,0.00,,,0.00,VWS V14.01,2013-03-03 18:46:00,
2013-03-03 13:47:00,36.9,24.4,29.65,North,1,9.1,9.5,60,0.00,,,0.00,VWS V14.01,2013-03-03 18:47:00,
2013-03-03 13:48:00,36.7,24.3,29.65,NW,323,13.6,13.6,60,0.00,,,0.00,VWS V14.01,2013-03-03 18:48:00,
2013-03-03 13:49:00,36.3,24.3,29.65,NNW,347,10.6,21.8,61,0.00,,,0.00,VWS V14.01,2013-03-03 18:49:00,
2013-03-03 13:50:00,36.2,25.3,29.65,NNE,14,5.2,6.6,64,0.00,,---,0.00,VWS V14.01,2013-03-03 18:50:00,
2013-03-03 13:51:00,36.2,25.1,29.65,NNW,330,4.2,7.2,64,0.00,,,0.00,VWS V14.01,2013-03-03 18:51:00,
2013-03-03 13:52:00,36.2,25.2,29.65,North,359,0.0,7.6,64,0.00,,,0.00,VWS V14.01,2013-03-03 18:52:00,
2013-03-03 13:53:00,36.0,25.6,29.65,NW,308,7.6,10.7,66,0.00,,,0.00,VWS V14.01,2013-03-03 18:53:00,
2013-03-03 13:54:00,35.7,25.8,29.65,NW,316,5.9,10.6,67,0.00,,,0.00,VWS V14.01,2013-03-03 18:54:00,
2013-03-03 13:55:00,35.5,26.2,29.65,NW,316,10.3,12.1,69,0.00,,,0.00,VWS V14.01,2013-03-03 18:55:00,
2013-03-03 13:56:00,34.9,26.4,29.65,NW,314,6.3,10.5,71,0.00,,---,0.00,VWS V14.01,2013-03-03 18:56:00,
2013-03-03 13:57:00,34.9,26.2,29.65,North,352,4.6,7.3,70,0.00,,,0.00,VWS V14.01,2013-03-03 18:57:00,
2013-03-03 13:58:00,34.8,26.4,29.65,NNW,347,7.3,10.5,71,0.00,,,0.00,VWS V14.01,2013-03-03 18:58:00,
2013-03-03 13:59:00,34.6,26.4,29.65,North,1,4.3,8.6,72,0.00,,,0.00,VWS V14.01,2013-03-03 18:59:00,
2013-03-03 14:00:00,34.7,26.9,29.65,NNW,333,0.0,4.8,73,0.00,,,0.00,VWS V14.01,2013-03-03 19:00:00,
2013-03-03 14:01:00,34.8,26.8,29.65,NW,312,0.0,6.2,72,0.00,,---,0.00,VWS V14.01,2013-03-03 19:01:00,
2013-03-03 14:02:00,34.8,26.8,29.65,NW,323,5.9,9.2,72,0.00,,,0.00,VWS V14.01,2013-03-03 19:02:00,
2013-03-03 14:03:00,34.8,26.6,29.65,NW,312,0.0,6.2,72,0.00,,,0.00,VWS V14.01,2013-03-03 19:03:00,
2013-03-03 14:04:00,34.7,26.6,29.65,North,353,9.0,14.0,72,0.00,,,0.00,VWS V14.01,2013-03-03 19:04:00,
2013-03-03 14:05:00,34.4,26.5,29.65,NW,309,6.2,10.6,72,0.00,,,0.00,VWS V14.01,2013-03-03 19:05:00,
2013-03-03 14:06:00,34.3,26.4,29.65,NW,322,8.3,9.4,73,0.00,,---,0.00,VWS V14.01,2013-03-03 19:06:00,
2013-03-03 14:07:00,34.4,26.6,29.65,NNW,342,4.3,11.6,73,0.00,,,0.00,VWS V14.01,2013-03-03 19:07:00,
2013-03-03 14:08:00,34.3,26.4,29.65,NW,319,4.8,9.4,72,0.00,,,0.00,VWS V14.01,2013-03-03 19:08:00,
2013-03-03 14:09:00,34.4,26.7,29.65,North,359,0.0,6.0,73,0.00,,,0.00,VWS V14.01,2013-03-03 19:09:00,
2013-03-03 14:10:00,34.4,26.9,29.65,NW,318,0.0,7.5,74,0.00,,,0.00,VWS V14.01,2013-03-03 19:10:00,
2013-03-03 14:11:00,34.4,26.7,29.65,North,7,9.0,11.1,73,0.00,,---,0.00,VWS V14.01,2013-03-03 19:11:00,
2013-03-03 14:12:00,34.5,27.0,29.65,NNE,13,5.5,7.3,74,0.00,,,0.00,VWS V14.01,2013-03-03 19:12:00,
2013-03-03 14:13:00,34.4,26.6,29.65,NNE,15,3.1,11.1,73,0.00,,,0.00,VWS V14.01,2013-03-03 19:13:00,
2013-03-03 14:14:00,34.5,27.0,29.65,NW,326,0.0,7.9,74,0.00,,,0.00,VWS V14.01,2013-03-03 19:14:00,
2013-03-03 14:15:00,34.7,27.1,29.65,NW,312,5.2,6.3,74,0.00,,,0.00,VWS V14.01,2013-03-03 19:15:00,
2013-03-03 14:16:00,34.9,27.3,29.65,North,359,8.5,8.8,73,0.00,,---,0.00,VWS V14.01,2013-03-03 19:16:00,
2013-03-03 14:17:00,34.7,26.6,29.65,North,353,3.4,9.5,72,0.00,,,0.00,VWS V14.01,2013-03-03 19:17:00,
2013-03-03 14:18:00,34.9,27.1,29.65,North,1,6.8,9.6,73,0.00,,,0.00,VWS V14.01,2013-03-03 19:18:00,
2013-03-03 14:19:00,34.9,27.3,29.65,NNW,347,6.8,7.9,74,0.00,,,0.00,VWS V14.01,2013-03-03 19:19:00,
2013-03-03 14:20:00,34.9,27.4,29.65,North,4,7.5,10.9,74,0.00,,,0.00,VWS V14.01,2013-03-03 19:20:00,
2013-03-03 14:21:00,34.3,27.4,29.65,WNW,287,8.1,9.2,76,0.00,,---,0.00,VWS V14.01,2013-03-03 19:21:00,
2013-03-03 14:22:00,34.4,27.3,29.65,WNW,285,7.3,11.1,75,0.00,,,0.00,VWS V14.01,2013-03-03 19:22:00,
2013-03-03 14:23:00,34.2,27.4,29.65,ENE,63,5.3,9.9,76,0.00,,,0.00,VWS V14.01,2013-03-03 19:23:00,
2013-03-03 14:24:00,34.2,27.5,29.65,NNE,25,9.2,12.7,76,0.00,,,0.00,VWS V14.01,2013-03-03 19:24:00,
2013-03-03 14:25:00,34.1,27.9,29.65,North,352,8.1,10.2,78,0.00,,,0.00,VWS V14.01,2013-03-03 19:25:00,
2013-03-03 14:26:00,34.1,28.1,29.65,WNW,292,0.0,9.1,78,0.00,,---,0.00,VWS V14.01,2013-03-03 19:26:00,
2013-03-03 14:27:00,34.0,27.7,29.65,NW,316,4.3,8.6,78,0.00,,,0.00,VWS V14.01,2013-03-03 19:27:00,
2013-03-03 14:28:00,34.2,28.1,29.65,North,7,4.4,9.1,78,0.00,,,0.00,VWS V14.01,2013-03-03 19:28:00,
2013-03-03 14:29:00,34.1,28.0,29.65,NE,34,4.2,7.2,78,0.00,,,0.00,VWS V14.01,2013-03-03 19:29:00,
2013-03-03 14:30:00,34.3,28.6,29.65,North,359,0.0,5.3,79,0.00,,,0.00,VWS V14.01,2013-03-03 19:30:00,
2013-03-03 14:31:00,34.1,27.9,29.65,North,359,5.9,8.7,78,0.00,,---,0.00,VWS V14.01,2013-03-03 19:31:00,
2013-03-03 14:32:00,34.3,28.1,29.65,WNW,302,5.3,10.4,78,0.00,,,0.00,VWS V14.01,2013-03-03 19:32:00,
2013-03-03 14:33:00,34.1,28.0,29.65,NW,323,9.6,9.7,78,0.00,,,0.00,VWS V14.01,2013-03-03 19:33:00,
2013-03-03 14:34:00,34.1,28.1,29.65,West,276,7.5,10.7,78,0.00,,,0.00,VWS V14.01,2013-03-03 19:34:00,
2013-03-03 14:35:00,33.9,28.1,29.65,WNW,302,5.0,11.1,79,0.00,,,0.00,VWS V14.01,2013-03-03 19:35:00,
2013-03-03 14:36:00,34.0,28.4,29.65,NW,305,0.0,9.2,80,0.00,,---,0.00,VWS V14.01,2013-03-03 19:36:00,
2013-03-03 14:37:00,33.9,28.2,29.65,NNW,340,9.2,10.1,79,0.00,,,0.00,VWS V14.01,2013-03-03 19:37:00,
2013-03-03 14:38:00,34.0,28.4,29.65,NW,305,0.0,9.2,80,0.00,,,0.00,VWS V14.01,2013-03-03 19:38:00,
2013-03-03 14:39:00,34.0,28.5,29.65,NW,305,0.0,0.0,80,0.00,,,0.00,VWS V14.01,2013-03-03 19:39:00,
2013-03-03 14:40:00,34.2,28.7,29.65,NNW,347,8.2,8.5,80,0.00,,,0.00,VWS V14.01,2013-03-03 19:40:00,
2013-03-03 14:41:00,34.0,28.6,29.65,NW,316,0.0,8.9,80,0.00,,---,0.00,VWS V14.01,2013-03-03 19:41:00,
2013-03-03 14:42:00,33.9,28.2,29.65,NNW,336,7.8,10.7,79,0.00,,,0.00,VWS V14.01,2013-03-03 19:42:00,
2013-03-03 14:43:00,34.0,28.6,29.65,NW,307,5.8,8.9,80,0.00,,,0.00,VWS V14.01,2013-03-03 19:43:00,
2013-03-03 14:44:00,33.8,28.5,29.65,North,359,7.3,11.9,80,0.00,,,0.00,VWS V14.01,2013-03-03 19:44:00,
2013-03-03 14:45:00,33.7,28.5,29.65,NNE,14,7.0,8.8,81,0.00,,,0.00,VWS V14.01,2013-03-03 19:45:00,
2013-03-03 14:46:00,33.2,28.5,29.65,NNW,338,6.3,9.9,83,0.00,,---,0.00,VWS V14.01,2013-03-03 19:46:00,
2013-03-03 14:47:00,33.3,28.5,29.65,NW,326,8.0,12.2,82,0.00,,,0.00,VWS V14.01,2013-03-03 19:47:00,
2013-03-03 14:48:00,33.2,28.5,29.65,NNW,333,6.5,9.9,83,0.00,,,0.00,VWS V14.01,2013-03-03 19:48:00,
2013-03-03 14:49:00,33.1,28.5,29.65,North,359,4.9,11.1,83,0.00,,,0.00,VWS V14.01,2013-03-03 19:49:00,
2013-03-03 14:50:00,33.2,29.2,29.65,NNW,329,6.3,8.0,85,0.00,,,0.00,VWS V14.01,2013-03-03 19:50:00,
2013-03-03 14:51:00,33.1,29.3,29.65,North,359,0.0,6.6,86,0.00,,---,0.00,VWS V14.01,2013-03-03 19:51:00,
2013-03-03 14:52:00,32.9,28.8,29.65,North,3,5.9,10.1,85,0.00,,,0.00,VWS V14.01,2013-03-03 19:52:00,
2013-03-03 14:53:00,33.1,29.3,29.65,North,359,0.0,6.6,86,0.00,,,0.00,VWS V14.01,2013-03-03 19:53:00,
2013-03-03 14:54:00,33.2,29.3,29.65,North,359,0.0,2.9,85,0.00,,,0.00,VWS V14.01,2013-03-03 19:54:00,
2013-03-03 14:55:00,33.4,29.5,29.65,NE,44,5.2,10.0,85,0.00,,,0.00,VWS V14.01,2013-03-03 19:55:00,
2013-03-03 14:56:00,33.4,29.7,29.66,NW,314,6.3,6.5,86,0.00,,---,0.00,VWS V14.01,2013-03-03 19:56:00,
2013-03-03 14:57:00,33.3,29.5,29.65,North,0,3.5,5.8,86,0.00,,,0.00,VWS V14.01,2013-03-03 19:57:00,
2013-03-03 14:58:00,33.4,29.7,29.66,NNW,347,6.5,9.5,86,0.00,,,0.00,VWS V14.01,2013-03-03 19:58:00,
2013-03-03 14:59:00,33.2,29.0,29.66,NNW,343,6.7,7.4,84,0.00,,,0.00,VWS V14.01,2013-03-03 19:59:00,
2013-03-03 15:00:00,33.4,29.5,29.65,NNW,332,6.6,7.6,85,0.00,,,0.00,VWS V14.01,2013-03-03 20:00:00,
2013-03-03 15:01:00,33.6,28.7,29.65,North,6,0.0,6.0,82,0.00,,---,0.00,VWS V14.01,2013-03-03 20:01:00,
2013-03-03 15:02:00,33.5,29.3,29.66,WNW,292,0.0,9.5,84,0.00,,,0.00,VWS V14.01,2013-03-03 20:02:00,
2013-03-03 15:03:00,33.6,28.7,29.65,North,6,0.0,6.0,82,0.00,,,0.00,VWS V14.01,2013-03-03 20:03:00,
2013-03-03 15:04:00,33.8,28.9,29.65,NNW,335,5.2,9.3,82,0.00,,,0.00,VWS V14.01,2013-03-03 20:04:00,
2013-03-03 15:05:00,33.9,28.8,29.65,NW,311,0.0,8.8,81,0.00,,,0.00,VWS V14.01,2013-03-03 20:05:00,
2013-03-03 15:06:00,33.9,28.6,29.65,NW,319,7.0,7.8,81,0.00,,---,0.00,VWS V14.01,2013-03-03 20:06:00,
2013-03-03 15:07:00,33.8,28.5,29.65,NW,321,0.0,11.2,81,0.00,,,0.00,VWS V14.01,2013-03-03 20:07:00,
2013-03-03 15:08:00,33.9,28.6,29.65,NW,319,7.0,7.8,81,0.00,,,0.00,VWS V14.01,2013-03-03 20:08:00,
2013-03-03 15:09:00,34.0,28.9,29.65,NW,323,4.3,7.0,81,0.00,,,0.00,VWS V14.01,2013-03-03 20:09:00,
2013-03-03 15:10:00,34.2,29.3,29.66,NW,323,0.0,4.3,82,0.00,,,0.00,VWS V14.01,2013-03-03 20:10:00,
2013-03-03 15:11:00,34.5,29.5,29.66,NNW,329,0.0,0.0,82,0.00,,---,0.00,VWS V14.01,2013-03-03 20:11:00,
2013-03-03 15:12:00,34.4,29.5,29.65,NNW,329,0.0,3.2,82,0.00,,,0.00,VWS V14.01,2013-03-03 20:12:00,
2013-03-03 15:13:00,34.5,29.5,29.66,NNW,329,0.0,0.0,82,0.00,,,0.00,VWS V14.01,2013-03-03 20:13:00,
2013-03-03 15:14:00,34.5,29.5,29.65,NNW,338,8.0,8.0,82,0.00,,,0.00,VWS V14.01,2013-03-03 20:14:00,
2013-03-03 15:15:00,34.5,29.1,29.65,SW,217,0.0,10.9,80,0.00,,,0.00,VWS V14.01,2013-03-03 20:15:00,
2013-03-03 15:16:00,33.9,28.7,29.65,NNE,17,0.0,9.8,81,0.00,,---,0.00,VWS V14.01,2013-03-03 20:16:00,
2013-03-03 15:17:00,34.0,28.4,29.65,North,350,9.1,12.1,80,0.00,,,0.00,VWS V14.01,2013-03-03 20:17:00,
2013-03-03 15:18:00,33.9,28.7,29.65,NNE,17,0.0,9.8,81,0.00,,,0.00,VWS V14.01,2013-03-03 20:18:00,
2013-03-03 15:19:00,34.0,28.9,29.65,NW,326,6.1,7.0,81,0.00,,,0.00,VWS V14.01,2013-03-03 20:19:00,
2013-03-03 15:20:00,34.0,28.9,29.65,NW,307,6.6,8.8,82,0.00,,,0.00,VWS V14.01,2013-03-03 20:20:00,
2013-03-03 15:21:00,34.2,28.9,29.66,NNW,335,7.6,7.6,81,0.00,,---,0.00,VWS V14.01,2013-03-03 20:21:00,
2013-03-03 15:22:00,34.2,29.3,29.65,NW,308,5.4,7.2,82,0.00,,,0.00,VWS V14.01,2013-03-03 20:22:00,
2013-03-03 15:23:00,34.2,28.9,29.66,NNW,335,7.6,7.6,81,0.00,,,0.00,VWS V14.01,2013-03-03 20:23:00,
2013-03-03 15:24:00,34.1,29.0,29.65,West,281,0.0,7.6,81,0.00,,,0.00,VWS V14.01,2013-03-03 20:24:00,
2013-03-03 15:25:00,34.2,29.1,29.65,NNW,332,6.1,8.5,82,0.00,,,0.00,VWS V14.01,2013-03-03 20:25:00,
2013-03-03 15:26:00,34.2,28.8,29.66,NW,315,7.7,8.6,80,0.00,,---,0.00,VWS V14.01,2013-03-03 20:26:00,
2013-03-03 15:27:00,34.2,28.8,29.65,WNW,287,3.2,9.4,80,0.00,,,0.00,VWS V14.01,2013-03-03 20:27:00,
2013-03-03 15:28:00,34.2,28.7,29.66,North,359,3.1,10.4,80,0.00,,,0.00,VWS V14.01,2013-03-03 20:28:00,
2013-03-03 15:29:00,34.0,28.3,29.66,North,359,7.9,10.8,79,0.00,,,0.00,VWS V14.01,2013-03-03 20:29:00,
2013-03-03 15:30:00,33.9,28.6,29.66,NNW,328,6.2,10.4,81,0.00,,,0.00,VWS V14.01,2013-03-03 20:30:00,
2013-03-03 15:31:00,33.3,28.3,29.66,NNW,330,7.2,10.1,82,0.00,,---,0.00,VWS V14.01,2013-03-03 20:31:00,
2013-03-03 15:32:00,33.7,28.7,29.66,NNW,336,5.7,8.5,82,0.00,,,0.00,VWS V14.01,2013-03-03 20:32:00,
2013-03-03 15:33:00,33.4,28.3,29.66,NNW,346,7.0,10.4,81,0.00,,,0.00,VWS V14.01,2013-03-03 20:33:00,
2013-03-03 15:34:00,33.4,28.4,29.66,North,0,3.5,10.1,82,0.00,,,0.00,VWS V14.01,2013-03-03 20:34:00,
2013-03-03 15:35:00,33.1,28.5,29.66,North,11,6.2,10.2,83,0.00,,,0.00,VWS V14.01,2013-03-03 20:35:00,
2013-03-03 15:36:00,33.3,28.9,29.66,North,359,5.0,8.5,84,0.00,,---,0.00,VWS V14.01,2013-03-03 20:36:00,
2013-03-03 15:37:00,33.4,29.2,29.66,NW,323,5.7,7.1,84,0.00,,,0.00,VWS V14.01,2013-03-03 20:37:00,
2013-03-03 15:38:00,33.4,29.0,29.66,North,357,8.2,10.0,84,0.00,,,0.00,VWS V14.01,2013-03-03 20:38:00,
2013-03-03 15:39:00,33.3,28.9,29.66,North,359,4.7,8.5,84,0.00,,,0.00,VWS V14.01,2013-03-03 20:39:00,
2013-03-03 15:40:00,33.2,28.9,29.66,North,359,7.6,12.6,84,0.00,,,0.00,VWS V14.01,2013-03-03 20:40:00,
2013-03-03 15:41:00,33.0,28.8,29.66,North,353,6.6,8.0,84,0.00,,---,0.00,VWS V14.01,2013-03-03 20:41:00,
2013-03-03 15:42:00,33.1,29.0,29.66,North,353,8.8,10.0,84,0.00,,,0.00,VWS V14.01,2013-03-03 20:42:00,
2013-03-03 15:43:00,32.9,28.8,29.66,NNW,340,7.2,10.9,84,0.00,,,0.00,VWS V14.01,2013-03-03 20:43:00,
2013-03-03 15:44:00,32.9,28.9,29.66,NW,323,9.8,10.0,85,0.00,,,0.00,VWS V14.01,2013-03-03 20:44:00,
2013-03-03 15:45:00,32.8,28.8,29.66,NNW,332,1.6,10.9,85,0.00,,,0.00,VWS V14.01,2013-03-03 20:45:00,
2013-03-03 15:46:00,33.0,29.3,29.66,NW,308,4.4,7.1,86,0.00,,---,0.00,VWS V14.01,2013-03-03 20:46:00,
2013-03-03 15:47:00,32.9,29.1,29.66,NW,305,0.0,6.8,86,0.00,,,0.00,VWS V14.01,2013-03-03 20:47:00,
2013-03-03 15:48:00,32.9,29.2,29.66,NNW,330,7.1,8.8,86,0.00,,,0.00,VWS V14.01,2013-03-03 20:48:00,
2013-03-03 15:49:00,33.0,29.4,29.66,NNW,333,6.0,9.6,86,0.00,,,0.00,VWS V14.01,2013-03-03 20:49:00,
2013-03-03 15:50:00,33.1,29.4,29.66,North,359,0.0,7.0,86,0.00,,,0.00,VWS V14.01,2013-03-03 20:50:00,
2013-03-03 15:51:00,32.9,29.5,29.66,North,1,5.0,6.1,87,0.00,,---,0.00,VWS V14.01,2013-03-03 20:51:00,
2013-03-03 15:52:00,33.0,29.4,29.66,North,7,5.7,7.9,86,0.00,,,0.00,VWS V14.01,2013-03-03 20:52:00,
2013-03-03 15:53:00,32.9,29.4,29.66,WSW,242,3.4,7.0,87,0.00,,,0.00,VWS V14.01,2013-03-03 20:53:00,
2013-03-03 15:54:00,32.9,29.5,29.66,North,359,5.5,7.6,87,0.00,,,0.00,VWS V14.01,2013-03-03 20:54:00,
2013-03-03 15:55:00,32.8,29.6,29.66,North,3,3.4,5.7,88,0.00,,,0.00,VWS V14.01,2013-03-03 20:55:00,
2013-03-03 15:56:00,32.9,29.6,29.66,NW,326,5.5,6.0,88,0.00,,---,0.00,VWS V14.01,2013-03-03 20:56:00,
2013-03-03 15:57:00,33.0,29.9,29.66,NNW,342,6.2,6.4,88,0.00,,,0.00,VWS V14.01,2013-03-03 20:57:00,
2013-03-03 15:58:00,32.9,29.7,29.66,NNW,346,5.5,8.6,88,0.00,,,0.00,VWS V14.01,2013-03-03 20:58:00,
2013-03-03 15:59:00,32.8,29.6,29.66,NNE,14,7.3,8.8,88,0.00,,,0.00,VWS V14.01,2013-03-03 20:59:00,
2013-03-03 16:00:00,32.9,30.0,29.66,NW,321,3.5,7.7,89,0.00,,,0.00,VWS V14.01,2013-03-03 21:00:00,
2013-03-03 16:01:00,32.9,29.7,29.66,North,359,4.2,5.0,88,0.00,,---,0.00,VWS V14.01,2013-03-03 21:01:00,
2013-03-03 16:02:00,32.8,29.2,29.66,NNW,328,5.5,8.8,87,0.00,,,0.00,VWS V14.01,2013-03-03 21:02:00,
2013-03-03 16:03:00,32.9,29.6,29.66,NNE,21,4.2,7.1,87,0.00,,,0.00,VWS V14.01,2013-03-03 21:03:00,
2013-03-03 16:04:00,32.7,29.1,29.66,NW,312,7.0,10.3,87,0.00,,,0.00,VWS V14.01,2013-03-03 21:04:00,
2013-03-03 16:05:00,32.7,29.2,29.66,WNW,285,3.4,9.9,87,0.00,,,0.00,VWS V14.01,2013-03-03 21:05:00,
2013-03-03 16:06:00,32.7,29.6,29.66,NNW,345,5.1,6.6,88,0.00,,---,0.00,VWS V14.01,2013-03-03 21:06:00,
2013-03-03 16:07:00,32.6,29.3,29.66,WNW,291,0.0,8.6,88,0.00,,,0.00,VWS V14.01,2013-03-03 21:07:00,
2013-03-03 16:08:00,32.6,29.4,29.66,WNW,291,3.3,3.3,88,0.00,,,0.00,VWS V14.01,2013-03-03 21:08:00,
2013-03-03 16:09:00,32.7,29.6,29.66,NNW,345,0.0,6.6,88,0.00,,,0.00,VWS V14.01,2013-03-03 21:09:00,
2013-03-03 16:10:00,32.7,29.7,29.66,WNW,295,9.1,9.5,88,0.00,,,0.00,VWS V14.01,2013-03-03 21:10:00,
2013-03-03 16:11:00,32.4,29.4,29.66,NW,325,0.0,0.0,88,0.00,,---,0.00,VWS V14.01,2013-03-03 21:11:00,
2013-03-03 16:12:00,32.5,29.2,29.66,WNW,302,6.5,9.6,88,0.00,,,0.00,VWS V14.01,2013-03-03 21:12:00,
2013-03-03 16:13:00,32.4,29.3,29.66,NW,325,0.0,8.7,88,0.00,,,0.00,VWS V14.01,2013-03-03 21:13:00,
2013-03-03 16:14:00,32.4,29.4,29.66,NW,325,0.0,0.0,88,0.00,,,0.00,VWS V14.01,2013-03-03 21:14:00,
2013-03-03 16:15:00,32.5,29.6,29.66,NW,325,0.0,0.0,89,0.00,,,0.00,VWS V14.01,2013-03-03 21:15:00,
2013-03-03 16:16:00,32.5,29.5,29.66,NW,312,6.4,9.4,88,0.00,,---,0.00,VWS V14.01,2013-03-03 21:16:00,
2013-03-03 16:17:00,32.6,30.0,29.66,WNW,300,0.0,4.9,90,0.00,,,0.00,VWS V14.01,2013-03-03 21:17:00,
2013-03-03 16:18:00,32.6,29.8,29.66,WSW,256,6.8,7.3,89,0.00,,,0.00,VWS V14.01,2013-03-03 21:18:00,
2013-03-03 16:19:00,32.5,29.5,29.66,NNE,22,6.0,9.4,88,0.00,,,0.00,VWS V14.01,2013-03-03 21:19:00,
2013-03-03 16:20:00,32.2,29.2,29.66,North,359,6.1,8.9,88,0.00,,,0.00,VWS V14.01,2013-03-03 21:20:00,
2013-03-03 16:21:00,32.0,29.5,29.66,NNE,28,0.0,0.0,90,0.00,,---,0.00,VWS V14.01,2013-03-03 21:21:00,
2013-03-03 16:22:00,32.0,29.2,29.66,NW,326,4.8,7.1,89,0.00,,,0.00,VWS V14.01,2013-03-03 21:22:00,
2013-03-03 16:23:00,31.9,29.4,29.66,NNE,28,0.0,4.8,90,0.00,,,0.00,VWS V14.01,2013-03-03 21:23:00,
2013-03-03 16:24:00,32.0,29.5,29.66,NNE,28,0.0,0.0,90,0.00,,,0.00,VWS V14.01,2013-03-03 21:24:00,
2013-03-03 16:25:00,32.0,29.4,29.66,NW,325,6.5,8.4,90,0.00,,,0.00,VWS V14.01,2013-03-03 21:25:00,
2013-03-03 16:26:00,31.7,29.2,29.66,NW,318,6.8,6.8,90,0.00,,---,0.00,VWS V14.01,2013-03-03 21:26:00,
2013-03-03 16:27:00,31.9,29.4,29.66,West,259,4.8,7.9,90,0.00,,,0.00,VWS V14.01,2013-03-03 21:27:00,
2013-03-03 16:28:00,31.8,29.3,29.66,WNW,288,4.8,8.4,90,0.00,,,0.00,VWS V14.01,2013-03-03 21:28:00,
2013-03-03 16:29:00,31.8,29.3,29.66,WSW,243,0.0,6.8,90,0.00,,,0.00,VWS V14.01,2013-03-03 21:29:00,
2013-03-03 16:30:00,31.8,29.2,29.66,NNW,328,0.0,8.0,90,0.00,,,0.00,VWS V14.01,2013-03-03 21:30:00,
2013-03-03 16:31:00,31.8,29.3,29.66,NNW,328,0.0,0.0,90,0.00,,,0.00,VWS V14.01,2013-03-03 21:31:00,
2013-03-03 16:32:00,31.8,29.3,29.66,WSW,256,0.0,6.6,90,0.00,,---,0.00,VWS V14.01,2013-03-03 21:32:00,
2013-03-03 16:33:00,31.8,29.3,29.66,NW,325,0.0,3.3,90,0.00,,,0.00,VWS V14.01,2013-03-03 21:33:00,
2013-03-03 16:34:00,31.8,29.3,29.66,WSW,256,0.0,6.6,90,0.00,,,0.00,VWS V14.01,2013-03-03 21:34:00,
2013-03-03 16:35:00,31.9,29.4,29.66,WSW,238,0.0,5.7,90,0.00,,,0.00,VWS V14.01,2013-03-03 21:35:00,
2013-03-03 16:36:00,31.9,29.3,29.66,WSW,238,0.0,0.0,90,0.00,,,0.00,VWS V14.01,2013-03-03 21:36:00,
2013-03-03 16:37:00,32.3,29.8,29.66,WSW,238,0.0,0.0,90,0.00,,---,0.00,VWS V14.01,2013-03-03 21:37:00,
2013-03-03 16:38:00,32.2,29.7,29.66,WSW,238,0.0,0.0,90,0.00,,,0.00,VWS V14.01,2013-03-03 21:38:00,
2013-03-03 16:39:00,32.2,29.6,29.66,NNW,329,2.9,3.4,90,0.00,,,0.00,VWS V14.01,2013-03-03 21:39:00,
2013-03-03 16:40:00,32.2,29.6,29.66,NNW,329,0.0,2.9,90,0.00,,,0.00,VWS V14.01,2013-03-03 21:40:00,
2013-03-03 16:41:00,32.4,29.7,29.66,NNW,329,0.0,0.0,90,0.00,,,0.00,VWS V14.01,2013-03-03 21:41:00,
2013-03-03 16:42:00,32.6,30.0,29.66,NNW,329,0.0,3.1,90,0.00,,---,0.00,VWS V14.01,2013-03-03 21:42:00,
2013-03-03 16:43:00,32.5,29.9,29.66,NNW,329,0.0,0.0,90,0.00,,,0.00,VWS V14.01,2013-03-03 21:43:00,
2013-03-03 16:44:00,32.6,30.0,29.66,NNW,329,0.0,3.1,90,0.00,,,0.00,VWS V14.01,2013-03-03 21:44:00,
2013-03-03 16:45:00,32.6,29.9,29.67,NNW,329,0.0,0.0,90,0.00,,,0.00,VWS V14.01,2013-03-03 21:45:00,
2013-03-03 16:46:00,32.8,30.1,29.67,NNW,329,0.0,0.0,90,0.00,,,0.00,VWS V14.01,2013-03-03 21:46:00,
2013-03-03 16:47:00,32.7,29.9,29.66,NNW,329,0.0,0.0,89,0.00,,---,0.00,VWS V14.01,2013-03-03 21:47:00,
2013-03-03 16:48:00,32.8,30.0,29.66,NNW,329,0.0,0.0,89,0.00,,,0.00,VWS V14.01,2013-03-03 21:48:00,
2013-03-03 16:49:00,32.8,30.0,29.66,NNW,329,0.0,0.0,89,0.00,,,0.00,VWS V14.01,2013-03-03 21:49:00,
2013-03-03 16:50:00,32.8,30.0,29.66,North,353,3.5,7.5,89,0.00,,,0.00,VWS V14.01,2013-03-03 21:50:00,
2013-03-03 16:51:00,32.7,29.9,29.67,NNW,347,0.0,4.3,89,0.00,,,0.00,VWS V14.01,2013-03-03 21:51:00,
2013-03-03 16:52:00,32.4,29.9,29.66,ENE,60,0.0,7.1,90,0.00,,---,0.00,VWS V14.01,2013-03-03 21:52:00,
2013-03-03 16:53:00,32.6,29.9,29.67,NE,38,4.1,9.6,90,0.00,,,0.00,VWS V14.01,2013-03-03 21:53:00,
2013-03-03 16:54:00,32.4,29.9,29.66,NNW,332,7.1,7.6,90,0.00,,,0.00,VWS V14.01,2013-03-03 21:54:00,
2013-03-03 16:55:00,32.3,29.7,29.66,NNW,333,6.2,7.4,90,0.00,,,0.00,VWS V14.01,2013-03-03 21:55:00,
2013-03-03 16:56:00,32.0,29.4,29.66,NNW,329,7.4,10.1,90,0.00,,,0.00,VWS V14.01,2013-03-03 21:56:00,
2013-03-03 16:57:00,31.6,29.4,29.66,NNW,336,5.8,7.7,91,0.00,,---,0.00,VWS V14.01,2013-03-03 21:57:00,
2013-03-03 16:58:00,31.6,29.3,29.67,NNE,15,4.7,6.3,91,0.00,,,0.00,VWS V14.01,2013-03-03 21:58:00,
2013-03-03 16:59:00,31.6,29.3,29.67,NNW,329,6.5,7.7,91,0.00,,,0.00,VWS V14.01,2013-03-03 21:59:00,
2013-03-03 17:00:00,31.6,29.4,29.66,North,357,0.0,6.7,91,0.00,,,0.00,VWS V14.01,2013-03-03 22:00:00,
2013-03-03 17:01:00,31.6,29.4,29.67,NNW,345,0.0,6.3,92,0.00,,,0.00,VWS V14.01,2013-03-03 22:01:00,
2013-03-03 17:02:00,31.8,29.6,29.66,NNW,345,0.0,0.0,92,0.00,,---,0.00,VWS V14.01,2013-03-03 22:02:00,
2013-03-03 17:03:00,31.7,29.5,29.67,NNW,345,0.0,0.0,92,0.00,,,0.00,VWS V14.01,2013-03-03 22:03:00,
2013-03-03 17:04:00,31.7,29.5,29.67,NNW,345,0.0,0.0,92,0.00,,,0.00,VWS V14.01,2013-03-03 22:04:00,
2013-03-03 17:05:00,31.7,29.5,29.67,NNW,345,0.0,0.0,91,0.00,,,0.00,VWS V14.01,2013-03-03 22:05:00,
2013-03-03 17:06:00,31.7,29.5,29.67,NNW,345,0.0,0.0,91,0.00,,,0.00,VWS V14.01,2013-03-03 22:06:00,
2013-03-03 17:07:00,31.9,29.7,29.66,NW,325,3.2,3.2,91,0.00,,---,0.00,VWS V14.01,2013-03-03 22:07:00,
2013-03-03 17:08:00,31.9,29.7,29.67,NNW,345,0.0,0.0,91,0.00,,,0.00,VWS V14.01,2013-03-03 22:08:00,
2013-03-03 17:09:00,31.8,29.6,29.66,NW,323,4.5,5.5,91,0.00,,,0.00,VWS V14.01,2013-03-03 22:09:00,
2013-03-03 17:10:00,31.9,29.7,29.66,NW,309,0.0,4.6,92,0.00,,,0.00,VWS V14.01,2013-03-03 22:10:00,
2013-03-03 17:11:00,31.8,29.5,29.67,NW,309,0.0,0.0,91,0.00,,,0.00,VWS V14.01,2013-03-03 22:11:00,
2013-03-03 17:12:00,31.6,29.5,29.66,WNW,283,5.3,5.5,92,0.00,,---,0.00,VWS V14.01,2013-03-03 22:12:00,
2013-03-03 17:13:00,31.6,29.4,29.67,NW,323,5.5,6.2,92,0.00,,,0.00,VWS V14.01,2013-03-03 22:13:00,
2013-03-03 17:14:00,31.6,29.5,29.67,WNW,283,3.2,5.5,92,0.00,,,0.00,VWS V14.01,2013-03-03 22:14:00,
2013-03-03 17:15:00,31.6,29.5,29.67,North,6,0.0,7.4,92,0.00,,,0.00,VWS V14.01,2013-03-03 22:15:00,
2013-03-03 17:16:00,31.5,29.5,29.67,North,359,0.0,5.2,92,0.00,,,0.00,VWS V14.01,2013-03-03 22:16:00,
2013-03-03 17:17:00,31.7,29.7,29.66,North,359,0.0,0.0,92,0.00,,---,0.00,VWS V14.01,2013-03-03 22:17:00,
2013-03-03 17:18:00,31.6,29.5,29.67,North,359,0.0,0.0,92,0.00,,,0.00,VWS V14.01,2013-03-03 22:18:00,
2013-03-03 17:19:00,31.5,29.5,29.67,North,359,0.0,0.0,92,0.00,,,0.00,VWS V14.01,2013-03-03 22:19:00,
2013-03-03 17:20:00,31.7,29.7,29.67,North,359,0.0,0.0,92,0.00,,,0.00,VWS V14.01,2013-03-03 22:20:00,
2013-03-03 17:21:00,31.7,29.7,29.67,North,359,0.0,0.0,92,0.00,,,0.00,VWS V14.01,2013-03-03 22:21:00,
2013-03-03 17:22:00,31.5,29.5,29.66,NNW,335,0.0,6.8,92,0.00,,---,0.00,VWS V14.01,2013-03-03 22:22:00,
2013-03-03 17:23:00,31.6,29.6,29.67,North,359,0.0,0.0,92,0.00,,,0.00,VWS V14.01,2013-03-03 22:23:00,
2013-03-03 17:24:00,31.5,29.5,29.67,NNW,335,0.0,6.8,92,0.00,,,0.00,VWS V14.01,2013-03-03 22:24:00,
2013-03-03 17:25:00,31.5,29.5,29.67,NNW,335,0.0,0.0,92,0.00,,,0.00,VWS V14.01,2013-03-03 22:25:00,
2013-03-03 17:26:00,31.5,29.4,29.67,NNE,24,0.0,5.8,92,0.00,,,0.00,VWS V14.01,2013-03-03 22:26:00,
2013-03-03 17:27:00,31.3,29.3,29.67,NW,308,0.0,5.2,92,0.00,,---,0.00,VWS V14.01,2013-03-03 22:27:00,
2013-03-03 17:28:00,31.3,29.3,29.67,NW,311,5.2,8.0,92,0.00,,,0.00,VWS V14.01,2013-03-03 22:28:00,
2013-03-03 17:29:00,31.3,29.3,29.67,NW,308,0.0,5.2,92,0.00,,,0.00,VWS V14.01,2013-03-03 22:29:00,
2013-03-03 17:30:00,31.3,29.3,29.67,WNW,302,4.4,8.6,92,0.00,,,0.00,VWS V14.01,2013-03-03 22:30:00,
2013-03-03 17:31:00,31.3,29.3,29.67,NNW,330,5.1,5.7,92,0.00,,,0.00,VWS V14.01,2013-03-03 22:31:00,
2013-03-03 17:32:00,31.0,29.0,29.67,NW,309,3.4,8.3,92,0.00,,---,0.00,VWS V14.01,2013-03-03 22:32:00,
2013-03-03 17:33:00,31.1,29.3,29.67,NNW,342,7.3,8.5,93,0.00,,,0.00,VWS V14.01,2013-03-03 22:33:00,
2013-03-03 17:34:00,31.0,29.0,29.67,NW,309,3.4,8.3,92,0.00,,,0.00,VWS V14.01,2013-03-03 22:34:00,
2013-03-03 17:35:00,31.1,29.2,29.67,NW,309,0.0,3.4,92,0.00,,,0.00,VWS V14.01,2013-03-03 22:35:00,
2013-03-03 17:36:00,31.1,29.2,29.67,North,352,3.2,3.5,93,0.00,,,0.00,VWS V14.01,2013-03-03 22:36:00,
2013-03-03 17:37:00,31.1,29.2,29.66,WNW,301,0.0,0.0,93,0.00,,---,0.00,VWS V14.01,2013-03-03 22:37:00,
2013-03-03 17:38:00,31.2,29.4,29.67,WNW,301,0.0,2.7,93,0.00,,,0.00,VWS V14.01,2013-03-03 22:38:00,
2013-03-03 17:39:00,31.1,29.2,29.67,WNW,301,0.0,0.0,93,0.00,,,0.00,VWS V14.01,2013-03-03 22:39:00,
2013-03-03 17:40:00,31.1,29.3,29.67,WNW,301,0.0,0.0,93,0.00,,,0.00,VWS V14.01,2013-03-03 22:40:00,
2013-03-03 17:41:00,31.1,29.2,29.67,NNW,328,5.8,5.8,92,0.00,,,0.00,VWS V14.01,2013-03-03 22:41:00,
2013-03-03 17:42:00,31.1,29.0,29.67,WNW,295,0.0,0.0,92,0.00,,---,0.00,VWS V14.01,2013-03-03 22:42:00,
2013-03-03 17:43:00,31.1,29.1,29.67,WNW,295,0.0,4.7,92,0.00,,,0.00,VWS V14.01,2013-03-03 22:43:00,
2013-03-03 17:44:00,31.1,29.0,29.67,WNW,295,0.0,0.0,92,0.00,,,0.00,VWS V14.01,2013-03-03 22:44:00,
2013-03-03 17:45:00,31.0,29.0,29.67,WNW,290,7.0,7.0,92,0.00,,,0.00,VWS V14.01,2013-03-03 22:45:00,
2013-03-03 17:46:00,30.8,28.7,29.67,NW,323,3.2,9.1,92,0.00,,,0.00,VWS V14.01,2013-03-03 22:46:00,
2013-03-03 17:47:00,31.0,29.0,29.67,NW,315,0.0,3.2,92,0.00,,---,0.00,VWS V14.01,2013-03-03 22:47:00,
2013-03-03 17:48:00,31.0,28.9,29.67,NW,315,0.0,0.0,92,0.00,,,0.00,VWS V14.01,2013-03-03 22:48:00,
2013-03-03 17:49:00,31.0,29.0,29.67,NW,315,0.0,3.2,92,0.00,,,0.00,VWS V14.01,2013-03-03 22:49:00,
2013-03-03 17:50:00,31.0,28.9,29.67,NW,315,5.2,9.6,92,0.00,,,0.00,VWS V14.01,2013-03-03 22:50:00,
2013-03-03 17:51:00,30.9,28.7,29.67,North,1,4.9,7.5,92,0.00,,,0.00,VWS V14.01,2013-03-03 22:51:00,
2013-03-03 17:52:00,31.0,28.8,29.67,North,356,0.0,4.3,92,0.00,,---,0.00,VWS V14.01,2013-03-03 22:52:00,
2013-03-03 17:53:00,31.0,28.8,29.67,NNW,346,3.0,6.3,91,0.00,,,0.00,VWS V14.01,2013-03-03 22:53:00,
2013-03-03 17:54:00,31.0,28.8,29.67,North,356,0.0,4.3,92,0.00,,,0.00,VWS V14.01,2013-03-03 22:54:00,
2013-03-03 17:55:00,31.0,28.7,29.67,WSW,239,0.0,7.1,91,0.00,,,0.00,VWS V14.01,2013-03-03 22:55:00,
2013-03-03 17:56:00,31.0,28.8,29.67,NW,305,7.0,7.5,91,0.00,,,0.00,VWS V14.01,2013-03-03 22:56:00,
2013-03-03 17:57:00,31.0,28.7,29.67,North,350,3.5,8.0,91,0.00,,---,0.00,VWS V14.01,2013-03-03 22:57:00,
2013-03-03 17:58:00,30.9,28.7,29.67,NNW,335,5.7,10.9,91,0.00,,,0.00,VWS V14.01,2013-03-03 22:58:00,
2013-03-03 17:59:00,31.0,28.7,29.67,North,350,3.5,8.0,91,0.00,,,0.00,VWS V14.01,2013-03-03 22:59:00,
2013-03-03 18:00:00,31.0,28.7,29.67,NE,44,0.0,4.2,91,0.00,,,0.00,VWS V14.01,2013-03-03 23:00:00,
2013-03-03 18:01:00,31.0,28.8,29.67,North,1,4.6,6.0,91,0.00,,,0.00,VWS V14.01,2013-03-03 23:01:00,
2013-03-03 18:02:00,30.9,28.6,29.67,NW,314,0.0,6.4,91,0.00,,---,0.00,VWS V14.01,2013-03-03 23:02:00,
2013-03-03 18:03:00,31.0,28.7,29.67,North,352,4.5,6.2,91,0.00,,,0.00,VWS V14.01,2013-03-03 23:03:00,
2013-03-03 18:04:00,30.9,28.6,29.67,NW,314,0.0,6.4,91,0.00,,,0.00,VWS V14.01,2013-03-03 23:04:00,
2013-03-03 18:05:00,30.9,28.6,29.67,NW,314,0.0,0.0,91,0.00,,,0.00,VWS V14.01,2013-03-03 23:05:00,
2013-03-03 18:06:00,30.9,28.6,29.67,NW,314,0.0,0.0,91,0.00,,,0.00,VWS V14.01,2013-03-03 23:06:00,
2013-03-03 18:07:00,30.9,28.6,29.67,NW,314,0.0,0.0,91,0.00,,---,0.00,VWS V14.01,2013-03-03 23:07:00,
2013-03-03 18:08:00,30.9,28.6,29.67,NW,314,0.0,0.0,91,0.00,,,0.00,VWS V14.01,2013-03-03 23:08:00,
2013-03-03 18:09:00,30.9,28.6,29.67,NW,314,0.0,0.0,91,0.00,,,0.00,VWS V14.01,2013-03-03 23:09:00,
2013-03-03 18:10:00,30.9,28.5,29.67,NW,314,0.0,0.0,91,0.00,,,0.00,VWS V14.01,2013-03-03 23:10:00,
2013-03-03 18:11:00,30.9,28.6,29.67,NNW,330,4.8,5.3,91,0.00,,,0.00,VWS V14.01,2013-03-03 23:11:00,
2013-03-03 18:12:00,30.8,28.5,29.67,NW,307,3.4,9.4,91,0.00,,---,0.00,VWS V14.01,2013-03-03 23:12:00,
2013-03-03 18:13:00,30.9,28.6,29.67,NW,312,0.0,4.8,91,0.00,,,0.00,VWS V14.01,2013-03-03 23:13:00,
2013-03-03 18:14:00,30.8,28.5,29.67,NW,307,3.4,9.4,91,0.00,,,0.00,VWS V14.01,2013-03-03 23:14:00,
2013-03-03 18:15:00,30.9,28.6,29.67,NW,319,4.8,7.8,91,0.00,,,0.00,VWS V14.01,2013-03-03 23:15:00,
2013-03-03 18:16:00,30.9,28.6,29.68,NNW,343,5.7,8.3,91,0.00,,,0.00,VWS V14.01,2013-03-03 23:16:00,
2013-03-03 18:17:00,30.8,28.6,29.68,NW,326,3.3,3.3,92,0.00,,---,0.00,VWS V14.01,2013-03-03 23:17:00,
2013-03-03 18:18:00,30.8,28.5,29.68,North,359,0.0,5.7,91,0.00,,,0.00,VWS V14.01,2013-03-03 23:18:00,
2013-03-03 18:19:00,30.8,28.6,29.68,NW,326,3.3,3.3,92,0.00,,,0.00,VWS V14.01,2013-03-03 23:19:00,
2013-03-03 18:20:00,30.9,28.7,29.68,North,356,0.0,6.0,92,0.00,,,0.00,VWS V14.01,2013-03-03 23:20:00,
2013-03-03 18:21:00,30.9,28.8,29.68,North,356,0.0,3.1,92,0.00,,,0.00,VWS V14.01,2013-03-03 23:21:00,
2013-03-03 18:22:00,30.9,28.7,29.68,NW,326,5.8,6.2,92,0.00,,---,0.00,VWS V14.01,2013-03-03 23:22:00,
2013-03-03 18:23:00,30.9,28.7,29.68,NW,318,5.2,5.2,92,0.00,,,0.00,VWS V14.01,2013-03-03 23:23:00,
2013-03-03 18:24:00,30.9,28.7,29.68,NW,326,5.8,6.2,92,0.00,,,0.00,VWS V14.01,2013-03-03 23:24:00,
2013-03-03 18:25:00,30.9,28.6,29.68,North,354,4.2,8.1,91,0.00,,,0.00,VWS V14.01,2013-03-03 23:25:00,
2013-03-03 18:26:00,30.9,28.7,29.68,NE,37,4.3,4.8,91,0.00,,,0.00,VWS V14.01,2013-03-03 23:26:00,
2013-03-03 18:27:00,31.0,28.8,29.68,NW,316,0.0,0.0,91,0.00,,---,0.00,VWS V14.01,2013-03-03 23:27:00,
2013-03-03 18:28:00,30.7,28.5,29.68,NW,316,0.0,3.5,91,0.00,,,0.00,VWS V14.01,2013-03-03 23:28:00,
2013-03-03 18:29:00,31.0,28.8,29.68,NW,316,0.0,0.0,91,0.00,,,0.00,VWS V14.01,2013-03-03 23:29:00,
2013-03-03 18:30:00,31.0,28.8,29.68,NNW,328,4.3,4.5,92,0.00,,,0.00,VWS V14.01,2013-03-03 23:30:00,
2013-03-03 18:31:00,31.0,28.7,29.68,NW,323,6.8,8.8,91,0.00,,,0.00,VWS V14.01,2013-03-03 23:31:00,
2013-03-03 18:32:00,31.0,28.6,29.68,NW,305,0.0,6.3,91,0.00,,---,0.00,VWS V14.01,2013-03-03 23:32:00,
2013-03-03 18:33:00,30.9,28.6,29.68,NNW,343,0.0,0.0,91,0.00,,,0.00,VWS V14.01,2013-03-03 23:33:00,
2013-03-03 18:34:00,31.0,28.6,29.68,NW,305,0.0,6.3,91,0.00,,,0.00,VWS V14.01,2013-03-03 23:34:00,
2013-03-03 18:35:00,31.0,28.6,29.68,NW,305,0.0,0.0,91,0.00,,,0.00,VWS V14.01,2013-03-03 23:35:00,
2013-03-03 18:36:00,30.9,28.5,29.68,NW,305,0.0,0.0,91,0.00,,,0.00,VWS V14.01,2013-03-03 23:36:00,
2013-03-03 18:37:00,30.9,28.5,29.68,NNW,329,0.0,0.0,91,0.00,,---,0.00,VWS V14.01,2013-03-03 23:37:00,
2013-03-03 18:38:00,30.8,28.4,29.68,NNW,329,0.0,5.3,90,0.00,,,0.00,VWS V14.01,2013-03-03 23:38:00,
2013-03-03 18:39:00,30.9,28.5,29.68,NNW,329,0.0,0.0,91,0.00,,,0.00,VWS V14.01,2013-03-03 23:39:00,
2013-03-03 18:40:00,30.9,28.5,29.68,NNW,329,0.0,0.0,90,0.00,,,0.00,VWS V14.01,2013-03-03 23:40:00,
2013-03-03 18:41:00,31.0,28.6,29.68,NNW,329,0.0,0.0,91,0.00,,,0.00,VWS V14.01,2013-03-03 23:41:00,
2013-03-03 18:42:00,30.9,28.3,29.68,North,1,0.0,6.0,90,0.00,,---,0.00,VWS V14.01,2013-03-03 23:42:00,
2013-03-03 18:43:00,30.9,28.3,29.68,NNW,330,6.0,7.5,90,0.00,,,0.00,VWS V14.01,2013-03-03 23:43:00,
2013-03-03 18:44:00,30.9,28.3,29.68,North,1,0.0,6.0,90,0.00,,,0.00,VWS V14.01,2013-03-03 23:44:00,
2013-03-03 18:45:00,30.9,28.4,29.68,North,1,0.0,0.0,90,0.00,,,0.00,VWS V14.01,2013-03-03 23:45:00,
2013-03-03 18:46:00,31.0,28.4,29.68,North,6,0.0,4.9,90,0.00,,,0.00,VWS V14.01,2013-03-03 23:46:00,
2013-03-03 18:47:00,30.9,28.3,29.68,North,359,0.0,3.0,90,0.00,,---,0.00,VWS V14.01,2013-03-03 23:47:00,
2013-03-03 18:48:00,31.0,28.4,29.68,NW,307,0.0,0.0,90,0.00,,,0.00,VWS V14.01,2013-03-03 23:48:00,
2013-03-03 18:49:00,30.9,28.3,29.68,North,359,0.0,3.0,90,0.00,,,0.00,VWS V14.01,2013-03-03 23:49:00,
2013-03-03 18:50:00,31.0,28.4,29.68,North,359,0.0,0.0,90,0.00,,,0.00,VWS V14.01,2013-03-03 23:50:00,
2013-03-03 18:51:00,30.8,28.1,29.68,NW,325,5.3,8.0,90,0.00,,,0.00,VWS V14.01,2013-03-03 23:51:00,
2013-03-03 18:52:00,31.0,28.0,29.69,North,354,4.2,4.2,88,0.00,,---,0.00,VWS V14.01,2013-03-03 23:52:00,
2013-03-03 18:53:00,30.9,27.9,29.68,NNW,330,0.0,4.6,88,0.00,,,0.00,VWS V14.01,2013-03-03 23:53:00,
2013-03-03 18:54:00,31.0,28.0,29.68,North,354,4.2,4.2,88,0.00,,,0.00,VWS V14.01,2013-03-03 23:54:00,
2013-03-03 18:55:00,30.9,27.9,29.68,NNW,336,0.0,4.3,88,0.00,,,0.00,VWS V14.01,2013-03-03 23:55:00,
2013-03-03 18:56:00,31.0,27.9,29.68,North,349,4.4,4.4,88,0.00,,,0.00,VWS V14.01,2013-03-03 23:56:00,
2013-03-03 18:57:00,30.9,27.6,29.69,NW,314,0.0,6.5,87,0.00,,---,0.00,VWS V14.01,2013-03-03 23:57:00,
2013-03-03 18:58:00,30.9,27.4,29.68,NW,304,2.9,8.7,87,0.00,,,0.00,VWS V14.01,2013-03-03 23:58:00,
2013-03-03 18:59:00,30.9,27.6,29.68,NW,314,0.0,6.5,87,0.00,,,0.00,VWS V14.01,2013-03-03 23:59:00,
2013-03-03 19:00:00,31.0,27.6,29.68,NNW,339,7.8,8.6,87,0.00,,,0.00,VWS V14.01,2013-03-04 00:00:00,
2013-03-03 19:01:00,30.9,27.5,29.68,NNW,336,6.2,7.8,87,0.00,,,0.00,VWS V14.01,2013-03-04 00:01:00,
2013-03-03 19:02:00,30.9,27.2,29.69,NNW,330,5.5,7.0,86,0.00,,---,0.00,VWS V14.01,2013-03-04 00:02:00,
2013-03-03 19:03:00,30.8,27.2,29.69,NNW,342,5.7,7.0,86,0.00,,,0.00,VWS V14.01,2013-03-04 00:03:00,
2013-03-03 19:04:00,30.9,27.2,29.69,NNW,330,5.5,7.0,86,0.00,,,0.00,VWS V14.01,2013-03-04 00:04:00,
2013-03-03 19:05:00,30.8,27.3,29.69,NW,325,5.6,6.0,87,0.00,,,0.00,VWS V14.01,2013-03-04 00:05:00,
2013-03-03 19:06:00,30.9,27.1,29.68,NW,305,5.0,7.3,86,0.00,,,0.00,VWS V14.01,2013-03-04 00:06:00,
2013-03-03 19:07:00,30.9,27.1,29.69,NNW,347,0.0,0.0,86,0.00,,---,0.00,VWS V14.01,2013-03-04 00:07:00,
2013-03-03 19:08:00,30.9,27.1,29.69,NNW,347,0.0,0.0,86,0.00,,,0.00,VWS V14.01,2013-03-04 00:08:00,
2013-03-03 19:09:00,30.9,27.1,29.69,NNW,347,0.0,0.0,86,0.00,,,0.00,VWS V14.01,2013-03-04 00:09:00,
2013-03-03 19:10:00,30.9,26.9,29.69,NW,319,5.1,6.3,85,0.00,,,0.00,VWS V14.01,2013-03-04 00:10:00,
2013-03-03 19:11:00,30.9,26.9,29.69,WNW,288,0.0,7.0,85,0.00,,,0.00,VWS V14.01,2013-03-04 00:11:00,
2013-03-03 19:12:00,31.1,27.2,29.69,WNW,288,0.0,0.0,85,0.00,,---,0.00,VWS V14.01,2013-03-04 00:12:00,
2013-03-03 19:13:00,30.9,27.2,29.69,WNW,288,0.0,0.0,86,0.00,,,0.00,VWS V14.01,2013-03-04 00:13:00,
2013-03-03 19:14:00,31.1,27.2,29.69,WNW,288,0.0,0.0,85,0.00,,,0.00,VWS V14.01,2013-03-04 00:14:00,
2013-03-03 19:15:00,31.0,27.0,29.69,WNW,288,0.0,0.0,85,0.00,,,0.00,VWS V14.01,2013-03-04 00:15:00,
2013-03-03 19:16:00,31.0,26.7,29.69,NW,311,7.1,7.8,84,0.00,,,0.00,VWS V14.01,2013-03-04 00:16:00,
2013-03-03 19:17:00,30.9,26.6,29.69,NNW,346,0.0,5.7,84,0.00,,---,0.00,VWS V14.01,2013-03-04 00:17:00,
2013-03-03 19:18:00,30.9,26.6,29.69,NW,323,5.7,6.9,84,0.00,,,0.00,VWS V14.01,2013-03-04 00:18:00,
2013-03-03 19:19:00,30.9,26.6,29.69,NNW,346,0.0,5.7,84,0.00,,,0.00,VWS V14.01,2013-03-04 00:19:00,
2013-03-03 19:20:00,30.8,26.4,29.69,NW,326,0.0,5.3,84,0.00,,,0.00,VWS V14.01,2013-03-04 00:20:00,
2013-03-03 19:21:00,30.9,26.5,29.69,NW,326,0.0,0.0,84,0.00,,,0.00,VWS V14.01,2013-03-04 00:21:00,
2013-03-03 19:22:00,30.8,26.6,29.69,NW,311,0.0,0.0,84,0.00,,---,0.00,VWS V14.01,2013-03-04 00:22:00,
2013-03-03 19:23:00,30.8,26.3,29.69,NW,311,0.0,7.3,83,0.00,,,0.00,VWS V14.01,2013-03-04 00:23:00,
2013-03-03 19:24:00,30.8,26.6,29.69,NW,311,0.0,0.0,84,0.00,,,0.00,VWS V14.01,2013-03-04 00:24:00,
2013-03-03 19:25:00,30.8,26.5,29.69,NW,311,0.0,0.0,84,0.00,,,0.00,VWS V14.01,2013-03-04 00:25:00,
2013-03-03 19:26:00,30.9,26.8,29.69,NW,311,0.0,0.0,85,0.00,,,0.00,VWS V14.01,2013-03-04 00:26:00,
2013-03-03 19:27:00,30.9,26.4,29.69,West,269,0.0,5.3,83,0.00,,---,0.00,VWS V14.01,2013-03-04 00:27:00,
2013-03-03 19:28:00,30.8,26.5,29.69,NW,311,0.0,0.0,84,0.00,,,0.00,VWS V14.01,2013-03-04 00:28:00,
2013-03-03 19:29:00,30.9,26.4,29.69,West,269,0.0,5.3,83,0.00,,,0.00,VWS V14.01,2013-03-04 00:29:00,
2013-03-03 19:30:00,30.9,26.5,29.69,West,269,0.0,0.0,84,0.00,,,0.00,VWS V14.01,2013-03-04 00:30:00,
2013-03-03 19:31:00,30.9,26.7,29.69,West,269,0.0,0.0,84,0.00,,,0.00,VWS V14.01,2013-03-04 00:31:00,
2013-03-03 19:32:00,30.9,26.5,29.69,NNW,340,0.0,7.3,83,0.00,,---,0.00,VWS V14.01,2013-03-04 00:32:00,
2013-03-03 19:33:00,31.0,26.7,29.69,NW,325,3.3,6.1,84,0.00,,,0.00,VWS V14.01,2013-03-04 00:33:00,
2013-03-03 19:34:00,30.9,26.5,29.69,NNW,340,0.0,7.3,83,0.00,,,0.00,VWS V14.01,2013-03-04 00:34:00,
2013-03-03 19:35:00,30.9,26.6,29.69,NW,315,4.3,4.8,84,0.00,,,0.00,VWS V14.01,2013-03-04 00:35:00,
2013-03-03 19:36:00,30.8,26.3,29.69,NW,315,0.0,4.3,83,0.00,,,0.00,VWS V14.01,2013-03-04 00:36:00,
2013-03-03 19:37:00,30.8,26.3,29.69,NNW,329,8.2,8.5,83,0.00,,---,0.00,VWS V14.01,2013-03-04 00:37:00,
2013-03-03 19:38:00,30.9,26.4,29.69,NW,315,0.0,0.0,83,0.00,,,0.00,VWS V14.01,2013-03-04 00:38:00,
2013-03-03 19:39:00,30.8,26.3,29.69,NNW,329,8.2,8.5,83,0.00,,,0.00,VWS V14.01,2013-03-04 00:39:00,
2013-03-03 19:40:00,30.7,26.2,29.69,North,7,7.3,8.2,83,0.00,,,0.00,VWS V14.01,2013-03-04 00:40:00,
2013-03-03 19:41:00,30.8,26.3,29.69,WNW,297,1.8,7.9,83,0.00,,,0.00,VWS V14.01,2013-03-04 00:41:00,
2013-03-03 19:42:00,30.8,26.5,29.69,SW,217,1.6,6.6,84,0.00,,---,0.00,VWS V14.01,2013-03-04 00:42:00,
2013-03-03 19:43:00,30.7,26.6,29.69,WNW,297,0.0,2.8,84,0.00,,,0.00,VWS V14.01,2013-03-04 00:43:00,
2013-03-03 19:44:00,30.8,26.5,29.69,SW,217,1.6,6.6,84,0.00,,,0.00,VWS V14.01,2013-03-04 00:44:00,
2013-03-03 19:45:00,30.7,26.5,29.69,SW,217,0.0,1.6,84,0.00,,,0.00,VWS V14.01,2013-03-04 00:45:00,
2013-03-03 19:46:00,30.8,26.5,29.70,NW,309,4.3,5.9,84,0.00,,,0.00,VWS V14.01,2013-03-04 00:46:00,
2013-03-03 19:47:00,30.7,26.3,29.70,NW,323,0.0,0.0,83,0.00,,---,0.00,VWS V14.01,2013-03-04 00:47:00,
2013-03-03 19:48:00,30.8,26.4,29.69,NW,323,0.0,4.5,83,0.00,,,0.00,VWS V14.01,2013-03-04 00:48:00,
2013-03-03 19:49:00,30.7,26.3,29.70,NW,323,0.0,0.0,83,0.00,,,0.00,VWS V14.01,2013-03-04 00:49:00,
2013-03-03 19:50:00,30.9,26.7,29.70,NW,323,0.0,0.0,84,0.00,,,0.00,VWS V14.01,2013-03-04 00:50:00,
2013-03-03 19:51:00,30.9,26.2,29.70,NW,305,4.8,7.0,83,0.00,,,0.00,VWS V14.01,2013-03-04 00:51:00,
2013-03-03 19:52:00,30.8,25.9,29.70,NW,314,0.0,0.0,82,0.00,,---,0.00,VWS V14.01,2013-03-04 00:52:00,
2013-03-03 19:53:00,30.8,26.1,29.70,NW,314,0.0,6.2,83,0.00,,,0.00,VWS V14.01,2013-03-04 00:53:00,
2013-03-03 19:54:00,30.8,25.9,29.70,NW,314,0.0,0.0,82,0.00,,,0.00,VWS V14.01,2013-03-04 00:54:00,
2013-03-03 19:55:00,30.9,26.2,29.70,WSW,249,0.0,3.1,83,0.00,,,0.00,VWS V14.01,2013-03-04 00:55:00,
2013-03-03 19:56:00,30.8,26.3,29.70,WSW,249,0.0,0.0,83,0.00,,,0.00,VWS V14.01,2013-03-04 00:56:00,
2013-03-03 19:57:00,30.7,26.0,29.70,NNW,333,5.4,5.4,83,0.00,,---,0.00,VWS V14.01,2013-03-04 00:57:00,
2013-03-03 19:58:00,30.8,26.0,29.70,WSW,249,0.0,0.0,82,0.00,,,0.00,VWS V14.01,2013-03-04 00:58:00,
2013-03-03 19:59:00,30.7,26.0,29.70,NNW,333,5.4,5.4,83,0.00,,,0.00,VWS V14.01,2013-03-04 00:59:00,
2013-03-03 20:00:00,30.8,25.9,29.70,SW,215,0.0,5.4,82,0.00,,,0.00,VWS V14.01,2013-03-04 01:00:00,
2013-03-03 20:01:00,30.9,25.6,29.70,North,7,0.0,3.2,81,0.00,,,0.00,VWS V14.01,2013-03-04 01:01:00,
2013-03-03 20:02:00,30.7,25.6,29.70,West,281,0.0,5.6,81,0.00,,---,0.00,VWS V14.01,2013-03-04 01:02:00,
2013-03-03 20:03:00,30.8,25.6,29.70,NW,325,4.7,8.5,81,0.00,,,0.00,VWS V14.01,2013-03-04 01:03:00,
2013-03-03 20:04:00,30.7,25.6,29.70,West,281,0.0,5.6,81,0.00,,,0.00,VWS V14.01,2013-03-04 01:04:00,
2013-03-03 20:05:00,30.8,25.8,29.70,West,281,0.0,1.7,81,0.00,,,0.00,VWS V14.01,2013-03-04 01:05:00,
2013-03-03 20:06:00,30.7,25.2,29.70,WNW,301,3.5,9.5,80,0.00,,,0.00,VWS V14.01,2013-03-04 01:06:00,
2013-03-03 20:07:00,30.7,24.9,29.70,North,354,0.0,7.0,79,0.00,,---,0.00,VWS V14.01,2013-03-04 01:07:00,
2013-03-03 20:08:00,30.8,25.1,29.70,NNW,347,7.0,9.1,79,0.00,,,0.00,VWS V14.01,2013-03-04 01:08:00,
2013-03-03 20:09:00,30.7,24.9,29.70,North,354,0.0,7.0,79,0.00,,,0.00,VWS V14.01,2013-03-04 01:09:00,
2013-03-03 20:10:00,30.7,24.7,29.70,NW,309,0.0,4.2,78,0.00,,,0.00,VWS V14.01,2013-03-04 01:10:00,
2013-03-03 20:11:00,30.7,24.8,29.70,NW,309,0.0,0.0,78,0.00,,,0.00,VWS V14.01,2013-03-04 01:11:00,
2013-03-03 20:12:00,30.7,24.9,29.70,NW,325,6.9,6.9,79,0.00,,---,0.00,VWS V14.01,2013-03-04 01:12:00,
2013-03-03 20:13:00,30.8,25.0,29.70,NE,51,0.0,3.2,79,0.00,,,0.00,VWS V14.01,2013-03-04 01:13:00,
2013-03-03 20:14:00,30.7,24.9,29.70,NW,325,6.9,6.9,79,0.00,,,0.00,VWS V14.01,2013-03-04 01:14:00,
2013-03-03 20:15:00,30.6,24.4,29.70,NW,309,7.8,9.5,77,0.00,,,0.00,VWS V14.01,2013-03-04 01:15:00,
2013-03-03 20:16:00,30.5,24.2,29.70,NNE,18,2.8,7.8,77,0.00,,,0.00,VWS V14.01,2013-03-04 01:16:00,
2013-03-03 20:17:00,30.8,24.5,29.70,NNW,330,7.0,9.3,77,0.00,,---,0.00,VWS V14.01,2013-03-04 01:17:00,
2013-03-03 20:18:00,30.6,24.5,29.70,NNE,18,0.0,0.0,78,0.00,,,0.00,VWS V14.01,2013-03-04 01:18:00,
2013-03-03 20:19:00,30.8,24.5,29.70,NNW,330,7.0,9.3,77,0.00,,,0.00,VWS V14.01,2013-03-04 01:19:00,
2013-03-03 20:20:00,30.6,24.2,29.70,North,349,8.5,9.4,77,0.00,,,0.00,VWS V14.01,2013-03-04 01:20:00,
2013-03-03 20:21:00,30.5,24.0,29.70,NW,321,5.5,9.4,77,0.00,,,0.00,VWS V14.01,2013-03-04 01:21:00,
2013-03-03 20:22:00,30.7,24.0,29.70,NNW,330,0.0,8.2,76,0.00,,---,0.00,VWS V14.01,2013-03-04 01:22:00,
2013-03-03 20:23:00,30.7,24.0,29.70,North,350,7.6,9.6,76,0.00,,,0.00,VWS V14.01,2013-03-04 01:23:00,
2013-03-03 20:24:00,30.7,24.0,29.70,NNW,330,0.0,8.2,76,0.00,,,0.00,VWS V14.01,2013-03-04 01:24:00,
2013-03-03 20:25:00,30.7,24.1,29.70,NW,321,5.2,6.8,76,0.00,,,0.00,VWS V14.01,2013-03-04 01:25:00,
2013-03-03 20:26:00,30.7,24.0,29.70,NW,321,0.0,11.1,76,0.00,,,0.00,VWS V14.01,2013-03-04 01:26:00,
2013-03-03 20:27:00,30.7,23.7,29.70,NW,325,0.0,6.5,75,0.00,,---,0.00,VWS V14.01,2013-03-04 01:27:00,
2013-03-03 20:28:00,30.5,23.4,29.70,NW,323,6.1,10.4,75,0.00,,,0.00,VWS V14.01,2013-03-04 01:28:00,
2013-03-03 20:29:00,30.7,23.7,29.70,NW,325,0.0,6.5,75,0.00,,,0.00,VWS V14.01,2013-03-04 01:29:00,
2013-03-03 20:30:00,30.6,23.9,29.70,NW,325,0.0,1.4,76,0.00,,,0.00,VWS V14.01,2013-03-04 01:30:00,
2013-03-03 20:31:00,30.7,23.8,29.70,West,281,0.0,8.9,75,0.00,,,0.00,VWS V14.01,2013-03-04 01:31:00,
2013-03-03 20:32:00,30.7,24.0,29.71,WNW,302,0.0,6.5,76,0.00,,---,0.00,VWS V14.01,2013-03-04 01:32:00,
2013-03-03 20:33:00,30.6,23.9,29.71,NW,304,0.0,5.2,76,0.00,,,0.00,VWS V14.01,2013-03-04 01:33:00,
2013-03-03 20:34:00,30.7,24.0,29.71,WNW,302,0.0,6.5,76,0.00,,,0.00,VWS V14.01,2013-03-04 01:34:00,
2013-03-03 20:35:00,30.5,23.5,29.71,North,359,7.8,10.1,75,0.00,,,0.00,VWS V14.01,2013-03-04 01:35:00,
2013-03-03 20:36:00,30.3,23.1,29.71,NW,312,12.9,12.9,74,0.00,,,0.00,VWS V14.01,2013-03-04 01:36:00,
2013-03-03 20:37:00,30.2,22.9,29.71,NNW,338,6.2,8.9,74,0.00,,---,0.00,VWS V14.01,2013-03-04 01:37:00,
2013-03-03 20:38:00,30.4,23.1,29.71,SW,217,5.3,9.1,74,0.00,,,0.00,VWS V14.01,2013-03-04 01:38:00,
2013-03-03 20:39:00,30.2,22.9,29.71,NNW,338,6.2,8.9,74,0.00,,,0.00,VWS V14.01,2013-03-04 01:39:00,
2013-03-03 20:40:00,30.4,23.3,29.71,North,4,5.2,7.2,75,0.00,,,0.00,VWS V14.01,2013-03-04 01:40:00,
2013-03-03 20:41:00,30.2,22.7,29.71,NW,305,4.7,14.0,73,0.00,,,0.00,VWS V14.01,2013-03-04 01:41:00,
2013-03-03 20:42:00,30.3,23.2,29.71,North,357,6.7,9.4,75,0.00,,---,0.00,VWS V14.01,2013-03-04 01:42:00,
2013-03-03 20:43:00,30.2,23.1,29.71,NNW,336,9.4,9.4,74,0.00,,,0.00,VWS V14.01,2013-03-04 01:43:00,
2013-03-03 20:44:00,30.3,23.2,29.71,North,357,6.7,9.4,75,0.00,,,0.00,VWS V14.01,2013-03-04 01:44:00,
2013-03-03 20:45:00,30.2,22.9,29.71,West,274,6.0,9.8,74,0.00,,,0.00,VWS V14.01,2013-03-04 01:45:00,
2013-03-03 20:46:00,30.1,23.1,29.71,NW,315,0.0,8.6,75,0.00,,,0.00,VWS V14.01,2013-03-04 01:46:00,
2013-03-03 20:47:00,30.2,22.9,29.71,WNW,302,5.8,8.3,74,0.00,,---,0.00,VWS V14.01,2013-03-04 01:47:00,
2013-03-03 20:48:00,30.3,23.3,29.71,NW,321,7.5,7.5,75,0.00,,,0.00,VWS V14.01,2013-03-04 01:48:00,
2013-03-03 20:49:00,30.2,22.9,29.71,WNW,302,5.8,8.3,74,0.00,,,0.00,VWS V14.01,2013-03-04 01:49:00,
2013-03-03 20:50:00,30.1,22.6,29.71,NNW,345,9.4,12.1,73,0.00,,,0.00,VWS V14.01,2013-03-04 01:50:00,
2013-03-03 20:51:00,30.2,22.9,29.71,North,359,0.0,9.6,74,0.00,,,0.00,VWS V14.01,2013-03-04 01:51:00,
2013-03-03 20:52:00,30.1,22.8,29.71,NNW,328,8.7,8.7,74,0.00,,---,0.00,VWS V14.01,2013-03-04 01:52:00,
2013-03-03 20:53:00,30.1,22.8,29.71,NW,318,0.0,7.8,74,0.00,,,0.00,VWS V14.01,2013-03-04 01:53:00,
2013-03-03 20:54:00,30.1,22.8,29.71,NNW,328,8.7,8.7,74,0.00,,,0.00,VWS V14.01,2013-03-04 01:54:00,
2013-03-03 20:55:00,30.2,23.0,29.71,NW,315,0.0,8.7,74,0.00,,,0.00,VWS V14.01,2013-03-04 01:55:00,
2013-03-03 20:56:00,29.7,22.2,29.71,NNE,17,6.8,14.1,73,0.00,,,0.00,VWS V14.01,2013-03-04 01:56:00,
2013-03-03 20:57:00,30.0,22.9,29.71,NNE,13,0.0,10.5,74,0.00,,---,0.00,VWS V14.01,2013-03-04 01:57:00,
2013-03-03 20:58:00,29.9,22.8,29.71,NNW,328,2.7,8.0,74,0.00,,,0.00,VWS V14.01,2013-03-04 01:58:00,
2013-03-03 20:59:00,30.0,22.9,29.71,NNE,13,0.0,10.5,74,0.00,,,0.00,VWS V14.01,2013-03-04 01:59:00,
2013-03-03 21:00:00,30.0,22.7,29.71,NNW,342,7.4,9.6,74,0.00,,,0.00,VWS V14.01,2013-03-04 02:00:00,
2013-03-03 21:01:00,30.0,22.8,29.71,WNW,288,6.3,9.6,74,0.00,,,0.00,VWS V14.01,2013-03-04 02:01:00,
2013-03-03 21:02:00,29.8,22.5,29.71,NW,323,7.7,13.1,74,0.00,,---,0.00,VWS V14.01,2013-03-04 02:02:00,
2013-03-03 21:03:00,29.7,22.5,29.71,North,10,8.8,10.8,74,0.00,,,0.00,VWS V14.01,2013-03-04 02:03:00,
2013-03-03 21:04:00,29.8,22.5,29.71,NW,323,7.7,13.1,74,0.00,,,0.00,VWS V14.01,2013-03-04 02:04:00,
2013-03-03 21:05:00,29.7,22.5,29.71,North,359,6.3,8.7,74,0.00,,,0.00,VWS V14.01,2013-03-04 02:05:00,
2013-03-03 21:06:00,29.8,22.7,29.71,NW,308,6.0,10.9,74,0.00,,,0.00,VWS V14.01,2013-03-04 02:06:00,
2013-03-03 21:07:00,29.7,22.6,29.71,WNW,291,0.0,5.3,75,0.00,,---,0.00,VWS V14.01,2013-03-04 02:07:00,
2013-03-03 21:08:00,29.9,22.8,29.71,WNW,291,5.3,9.6,74,0.00,,,0.00,VWS V14.01,2013-03-04 02:08:00,
2013-03-03 21:09:00,29.7,22.6,29.71,WNW,291,0.0,5.3,75,0.00,,,0.00,VWS V14.01,2013-03-04 02:09:00,
2013-03-03 21:10:00,29.7,22.7,29.71,North,11,5.8,9.9,75,0.00,,,0.00,VWS V14.01,2013-03-04 02:10:00,
2013-03-03 21:11:00,29.6,22.3,29.71,NW,308,5.8,10.0,74,0.00,,,0.00,VWS V14.01,2013-03-04 02:11:00,
2013-03-03 21:12:00,29.7,22.7,29.71,NW,326,8.8,9.3,75,0.00,,---,0.00,VWS V14.01,2013-03-04 02:12:00,
2013-03-03 21:13:00,29.6,22.8,29.71,NNW,329,9.3,9.3,75,0.00,,,0.00,VWS V14.01,2013-03-04 02:13:00,
2013-03-03 21:14:00,29.7,22.7,29.71,NW,326,8.8,9.3,75,0.00,,,0.00,VWS V14.01,2013-03-04 02:14:00,
2013-03-03 21:15:00,29.5,22.6,29.71,NNW,332,6.1,10.6,75,0.00,,,0.00,VWS V14.01,2013-03-04 02:15:00,
2013-03-03 21:16:00,29.5,22.6,29.71,WSW,253,0.0,6.7,75,0.00,,,0.00,VWS V14.01,2013-03-04 02:16:00,
2013-03-03 21:17:00,29.6,22.8,29.71,North,354,7.3,7.3,75,0.00,,---,0.00,VWS V14.01,2013-03-04 02:17:00,
2013-03-03 21:18:00,29.8,23.1,29.71,NNW,335,0.0,7.2,76,0.00,,,0.00,VWS V14.01,2013-03-04 02:18:00,
2013-03-03 21:19:00,29.6,22.8,29.71,North,354,7.3,7.3,75,0.00,,,0.00,VWS V14.01,2013-03-04 02:19:00,
2013-03-03 21:20:00,29.3,22.2,29.71,North,359,7.1,8.6,75,0.00,,,0.00,VWS V14.01,2013-03-04 02:20:00,
2013-03-03 21:21:00,29.5,22.6,29.71,North,359,3.4,7.1,75,0.00,,,0.00,VWS V14.01,2013-03-04 02:21:00,
2013-03-03 21:22:00,29.5,22.7,29.71,WNW,300,0.0,0.0,76,0.00,,---,0.00,VWS V14.01,2013-03-04 02:22:00,
2013-03-03 21:23:00,29.4,22.6,29.71,WNW,300,0.0,5.5,76,0.00,,,0.00,VWS V14.01,2013-03-04 02:23:00,
2013-03-03 21:24:00,29.5,22.7,29.71,WNW,300,0.0,0.0,76,0.00,,,0.00,VWS V14.01,2013-03-04 02:24:00,
2013-03-03 21:25:00,29.5,22.9,29.71,WNW,300,0.0,0.0,76,0.00,,,0.00,VWS V14.01,2013-03-04 02:25:00,
2013-03-03 21:26:00,29.5,22.9,29.71,NNE,28,0.0,6.9,76,0.00,,,0.00,VWS V14.01,2013-03-04 02:26:00,
2013-03-03 21:27:00,29.4,22.7,29.71,NW,314,6.5,8.0,76,0.00,,---,0.00,VWS V14.01,2013-03-04 02:27:00,
2013-03-03 21:28:00,29.1,22.2,29.71,NNW,346,5.3,12.7,75,0.00,,,0.00,VWS V14.01,2013-03-04 02:28:00,
2013-03-03 21:29:00,29.4,22.7,29.71,NW,314,6.5,8.0,76,0.00,,,0.00,VWS V14.01,2013-03-04 02:29:00,
2013-03-03 21:30:00,29.3,22.6,29.71,NNE,15,3.3,8.1,76,0.00,,,0.00,VWS V14.01,2013-03-04 02:30:00,
2013-03-03 21:31:00,29.4,22.8,29.71,NNE,15,0.0,3.3,76,0.00,,,0.00,VWS V14.01,2013-03-04 02:31:00,
2013-03-03 21:32:00,29.3,22.9,29.71,NNE,15,0.0,0.0,77,0.00,,---,0.00,VWS V14.01,2013-03-04 02:32:00,
2013-03-03 21:33:00,29.4,22.9,29.71,NNE,15,0.0,0.0,76,0.00,,,0.00,VWS V14.01,2013-03-04 02:33:00,
2013-03-03 21:34:00,29.3,22.9,29.71,NNE,15,0.0,0.0,77,0.00,,,0.00,VWS V14.01,2013-03-04 02:34:00,
2013-03-03 21:35:00,29.4,22.8,29.71,NNW,347,6.7,8.7,76,0.00,,,0.00,VWS V14.01,2013-03-04 02:35:00,
2013-03-03 21:36:00,29.2,22.5,29.71,NNE,17,0.0,7.4,76,0.00,,,0.00,VWS V14.01,2013-03-04 02:36:00,
2013-03-03 21:37:00,29.4,22.9,29.71,NNW,335,6.8,6.8,76,0.00,,---,0.00,VWS V14.01,2013-03-04 02:37:00,
2013-03-03 21:38:00,29.4,22.8,29.71,NW,322,0.0,5.9,76,0.00,,,0.00,VWS V14.01,2013-03-04 02:38:00,
2013-03-03 21:39:00,29.4,22.9,29.71,NNW,335,6.8,6.8,76,0.00,,,0.00,VWS V14.01,2013-03-04 02:39:00,
2013-03-03 21:40:00,29.3,23.0,29.72,NNW,340,5.2,7.8,77,0.00,,,0.00,VWS V14.01,2013-03-04 02:40:00,
2013-03-03 21:41:00,29.3,22.7,29.72,NNW,328,5.0,7.3,76,0.00,,,0.00,VWS V14.01,2013-03-04 02:41:00,
2013-03-03 21:42:00,29.3,22.9,29.71,WNW,301,3.2,4.8,77,0.00,,---,0.00,VWS V14.01,2013-03-04 02:42:00,
2013-03-03 21:43:00,29.3,22.8,29.72,NNW,335,4.8,4.9,76,0.00,,,0.00,VWS V14.01,2013-03-04 02:43:00,
2013-03-03 21:44:00,29.3,22.9,29.72,WNW,301,3.2,4.8,77,0.00,,,0.00,VWS V14.01,2013-03-04 02:44:00,
2013-03-03 21:45:00,29.3,23.0,29.72,NNW,343,8.6,9.7,77,0.00,,,0.00,VWS V14.01,2013-03-04 02:45:00,
2013-03-03 21:46:00,29.3,22.9,29.72,West,281,5.2,8.6,77,0.00,,,0.00,VWS V14.01,2013-03-04 02:46:00,
2013-03-03 21:47:00,29.3,23.0,29.71,NW,323,0.0,4.6,77,0.00,,---,0.00,VWS V14.01,2013-03-04 02:47:00,
2013-03-03 21:48:00,29.4,23.0,29.72,NW,311,0.0,5.1,77,0.00,,,0.00,VWS V14.01,2013-03-04 02:48:00,
2013-03-03 21:49:00,29.3,23.0,29.72,NW,323,0.0,4.6,77,0.00,,,0.00,VWS V14.01,2013-03-04 02:49:00,
2013-03-03 21:50:00,29.2,22.8,29.72,NW,315,4.7,5.0,77,0.00,,,0.00,VWS V14.01,2013-03-04 02:50:00,
2013-03-03 21:51:00,29.2,22.9,29.72,WNW,295,0.0,5.4,77,0.00,,,0.00,VWS V14.01,2013-03-04 02:51:00,
2013-03-03 21:52:00,29.2,23.0,29.72,WNW,290,0.0,4.7,77,0.00,,---,0.00,VWS V14.01,2013-03-04 02:52:00,
2013-03-03 21:53:00,29.3,23.1,29.72,NNE,20,3.3,6.3,77,0.00,,,0.00,VWS V14.01,2013-03-04 02:53:00,
2013-03-03 21:54:00,29.2,23.0,29.72,WNW,290,0.0,4.7,77,0.00,,,0.00,VWS V14.01,2013-03-04 02:54:00,
2013-03-03 21:55:00,29.4,23.1,29.72,WNW,290,0.0,0.0,77,0.00,,,0.00,VWS V14.01,2013-03-04 02:55:00,
2013-03-03 21:56:00,29.3,23.0,29.72,WNW,290,0.0,3.2,77,0.00,,,0.00,VWS V14.01,2013-03-04 02:56:00,
2013-03-03 21:57:00,29.3,23.0,29.72,NW,308,0.0,7.0,77,0.00,,---,0.00,VWS V14.01,2013-03-04 02:57:00,
2013-03-03 21:58:00,29.3,22.9,29.72,NW,308,0.0,8.5,77,0.00,,,0.00,VWS V14.01,2013-03-04 02:58:00,
2013-03-03 21:59:00,29.3,23.0,29.72,NW,308,0.0,7.0,77,0.00,,,0.00,VWS V14.01,2013-03-04 02:59:00,
2013-03-03 22:00:00,29.1,22.7,29.72,West,267,0.0,5.7,77,0.00,,,0.00,VWS V14.01,2013-03-04 03:00:00,
2013-03-03 22:01:00,29.2,23.0,29.72,West,267,0.0,0.0,77,0.00,,,0.00,VWS V14.01,2013-03-04 03:01:00,
2013-03-03 22:02:00,29.1,22.8,29.72,NW,304,0.0,5.1,77,0.00,,---,0.00,VWS V14.01,2013-03-04 03:02:00,
2013-03-03 22:03:00,29.1,22.8,29.72,NW,326,4.6,5.0,77,0.00,,,0.00,VWS V14.01,2013-03-04 03:03:00,
2013-03-03 22:04:00,29.1,22.8,29.72,NW,304,0.0,5.1,77,0.00,,,0.00,VWS V14.01,2013-03-04 03:04:00,
2013-03-03 22:05:00,29.3,23.2,29.72,NW,304,0.0,0.0,78,0.00,,,0.00,VWS V14.01,2013-03-04 03:05:00,
2013-03-03 22:06:00,29.2,22.9,29.72,NW,304,0.0,0.0,77,0.00,,,0.00,VWS V14.01,2013-03-04 03:06:00,
2013-03-03 22:07:00,29.3,23.0,29.72,SW,235,0.0,0.0,77,0.00,,---,0.00,VWS V14.01,2013-03-04 03:07:00,
2013-03-03 22:08:00,29.2,22.8,29.72,SW,235,0.0,0.0,77,0.00,,,0.00,VWS V14.01,2013-03-04 03:08:00,
2013-03-03 22:09:00,29.3,23.0,29.72,SW,235,0.0,0.0,77,0.00,,,0.00,VWS V14.01,2013-03-04 03:09:00,
2013-03-03 22:10:00,29.1,22.9,29.72,WSW,243,0.0,6.2,77,0.00,,,0.00,VWS V14.01,2013-03-04 03:10:00,
2013-03-03 22:11:00,29.1,22.7,29.72,SW,219,2.9,6.5,77,0.00,,,0.00,VWS V14.01,2013-03-04 03:11:00,
2013-03-03 22:12:00,29.2,22.9,29.71,NW,314,0.0,4.3,77,0.00,,---,0.00,VWS V14.01,2013-03-04 03:12:00,
2013-03-03 22:13:00,29.1,22.8,29.72,NW,304,4.3,7.6,77,0.00,,,0.00,VWS V14.01,2013-03-04 03:13:00,
2013-03-03 22:14:00,29.2,22.9,29.72,NW,314,0.0,4.3,77,0.00,,,0.00,VWS V14.01,2013-03-04 03:14:00,
2013-03-03 22:15:00,29.1,22.6,29.72,NNW,338,7.7,7.7,76,0.00,,,0.00,VWS V14.01,2013-03-04 03:15:00,
2013-03-03 22:16:00,29.1,22.7,29.72,NW,326,6.2,7.8,77,0.00,,,0.00,VWS V14.01,2013-03-04 03:16:00,
2013-03-03 22:17:00,28.9,22.5,29.71,NW,307,0.0,7.1,77,0.00,,---,0.00,VWS V14.01,2013-03-04 03:17:00,
2013-03-03 22:18:00,28.9,22.4,29.72,NW,322,3.4,11.2,76,0.00,,,0.00,VWS V14.01,2013-03-04 03:18:00,
2013-03-03 22:19:00,28.9,22.5,29.72,NW,307,0.0,7.1,77,0.00,,,0.00,VWS V14.01,2013-03-04 03:19:00,
2013-03-03 22:20:00,29.0,22.7,29.72,NW,307,0.0,0.0,77,0.00,,,0.00,VWS V14.01,2013-03-04 03:20:00,
2013-03-03 22:21:00,28.9,22.6,29.72,NW,307,0.0,0.0,77,0.00,,,0.00,VWS V14.01,2013-03-04 03:21:00,
2013-03-03 22:22:00,28.9,22.4,29.71,NNW,342,3.2,8.1,76,0.00,,---,0.00,VWS V14.01,2013-03-04 03:22:00,
2013-03-03 22:23:00,29.0,22.4,29.71,NNW,335,0.0,7.5,76,0.00,,,0.00,VWS V14.01,2013-03-04 03:23:00,
2013-03-03 22:24:00,28.9,22.4,29.71,NNW,342,3.2,8.1,76,0.00,,,0.00,VWS V14.01,2013-03-04 03:24:00,
2013-03-03 22:25:00,29.0,22.5,29.71,NNW,329,0.0,7.0,76,0.00,,,0.00,VWS V14.01,2013-03-04 03:25:00,
2013-03-03 22:26:00,29.1,22.7,29.71,NNW,329,0.0,0.0,77,0.00,,,0.00,VWS V14.01,2013-03-04 03:26:00,
2013-03-03 22:27:00,28.8,22.7,29.71,WNW,300,7.6,12.6,78,0.00,,---,0.00,VWS V14.01,2013-03-04 03:27:00,
2013-03-03 22:28:00,29.0,22.5,29.71,NNE,18,0.0,9.6,76,0.00,,,0.00,VWS V14.01,2013-03-04 03:28:00,
2013-03-03 22:29:00,28.8,22.7,29.71,WNW,300,7.6,12.6,78,0.00,,,0.00,VWS V14.01,2013-03-04 03:29:00,
2013-03-03 22:30:00,28.9,22.5,29.71,NW,312,0.0,7.8,77,0.00,,,0.00,VWS V14.01,2013-03-04 03:30:00,
2013-03-03 22:31:00,29.0,22.7,29.71,NW,318,2.6,6.6,77,0.00,,,0.00,VWS V14.01,2013-03-04 03:31:00,
2013-03-03 22:32:00,28.8,22.4,29.71,NW,305,4.7,8.0,76,0.00,,---,0.00,VWS V14.01,2013-03-04 03:32:00,
2013-03-03 22:33:00,29.0,22.5,29.71,NW,312,0.0,6.5,76,0.00,,,0.00,VWS V14.01,2013-03-04 03:33:00,
2013-03-03 22:34:00,28.8,22.4,29.71,NW,305,4.7,8.0,76,0.00,,,0.00,VWS V14.01,2013-03-04 03:34:00,
2013-03-03 22:35:00,28.8,22.5,29.71,NW,305,0.0,7.0,77,0.00,,,0.00,VWS V14.01,2013-03-04 03:35:00,
2013-03-03 22:36:00,28.8,22.3,29.71,NW,305,0.0,0.0,76,0.00,,,0.00,VWS V14.01,2013-03-04 03:36:00,
2013-03-03 22:37:00,29.0,22.5,29.71,WNW,300,9.7,10.5,76,0.00,,---,0.00,VWS V14.01,2013-03-04 03:37:00,
2013-03-03 22:38:00,28.9,22.6,29.71,NW,305,0.0,0.0,77,0.00,,,0.00,VWS V14.01,2013-03-04 03:38:00,
2013-03-03 22:39:00,29.0,22.5,29.71,WNW,300,9.7,10.5,76,0.00,,,0.00,VWS V14.01,2013-03-04 03:39:00,
2013-03-03 22:40:00,28.9,22.4,29.71,NW,309,8.1,9.9,76,0.00,,,0.00,VWS V14.01,2013-03-04 03:40:00,
2013-03-03 22:41:00,28.8,22.3,29.71,North,359,7.1,9.9,76,0.00,,,0.00,VWS V14.01,2013-03-04 03:41:00,
2013-03-03 22:42:00,28.6,22.1,29.71,North,359,0.0,5.3,76,0.00,,---,0.00,VWS V14.01,2013-03-04 03:42:00,
2013-03-03 22:43:00,28.8,22.4,29.71,West,278,4.8,4.8,77,0.00,,,0.00,VWS V14.01,2013-03-04 03:43:00,
2013-03-03 22:44:00,28.6,22.1,29.71,North,359,0.0,5.3,76,0.00,,,0.00,VWS V14.01,2013-03-04 03:44:00,
2013-03-03 22:45:00,28.9,22.5,29.71,NNW,340,6.3,6.9,77,0.00,,,0.00,VWS V14.01,2013-03-04 03:45:00,
2013-03-03 22:46:00,28.8,22.3,29.71,West,270,6.0,8.3,76,0.00,,,0.00,VWS V14.01,2013-03-04 03:46:00,
2013-03-03 22:47:00,28.8,22.5,29.71,NNE,14,6.0,6.6,77,0.00,,---,0.00,VWS V14.01,2013-03-04 03:47:00,
2013-03-03 22:48:00,28.7,22.4,29.71,WNW,298,0.0,0.0,77,0.00,,,0.00,VWS V14.01,2013-03-04 03:48:00,
2013-03-03 22:49:00,28.8,22.5,29.71,NNE,14,6.0,6.6,77,0.00,,,0.00,VWS V14.01,2013-03-04 03:49:00,
2013-03-03 22:50:00,28.7,22.2,29.71,North,349,3.2,6.0,76,0.00,,,0.00,VWS V14.01,2013-03-04 03:50:00,
2013-03-03 22:51:00,28.8,22.5,29.71,North,359,0.0,3.2,77,0.00,,,0.00,VWS V14.01,2013-03-04 03:51:00,
2013-03-03 22:52:00,28.7,22.2,29.71,NNE,21,0.0,5.8,76,0.00,,---,0.00,VWS V14.01,2013-03-04 03:52:00,
2013-03-03 22:53:00,28.7,22.1,29.71,NW,314,4.8,9.6,76,0.00,,,0.00,VWS V14.01,2013-03-04 03:53:00,
2013-03-03 22:54:00,28.7,22.2,29.71,NNE,21,0.0,5.8,76,0.00,,,0.00,VWS V14.01,2013-03-04 03:54:00,
2013-03-03 22:55:00,28.7,22.1,29.71,WNW,284,1.4,5.2,76,0.00,,,0.00,VWS V14.01,2013-03-04 03:55:00,
2013-03-03 22:56:00,28.7,22.0,29.71,West,274,0.0,7.3,76,0.00,,,0.00,VWS V14.01,2013-03-04 03:56:00,
2013-03-03 22:57:00,29.0,22.7,29.71,NW,318,3.2,5.3,77,0.00,,---,0.00,VWS V14.01,2013-03-04 03:57:00,
2013-03-03 22:58:00,28.7,22.4,29.71,NNW,338,0.0,0.0,77,0.00,,,0.00,VWS V14.01,2013-03-04 03:58:00,
2013-03-03 22:59:00,29.0,22.7,29.71,NW,318,3.2,5.3,77,0.00,,,0.00,VWS V14.01,2013-03-04 03:59:00,
2013-03-03 23:00:00,28.9,22.4,29.71,NW,318,0.0,3.2,76,0.00,,,0.00,VWS V14.01,2013-03-04 04:00:00,
2013-03-03 23:01:00,28.9,22.3,29.71,North,0,0.0,6.2,76,0.00,,,0.00,VWS V14.01,2013-03-04 04:01:00,
2013-03-03 23:02:00,28.8,22.0,29.71,NW,311,0.0,6.8,76,0.00,,---,0.00,VWS V14.01,2013-03-04 04:02:00,
2013-03-03 23:03:00,28.7,22.1,29.71,NW,319,0.0,9.4,76,0.00,,,0.00,VWS V14.01,2013-03-04 04:03:00,
2013-03-03 23:04:00,28.8,22.0,29.71,NW,311,0.0,6.8,76,0.00,,,0.00,VWS V14.01,2013-03-04 04:04:00,
2013-03-03 23:05:00,28.6,22.0,29.71,NW,325,5.7,6.1,76,0.00,,,0.00,VWS V14.01,2013-03-04 04:05:00,
2013-03-03 23:06:00,28.7,22.0,29.71,NW,316,3.2,6.9,76,0.00,,,0.00,VWS V14.01,2013-03-04 04:06:00,
2013-03-03 23:07:00,28.7,22.3,29.71,NNW,332,0.0,0.0,77,0.00,,---,0.00,VWS V14.01,2013-03-04 04:07:00,
2013-03-03 23:08:00,28.7,22.1,29.71,NW,316,4.8,5.8,76,0.00,,,0.00,VWS V14.01,2013-03-04 04:08:00,
2013-03-03 23:09:00,28.9,22.4,29.71,NNW,332,0.0,4.8,76,0.00,,,0.00,VWS V14.01,2013-03-04 04:09:00,
2013-03-03 23:10:00,28.8,22.2,29.71,NNW,332,0.0,0.0,76,0.00,,,0.00,VWS V14.01,2013-03-04 04:10:00,
2013-03-03 23:11:00,28.7,22.0,29.71,NNW,332,0.0,0.0,76,0.00,,,0.00,VWS V14.01,2013-03-04 04:11:00,
2013-03-03 23:12:00,28.7,22.0,29.71,WNW,301,1.7,1.7,76,0.00,,---,0.00,VWS V14.01,2013-03-04 04:12:00,
2013-03-03 23:13:00,28.8,22.2,29.71,WNW,298,5.2,8.7,76,0.00,,,0.00,VWS V14.01,2013-03-04 04:13:00,
2013-03-03 23:14:00,28.7,22.0,29.71,WNW,301,0.0,6.0,76,0.00,,,0.00,VWS V14.01,2013-03-04 04:14:00,
2013-03-03 23:15:00,28.6,22.1,29.71,WNW,297,3.5,5.4,76,0.00,,,0.00,VWS V14.01,2013-03-04 04:15:00,
2013-03-03 23:16:00,28.8,22.3,29.71,North,350,0.0,4.4,76,0.00,,,0.00,VWS V14.01,2013-03-04 04:16:00,
2013-03-03 23:17:00,28.6,22.0,29.71,WNW,292,0.0,0.0,76,0.00,,---,0.00,VWS V14.01,2013-03-04 04:17:00,
2013-03-03 23:18:00,28.7,22.0,29.71,West,278,0.0,10.3,76,0.00,,,0.00,VWS V14.01,2013-03-04 04:18:00,
2013-03-03 23:19:00,28.6,22.1,29.72,WNW,292,0.0,7.3,76,0.00,,,0.00,VWS V14.01,2013-03-04 04:19:00,
2013-03-03 23:20:00,28.8,22.3,29.72,WNW,292,0.0,0.0,76,0.00,,,0.00,VWS V14.01,2013-03-04 04:20:00,
2013-03-03 23:21:00,28.5,21.9,29.72,WNW,287,3.4,5.7,76,0.00,,,0.00,VWS V14.01,2013-03-04 04:21:00,
2013-03-03 23:22:00,28.7,22.4,29.71,WNW,287,0.0,4.5,77,0.00,,---,0.00,VWS V14.01,2013-03-04 04:22:00,
2013-03-03 23:23:00,28.6,22.0,29.71,West,274,0.0,0.0,76,0.00,,,0.00,VWS V14.01,2013-03-04 04:23:00,
2013-03-03 23:24:00,28.7,22.3,29.71,WNW,287,4.5,5.9,76,0.00,,,0.00,VWS V14.01,2013-03-04 04:24:00,
2013-03-03 23:25:00,28.5,22.2,29.72,WNW,287,3.2,4.5,77,0.00,,,0.00,VWS V14.01,2013-03-04 04:25:00,
2013-03-03 23:26:00,28.8,22.3,29.71,NW,312,7.5,8.1,76,0.00,,,0.00,VWS V14.01,2013-03-04 04:26:00,
2013-03-03 23:27:00,28.3,21.8,29.71,NW,304,0.0,0.0,76,0.00,,---,0.00,VWS V14.01,2013-03-04 04:27:00,
2013-03-03 23:28:00,28.5,21.9,29.72,NW,312,6.3,9.9,76,0.00,,,0.00,VWS V14.01,2013-03-04 04:28:00,
2013-03-03 23:29:00,28.5,21.9,29.72,NW,304,0.0,9.5,76,0.00,,,0.00,VWS V14.01,2013-03-04 04:29:00,
2013-03-03 23:30:00,28.7,22.3,29.72,NW,304,0.0,0.0,77,0.00,,,0.00,VWS V14.01,2013-03-04 04:30:00,
2013-03-03 23:31:00,28.4,22.1,29.72,NW,304,0.0,0.0,77,0.00,,,0.00,VWS V14.01,2013-03-04 04:31:00,
2013-03-03 23:32:00,28.4,22.1,29.71,NW,304,0.0,0.0,77,0.00,,---,0.00,VWS V14.01,2013-03-04 04:32:00,
2013-03-03 23:33:00,28.5,22.1,29.72,NW,304,0.0,4.3,77,0.00,,,0.00,VWS V14.01,2013-03-04 04:33:00,
2013-03-03 23:34:00,28.5,22.2,29.72,NW,304,0.0,0.0,77,0.00,,,0.00,VWS V14.01,2013-03-04 04:34:00,
2013-03-03 23:35:00,28.6,22.4,29.71,NW,304,0.0,0.0,77,0.00,,,0.00,VWS V14.01,2013-03-04 04:35:00,
2013-03-03 23:36:00,28.5,22.1,29.71,NNW,345,0.0,3.4,76,0.00,,,0.00,VWS V14.01,2013-03-04 04:36:00,
2013-03-03 23:37:00,28.4,21.9,29.71,NW,318,7.3,9.3,76,0.00,,---,0.00,VWS V14.01,2013-03-04 04:37:00,
2013-03-03 23:38:00,28.3,21.5,29.72,WNW,285,2.7,9.5,75,0.00,,,0.00,VWS V14.01,2013-03-04 04:38:00,
2013-03-03 23:39:00,28.3,21.8,29.71,NW,318,5.4,6.0,76,0.00,,,0.00,VWS V14.01,2013-03-04 04:39:00,
2013-03-03 23:40:00,28.3,21.8,29.71,NNW,336,9.1,9.3,76,0.00,,,0.00,VWS V14.01,2013-03-04 04:40:00,
2013-03-03 23:41:00,28.2,21.6,29.71,WNW,302,0.0,10.9,76,0.00,,,0.00,VWS V14.01,2013-03-04 04:41:00,
2013-03-03 23:42:00,28.2,21.6,29.71,WNW,284,0.0,4.8,76,0.00,,---,0.00,VWS V14.01,2013-03-04 04:42:00,
2013-03-03 23:43:00,28.1,21.5,29.71,West,276,7.8,9.3,76,0.00,,,0.00,VWS V14.01,2013-03-04 04:43:00,
2013-03-03 23:44:00,28.2,21.5,29.71,WNW,283,4.2,8.6,76,0.00,,,0.00,VWS V14.01,2013-03-04 04:44:00,
2013-03-03 23:45:00,28.3,21.8,29.71,NW,305,0.0,4.8,76,0.00,,,0.00,VWS V14.01,2013-03-04 04:45:00,
2013-03-03 23:46:00,28.2,21.7,29.71,NW,312,3.4,4.9,76,0.00,,,0.00,VWS V14.01,2013-03-04 04:46:00,
2013-03-03 23:47:00,28.0,21.3,29.71,NNW,340,5.2,9.1,76,0.00,,---,0.00,VWS V14.01,2013-03-04 04:47:00,
2013-03-03 23:48:00,28.2,21.6,29.71,NNW,335,8.2,8.2,76,0.00,,,0.00,VWS V14.01,2013-03-04 04:48:00,
2013-03-03 23:49:00,27.9,21.1,29.71,NNW,340,8.9,13.3,75,0.00,,,0.00,VWS V14.01,2013-03-04 04:49:00,
2013-03-03 23:50:00,28.1,21.5,29.71,NNW,340,0.0,9.1,76,0.00,,,0.00,VWS V14.01,2013-03-04 04:50:00,
2013-03-03 23:51:00,28.2,21.9,29.71,WNW,300,4.2,4.5,77,0.00,,,0.00,VWS V14.01,2013-03-04 04:51:00,
2013-03-03 23:52:00,28.0,21.5,29.71,NW,309,0.0,5.4,76,0.00,,,0.00,VWS V14.01,2013-03-04 04:52:00,
2013-03-03 23:53:00,28.1,21.5,29.71,WNW,288,2.6,2.6,76,0.00,,---,0.00,VWS V14.01,2013-03-04 04:53:00,
2013-03-03 23:54:00,28.1,21.6,29.71,NW,314,0.0,0.0,76,0.00,,,0.00,VWS V14.01,2013-03-04 04:54:00,
2013-03-03 23:55:00,28.1,21.5,29.71,WNW,291,4.7,4.7,76,0.00,,,0.00,VWS V14.01,2013-03-04 04:55:00,
2013-03-03 23:56:00,28.0,21.3,29.71,North,357,6.3,9.4,76,0.00,,,0.00,VWS V14.01,2013-03-04 04:56:00,
2013-03-03 23:57:00,28.2,21.6,29.71,WNW,302,5.8,10.1,76,0.00,,,0.00,VWS V14.01,2013-03-04 04:57:00,
2013-03-03 23:58:00,28.0,21.4,29.71,WNW,285,0.0,6.8,76,0.00,,---,0.00,VWS V14.01,2013-03-04 04:58:00,
2013-03-03 23:59:00,28.0,21.3,29.71,NW,314,5.0,5.0,76,0.00,,,0.00,VWS V14.01,2013-03-04 04:59:00,